[[{"header":{"parameterUnit":"m.s-1","parameterCategory":1,"la1":30.6,"la2":28.766,"lo1":-90.7593,"lo2":-88.6598,"dy":0.0162,"dx":0.0183,"nx":116,"ny":114,"refTime":"2023-05-28T06:00:00:Z","depth":0,"parameterNumber":2,"parameterNumberName":"U-component_of_WINDS"},"data":[0.0,0.0,0.0,0.0,0.0,0.0,0.0,0.0,0.0,0.0,0.0,0.0,0.0,0.0,0.0,0.0,0.0,0.0,0.0,0.0,0.0,0.0,0.0,0.0,0.0,0.0,0.0,0.0,0.0,0.0,0.0,0.0,0.0,0.0,0.0,0.0,0.0,0.0,0.0,0.0,0.0,0.0,0.0,0.0,0.0,0.0,0.0,0.0,0.0,0.0,0.0,0.0,0.0,0.0,0.0,0.0,0.0,0.0,0.0,0.0,0.0,0.0,0.0,0.0,0.0,0.0,0.0,0.0,0.0,0.0,0.0,0.0,0.0,0.0,0.0,0.0,0.0,0.0,0.0,0.0,0.0,0.0,0.0,0.0,0.0,0.0,0.0,0.0,0.0,0.0,0.0,0.0,0.0,0.0,0.0,0.0,0.0,0.0,0.0,0.0,0.0,0.0,0.0,0.0,0.0,0.0,0.0,0.0,0.0,0.0,0.0,0.0,0.0,0.0,0.0,0.0,0.0,0.0,0.0,0.0,0.0,0.0,0.0,0.0,0.0,0.0,0.0,0.0,0.0,0.0,0.0,0.0,0.0,0.0,0.0,0.0,0.0,0.0,0.0,0.0,0.0,0.0,0.0,0.0,0.0,0.0,0.0,0.0,0.0,0.0,0.0,0.0,0.0,0.0,0.0,0.0,0.0,0.0,0.0,0.0,0.0,0.0,0.0,0.0,0.0,0.0,0.0,0.0,0.0,0.0,0.0,0.0,0.0,0.0,0.0,0.0,0.0,0.0,0.0,0.0,0.0,0.0,0.0,0.0,0.0,0.0,0.0,0.0,0.0,0.0,0.0,0.0,0.0,0.0,0.0,0.0,0.0,0.0,0.0,0.0,0.0,0.0,0.0,0.0,0.0,0.0,0.0,0.0,0.0,0.0,0.0,0.0,0.0,0.0,0.0,0.0,0.0,0.0,0.0,0.0,0.0,0.0,0.0,0.0,0.0,0.0,0.0,0.0,0.0,0.0,0.0,0.0,0.0,0.0,0.0,0.0,0.0,0.0,0.0,0.0,0.0,0.0,0.0,0.0,0.0,0.0,0.0,0.0,0.0,0.0,0.0,0.0,0.0,0.0,0.0,0.0,0.0,0.0,0.0,0.0,0.0,0.0,0.0,0.0,0.0,0.0,0.0,0.0,0.0,0.0,0.0,0.0,0.0,0.0,0.0,0.0,0.0,0.0,0.0,0.0,0.0,0.0,0.0,0.0,0.0,0.0,0.0,0.0,0.0,0.0,0.0,0.0,0.0,0.0,0.0,0.0,0.0,0.0,0.0,0.0,0.0,0.0,0.0,0.0,0.0,0.0,0.0,0.0,0.0,0.0,0.0,0.0,0.0,0.0,0.0,0.0,0.0,0.0,0.0,0.0,0.0,0.0,0.0,0.0,0.0,0.0,0.0,0.0,0.0,0.0,0.0,0.0,0.0,0.0,0.0,0.0,0.0,0.0,0.0,0.0,0.0,0.0,0.0,0.0,0.0,0.0,0.0,0.0,0.0,0.0,0.0,0.0,0.0,0.0,0.0,0.0,0.0,0.0,0.0,0.0,0.0,0.0,0.0,0.0,0.0,0.0,0.0,0.0,0.0,0.0,0.0,0.0,0.0,0.0,0.0,0.0,0.0,0.0,0.0,0.0,0.0,0.0,0.0,0.0,0.0,0.0,0.0,0.0,0.0,0.0,0.0,0.0,0.0,0.0,0.0,0.0,0.0,0.0,0.0,0.0,0.0,0.0,0.0,0.0,0.0,0.0,0.0,0.0,0.0,0.0,0.0,0.0,0.0,0.0,0.0,0.0,0.0,0.0,0.0,0.0,0.0,0.0,0.0,0.0,0.0,0.0,0.0,0.0,0.0,0.0,0.0,0.0,0.0,0.0,0.0,0.0,0.0,0.0,0.0,0.0,0.0,0.0,0.0,0.0,0.0,0.0,0.0,0.0,0.0,0.0,0.0,0.0,0.0,0.0,0.0,0.0,0.0,0.0,0.0,0.0,0.0,0.0,0.0,0.0,0.0,0.0,0.0,0.0,0.0,0.0,0.0,0.0,0.0,0.0,0.0,0.0,0.0,0.0,0.0,0.0,0.0,0.0,0.0,0.0,0.0,0.0,0.0,0.0,0.0,0.0,0.0,0.0,0.0,0.0,0.0,0.0,0.0,0.0,0.0,0.0,0.0,0.0,0.0,0.0,0.0,0.0,0.0,0.0,0.0,0.0,0.0,0.0,0.0,0.0,0.0,0.0,0.0,0.0,0.0,0.0,0.0,0.0,0.0,0.0,0.0,0.0,0.0,0.0,0.0,0.0,0.0,0.0,0.0,0.0,0.0,0.0,0.0,0.0,0.0,0.0,0.0,0.0,0.0,0.0,0.0,0.0,0.0,0.0,0.0,0.0,0.0,0.0,0.0,0.0,0.0,0.0,0.0,0.0,0.0,0.0,0.0,0.0,0.0,0.0,0.0,0.0,0.0,0.0,0.0,0.0,0.0,0.0,0.0,0.0,0.0,0.0,0.0,0.0,0.0,0.0,0.0,0.0,0.0,0.0,0.0,0.0,0.0,0.0,0.0,0.0,0.0,0.0,0.0,0.0,0.0,0.0,0.0,0.0,0.0,0.0,0.0,0.0,0.0,0.0,0.0,0.0,0.0,0.0,0.0,0.0,0.0,0.0,0.0,0.0,0.0,0.0,0.0,0.0,0.0,0.0,0.0,0.0,0.0,0.0,0.0,0.0,0.0,0.0,0.0,0.0,0.0,0.0,0.0,0.0,0.0,0.0,0.0,0.0,0.0,0.0,0.0,0.0,0.0,0.0,0.0,0.0,0.0,0.0,0.0,0.0,0.0,0.0,0.0,0.0,0.0,0.0,0.0,0.0,0.0,0.0,0.0,0.0,0.0,0.0,0.0,0.0,0.0,0.0,0.0,0.0,0.0,0.0,0.0,0.0,0.0,0.0,0.0,0.0,0.0,0.0,0.0,0.0,0.0,0.0,0.0,0.0,0.0,0.0,0.0,0.0,0.0,0.0,0.0,0.0,0.0,0.0,0.0,0.0,0.0,0.0,0.0,0.0,0.0,0.0,0.0,0.0,0.0,0.0,0.0,0.0,0.0,0.0,0.0,0.0,0.0,0.0,0.0,0.0,0.0,0.0,0.0,0.0,0.0,0.0,0.0,0.0,0.0,0.0,0.0,0.0,0.0,0.0,0.0,0.0,0.0,0.0,0.0,0.0,0.0,0.0,0.0,0.0,0.0,0.0,0.0,0.0,0.0,0.0,0.0,0.0,0.0,0.0,0.0,0.0,0.0,0.0,0.0,0.0,0.0,0.0,0.0,0.0,0.0,0.0,0.0,0.0,0.0,0.0,0.0,0.0,0.0,0.0,0.0,0.0,0.0,0.0,0.0,0.0,0.0,0.0,0.0,0.0,0.0,0.0,0.0,0.0,0.0,0.0,0.0,0.0,0.0,0.0,0.0,0.0,0.0,0.0,0.0,0.0,0.0,0.0,0.0,0.0,0.0,0.0,0.0,0.0,0.0,0.0,0.0,0.0,0.0,0.0,0.0,0.0,0.0,0.0,0.0,0.0,0.0,0.0,0.0,0.0,0.0,0.0,0.0,0.0,0.0,0.0,0.0,0.0,0.0,0.0,0.0,0.0,0.0,0.0,0.0,0.0,0.0,0.0,0.0,0.0,0.0,0.0,0.0,0.0,0.0,0.0,0.0,0.0,0.0,0.0,0.0,0.0,0.0,0.0,0.0,0.0,0.0,0.0,0.0,0.0,0.0,0.0,0.0,0.0,0.0,0.0,0.0,0.0,0.0,0.0,0.0,0.0,0.0,0.0,0.0,0.0,0.0,0.0,0.0,0.0,0.0,0.0,0.0,0.0,0.0,0.0,0.0,0.0,0.0,0.0,0.0,0.0,0.0,0.0,0.0,0.0,0.0,0.0,0.0,0.0,0.0,0.0,0.0,0.0,0.0,0.0,0.0,0.0,0.0,0.0,0.0,0.0,0.0,0.0,0.0,0.0,0.0,0.0,0.0,0.0,0.0,0.0,0.0,0.0,0.0,0.0,0.0,0.0,0.0,0.0,0.0,0.0,0.0,0.0,0.0,0.0,0.0,0.0,0.0,0.0,0.0,0.0,0.0,0.0,0.0,0.0,0.0,0.0,0.0,0.0,0.0,0.0,0.0,0.0,0.0,0.0,0.0,0.0,0.0,0.0,0.0,0.0,0.0,0.0,0.0,0.0,0.0,0.0,0.0,0.0,0.0,0.0,0.0,0.0,0.0,0.0,0.0,0.0,0.0,0.0,0.0,0.0,0.0,0.0,0.0,0.0,0.0,0.0,0.0,0.0,0.0,0.0,0.0,0.0,0.0,0.0,0.0,0.0,0.0,0.0,0.0,0.0,0.0,0.0,0.0,0.0,0.0,0.0,0.0,0.0,0.0,0.0,0.0,0.0,0.0,0.0,0.0,0.0,0.0,0.0,0.0,0.0,0.0,0.0,0.0,0.0,0.0,0.0,0.0,0.0,0.0,0.0,0.0,0.0,0.0,0.0,0.0,0.0,0.0,0.0,0.0,0.0,0.0,0.0,0.0,0.0,0.0,0.0,0.0,0.0,0.0,0.0,0.0,0.0,0.0,0.0,0.0,0.0,0.0,0.0,0.0,0.0,0.0,0.0,0.0,0.0,0.0,0.0,0.0,0.0,0.0,0.0,0.0,0.0,0.0,0.0,0.0,0.0,0.0,0.0,0.0,0.0,0.0,0.0,0.0,0.0,0.0,0.0,0.0,0.0,0.0,0.0,0.0,0.0,0.0,0.0,0.0,0.0,0.0,0.0,0.0,0.0,0.0,0.0,0.0,0.0,0.0,0.0,0.0,0.0,0.0,0.0,0.0,0.0,0.0,0.0,0.0,0.0,0.0,0.0,0.0,0.0,0.0,0.0,0.0,0.0,0.0,0.0,0.0,0.0,0.0,0.0,0.0,0.0,0.0,0.0,0.0,0.0,0.0,0.0,0.0,0.0,0.0,0.0,0.0,0.0,0.0,0.0,0.0,0.0,0.0,0.0,0.0,0.0,0.0,0.0,0.0,0.0,0.0,0.0,0.0,0.0,0.0,0.0,0.0,0.0,0.0,0.0,0.0,0.0,0.0,0.0,0.0,0.0,0.0,0.0,0.0,0.0,0.0,0.0,0.0,0.0,0.0,0.0,0.0,0.0,0.0,0.0,0.0,0.0,0.0,0.0,0.0,0.0,0.0,0.0,0.0,0.0,0.0,0.0,0.0,0.0,0.0,0.0,0.0,0.0,0.0,0.0,0.0,0.0,0.0,0.0,0.0,0.0,0.0,0.0,0.0,0.0,0.0,0.0,0.0,0.0,0.0,0.0,0.0,0.0,0.0,0.0,0.0,0.0,0.0,0.0,0.0,0.0,0.0,0.0,0.0,0.0,0.0,0.0,0.0,0.0,0.0,0.0,0.0,0.0,0.0,0.0,0.0,0.0,0.0,0.0,0.0,0.0,0.0,0.0,0.0,0.0,0.0,0.0,0.0,0.0,0.0,0.0,0.0,0.0,0.0,0.0,0.0,0.0,0.0,0.0,0.0,0.0,0.0,0.0,0.0,0.0,0.0,0.0,0.0,0.0,0.0,0.0,0.0,0.0,0.0,0.0,0.0,0.0,0.0,0.0,0.0,0.0,0.0,0.0,0.0,0.0,0.0,0.0,0.0,0.0,0.0,0.0,0.0,0.0,0.0,0.0,0.0,0.0,0.0,0.0,0.0,0.0,0.0,0.0,0.0,0.0,0.0,0.0,0.0,0.0,0.0,0.0,0.0,0.0,0.0,0.0,0.0,0.0,0.0,0.0,0.0,0.0,0.0,0.0,0.0,0.0,0.0,0.0,0.0,0.0,0.0,0.0,0.0,0.0,0.0,0.0,0.0,0.0,0.0,0.0,0.0,0.0,0.0,0.0,0.0,0.0,0.0,0.0,0.0,0.0,0.0,0.0,0.0,0.0,0.0,0.0,0.0,0.0,0.0,0.0,0.0,0.0,0.0,0.0,0.0,0.0,-1.7582,0.0,0.0,0.0,0.0,0.0,0.0,0.0,0.0,0.0,0.0,0.0,0.0,0.0,0.0,0.0,0.0,0.0,0.0,0.0,0.0,0.0,0.0,0.0,0.0,0.0,0.0,0.0,0.0,0.0,0.0,0.0,0.0,0.0,0.0,0.0,0.0,0.0,0.0,-0.2321,-0.1818,-0.1818,-0.2321,-0.1818,-0.1717,-0.2019,0.0,0.0,0.0,0.0,0.0,0.0,0.0,0.0,0.0,0.0,0.0,0.0,0.0,0.0,0.0,0.0,0.0,0.0,0.0,0.0,0.0,0.0,0.0,0.0,0.0,0.0,0.0,0.0,0.0,0.0,0.0,0.0,0.0,0.0,0.0,0.0,0.0,0.0,0.0,0.0,0.0,0.0,0.0,0.0,0.0,0.0,0.0,0.0,0.0,0.0,0.0,0.0,0.0,0.0,0.0,0.0,0.0,0.0,0.0,0.0,0.0,0.0,0.0,0.0,0.0,0.0,0.0,0.0,0.0,0.0,0.0,-1.7582,0.0,0.0,0.0,0.0,0.0,0.0,0.0,0.0,0.0,0.0,0.0,0.0,0.0,0.0,0.0,0.0,0.0,0.0,0.0,0.0,0.0,0.0,0.0,0.4234,0.3629,0.2421,0.1512,0.0605,0.0,0.0,0.0,0.0,0.0,0.0,-0.1617,-0.1617,-0.2019,-0.2923,-0.222,-0.2321,-0.3224,-0.2521,-0.212,-0.212,-0.1717,0.0,0.0,0.0,0.0,0.0,0.0,0.0,0.0,0.0,0.0,0.0,0.0,0.0,0.0,0.0,0.0,0.0,0.0,0.0,0.0,0.0,0.0,0.0,0.0,0.0,0.0,0.0,0.0,0.0,0.0,0.0,0.0,0.0,0.0,0.0,0.0,0.0,0.0,0.0,0.0,0.0,0.0,0.0,0.0,0.0,0.0,0.0,0.0,0.0,0.0,0.0,0.0,0.0,0.0,0.0,0.0,0.0,0.0,0.0,0.0,0.0,0.0,0.0,-1.658,-1.658,-1.664,-1.6887,-1.7027,-1.7088,-1.7382,-1.7535,-1.7582,0.0,0.0,0.0,0.0,0.0,0.0,0.0,0.0,0.0,0.0,0.0,0.0,0.0,0.0,0.0,0.0,0.0,0.0,0.0,0.0,0.0,0.0,0.4935,0.4433,0.3831,0.2316,0.1208,0.0706,0.0,0.0,0.0,0.0,-0.1617,-0.1617,-0.1617,-0.1718,-0.1818,-0.2622,-0.3024,-0.3224,-0.4024,-0.4423,-0.4323,-0.2422,-0.1617,-0.1718,0.0,0.0,0.0,0.0,0.0,0.0,0.0,0.0,0.0,0.0,0.0,0.0,0.0,0.0,0.0,0.0,0.0,0.0,0.0,0.0,0.0,0.0,0.0,0.0,0.0,0.0,0.0,0.0,0.0,0.0,0.0,0.0,0.0,0.0,0.0,0.0,0.0,0.0,0.0,0.0,0.0,-1.5153,-1.5057,0.0,0.0,0.0,0.0,0.0,0.0,0.0,0.0,0.0,0.0,0.0,0.0,0.0,-1.5992,-1.6326,-1.6039,-1.6039,-1.6326,-1.6066,-1.6079,-1.6333,-1.6373,-1.6526,-1.678,-1.7081,0.0,-1.7582,-1.7582,0.0,0.0,0.0,0.0,0.0,0.0,0.0,0.0,0.0,0.0,0.0,0.0,0.0,0.0,0.0,0.0,0.0,0.0,0.0,0.0,0.0,0.5436,0.5035,0.4533,0.3422,0.2314,0.1309,0.0202,0.0,0.0,-0.1617,-0.1617,-0.1617,-0.1415,-0.1415,-0.1415,-0.3021,-0.3922,-0.4124,-0.4624,-0.5127,-0.5629,-0.4126,-0.3425,-0.3423,-0.4228,0.0,0.0,0.0,0.0,0.0,0.0,0.0,0.0,0.0,0.0,0.0,0.0,0.0,0.0,0.0,0.0,0.0,0.0,0.0,0.0,0.0,0.0,0.0,0.0,0.0,0.0,0.0,0.0,0.0,0.0,0.0,0.0,0.0,0.0,0.0,0.0,0.0,0.0,0.0,-1.535,-1.5445,-1.4873,-1.535,-1.5642,0.0,0.0,0.0,0.0,0.0,0.0,0.0,0.0,0.0,-1.5832,-1.5832,-1.5892,-1.6019,-1.5892,-1.5892,-1.6019,-1.5892,-1.5899,-1.6032,-1.6192,-1.6339,-1.648,-1.6774,-1.6872,-1.6813,-1.6701,-1.6611,-1.6611,0.0,0.0,0.0,0.0,-1.4239,-1.3895,0.0,0.0,0.0,0.0,0.0,0.0,0.0,0.0,0.0,0.0,0.0,0.0,0.5837,0.5834,0.5634,0.5035,0.4227,0.3219,0.1812,0.0907,-0.0101,-0.1314,-0.1415,-0.1415,-0.1415,-0.1212,-0.1111,-0.1111,-0.302,-0.4121,-0.4323,-0.4624,-0.5327,-0.6334,-0.5327,-0.4824,-0.4824,-0.5532,-0.5834,-0.5934,0.0,0.0,0.0,0.0,0.0,0.0,0.0,0.0,0.0,0.0,0.0,0.0,0.0,0.0,0.0,0.0,0.0,0.0,0.0,0.0,0.0,0.0,0.0,0.0,0.0,0.0,0.0,0.0,0.0,0.0,0.0,0.0,0.0,0.0,0.0,0.0,0.0,-1.535,-1.554,-1.4777,-1.535,-1.573,0.0,0.0,0.0,0.0,0.0,0.0,-1.5832,-1.5832,-1.5832,-1.5832,-1.5832,-1.5832,-1.5832,-1.5832,-1.5832,-1.5832,-1.5832,-1.5832,-1.5838,-1.6059,-1.6159,-1.6179,-1.6466,-1.65,-1.6247,-1.6207,-1.5872,-1.5557,-1.449,-1.3848,-1.3529,-1.2991,-1.2671,-1.2219,0.0,0.0,0.0,0.0,0.0,0.0,0.0,0.0,0.0,0.0,0.0,0.6437,0.6334,0.6337,0.6134,0.5636,0.483,0.3726,0.2117,0.121,0.0303,-0.0808,-0.0808,-0.0808,-0.0808,-0.0808,-0.0808,-0.0808,-0.2217,-0.2919,-0.292,-0.4223,-0.5327,-0.6334,-0.5327,-0.4824,-0.4824,-0.5932,-0.6534,-0.683,-0.7832,0.0,0.0,0.0,0.0,0.0,0.0,0.0,0.0,0.0,0.0,0.0,0.0,0.0,0.0,0.0,0.0,0.0,0.0,0.0,0.0,0.0,0.0,0.0,0.0,0.0,0.0,0.0,0.0,0.0,0.0,0.0,0.0,0.0,0.0,0.0,0.0,0.0,0.0,-1.573,-1.5737,0.0,0.0,0.0,0.0,-1.5825,-1.5825,-1.5832,-1.5832,-1.5832,-1.5832,-1.5832,-1.5832,-1.5832,-1.5832,-1.5832,-1.5832,-1.5832,-1.5832,-1.5832,-1.5832,-1.5845,-1.5852,-1.5872,-1.6166,-1.6293,-1.6319,-1.652,-1.5935,-1.4916,-1.5023,-1.4401,-1.3054,-1.2034,-1.1417,-1.1001,0.0,0.0,0.0,0.0,0.0,0.0,0.0,0.0,0.763,0.6537,0.6437,0.6437,0.6437,0.6437,0.6337,0.6134,0.5834,0.4828,0.2619,0.2216,0.1209,-0.0707,-0.0808,-0.0707,-0.0505,-0.0505,-0.0505,-0.0505,-0.1713,-0.2415,-0.2618,-0.392,-0.4722,-0.5125,-0.4924,-0.4824,-0.4824,-0.5932,-0.6437,-0.6634,-0.7932,-0.8432,0.0,0.0,0.0,0.0,0.0,0.0,0.0,0.0,0.0,0.0,0.0,0.0,0.0,0.0,0.0,0.0,0.0,0.0,0.0,0.0,0.0,0.0,0.0,0.0,0.0,0.0,0.0,0.0,0.0,0.0,0.0,0.0,0.0,0.0,0.0,0.0,0.0,-1.5832,-1.5832,0.0,-1.5832,-1.5832,-1.5832,-1.5832,-1.5832,-1.5832,-1.5832,-1.5832,-1.5832,-1.5832,-1.5832,-1.5832,-1.5832,-1.5832,-1.5832,-1.5832,-1.5832,-1.5832,-1.5832,-1.5832,-1.5832,-1.5737,-1.5268,-1.4921,-1.4734,-1.4326,-1.4366,-1.4474,-1.3028,-1.2103,-1.1592,-1.0144,-0.963,-0.9619,0.0,0.0,0.0,0.0,0.0,0.0,0.0,0.0,0.773,0.6933,0.6534,0.6437,0.6437,0.6437,0.6237,0.5934,0.5837,0.4828,0.2518,0.2417,0.1512,-0.0404,-0.0505,-0.0404,-0.0303,-0.0303,-0.0303,-0.0303,-0.1109,-0.1511,-0.1713,-0.2717,-0.3419,-0.3718,-0.3521,-0.3721,-0.4123,-0.4926,-0.5432,-0.5932,-0.6828,-0.7428,-0.7733,0.0,0.0,0.0,0.0,0.0,0.0,0.0,0.0,0.0,0.0,0.0,0.0,0.0,0.0,0.0,0.0,0.0,0.0,0.0,0.0,0.0,0.0,0.0,0.0,0.0,0.0,0.0,0.0,0.0,0.0,0.0,0.0,0.0,0.0,-1.5832,-1.5832,-1.5832,-1.5832,-1.5832,-1.5832,-1.5832,-1.5832,-1.5832,-1.5832,-1.5832,-1.5832,-1.5832,-1.5832,-1.5832,-1.5832,-1.5832,-1.5832,-1.5832,-1.5832,-1.5832,-1.5832,-1.5832,-1.5832,-1.5832,-1.5832,-1.573,-1.4777,-1.4202,-1.4004,-1.3022,-1.3117,-1.3607,-1.1682,-1.0574,-1.0071,-0.8844,-0.8543,-0.8635,0.0,0.0,0.0,0.0,0.0,0.0,1.1077,0.9706,0.8524,0.773,0.6933,0.6437,0.6437,0.6437,0.5934,0.4935,0.4834,0.3929,0.1815,0.1613,0.111,0.0,0.0,0.0,0.0,0.0,0.0,0.0,-0.0303,-0.0404,-0.0404,-0.0707,-0.1312,-0.2316,-0.1211,-0.1513,-0.2719,-0.2719,-0.3521,-0.4724,-0.4724,-0.5427,-0.6337,0.0,0.0,0.0,0.0,0.0,0.0,0.0,0.0,0.0,0.0,0.0,0.0,0.0,0.0,0.0,0.0,0.0,0.0,0.0,0.0,0.0,0.0,0.0,0.0,0.0,0.0,0.0,0.0,0.0,0.0,0.0,0.0,0.0,-1.5832,-1.5832,-1.5832,-1.5832,-1.5832,-1.5832,-1.5832,-1.5832,-1.5832,-1.5832,-1.5832,-1.5832,-1.5832,-1.5832,-1.5832,-1.5832,-1.5832,-1.5832,-1.5832,-1.5832,-1.5832,-1.5832,-1.5832,-1.5832,-1.5832,-1.5832,-1.5832,-1.573,-1.4777,-1.4292,-1.4196,-1.3119,-1.2436,-1.2145,-1.117,-0.9998,-0.8825,-0.8528,-0.8233,-0.8038,0.0,0.0,0.0,0.0,0.0,0.0,1.1565,1.0194,0.9114,0.8513,0.7229,0.6437,0.6642,0.6539,0.6234,0.6034,0.5233,0.423,0.2821,0.2016,0.111,0.0,0.0,0.0,0.0,0.0,0.0,0.0,-0.0101,-0.0101,-0.0101,-0.0404,-0.0707,-0.0908,-0.0808,-0.101,-0.1312,-0.1312,-0.1513,-0.2116,-0.4022,-0.5024,-0.5327,0.0,0.0,0.0,0.0,0.0,0.0,0.0,0.0,0.0,0.0,0.0,0.0,0.0,0.0,0.0,0.0,0.0,0.0,0.0,0.0,0.0,0.0,0.0,0.0,0.0,0.0,0.0,0.0,0.0,0.0,0.0,-1.5832,-1.5832,-1.5832,-1.5832,-1.5832,-1.5832,-1.5832,-1.5832,-1.5832,-1.5832,-1.5832,-1.5832,-1.5832,-1.5832,-1.5832,-1.5832,-1.5832,-1.5832,-1.5832,-1.5832,-1.5832,-1.5832,-1.5832,-1.5832,-1.5832,-1.5832,-1.5832,-1.5832,-1.5832,-1.573,-1.4777,-1.3902,-1.3022,-1.1853,-1.0788,-1.0109,-1.0592,-1.0493,-0.9817,-0.8829,-0.8233,-0.8038,0.0,0.0,0.0,0.0,0.0,0.0,1.2549,1.1272,1.019,0.9402,0.8216,0.7229,0.6842,0.6642,0.6337,0.5737,0.5135,0.413,0.262,0.1513,0.0606,0.0,0.0,0.0,0.0,0.0,0.0,0.0,0.0,0.0,0.0,-0.0202,-0.0202,-0.0202,-0.0404,-0.0505,-0.0606,-0.0606,-0.0707,-0.0909,-0.2518,-0.342,-0.4022,-0.4926,-0.5829,-0.683,-0.8216,-0.911,-0.9706,-1.0779,0.0,0.0,0.0,0.0,0.0,0.0,0.0,0.0,0.0,0.0,0.0,0.0,0.0,0.0,0.0,0.0,0.0,0.0,0.0,0.0,0.0,0.0,0.0,0.0,-1.5159,-1.535,-1.573,-1.5832,-1.5832,-1.5832,-1.5832,-1.5832,-1.5832,-1.5832,-1.5832,-1.5832,-1.5832,-1.5832,-1.5832,-1.5832,-1.5832,-1.5832,-1.5832,-1.5832,-1.5832,-1.5832,-1.5832,-1.5832,-1.5832,-1.5832,-1.5832,-1.5832,-1.5832,0.0,-1.4777,-1.3709,-1.263,-1.1463,-1.0301,0.0,0.0,0.0,0.0,0.0,-0.8233,-0.8038,0.0,0.0,0.0,0.0,0.0,0.0,1.3636,1.2549,1.1365,1.0391,0.9497,0.8513,0.7238,0.7039,0.6439,0.5135,0.4935,0.3929,0.1915,0.0908,0.0404,0.0404,0.0202,0.0202,0.0202,0.0101,0.0,0.0,0.0,0.0,0.0,0.0,0.0,0.0,0.0101,0.0,-0.0202,0.0,-0.0101,-0.0404,-0.0505,-0.1412,-0.2619,-0.3022,-0.4327,-0.6034,-0.6337,-0.7132,-0.8127,-0.9406,0.0,0.0,0.0,0.0,0.0,0.0,0.0,0.0,0.0,0.0,0.0,0.0,0.0,0.0,0.0,0.0,0.0,0.0,0.0,0.0,0.0,0.0,0.0,0.0,-1.4394,-1.4777,-1.5635,-1.573,-1.5635,-1.5825,-1.5832,-1.5832,-1.5832,-1.5832,-1.5832,-1.5832,-1.5832,-1.5832,-1.5832,0.0,0.0,0.0,0.0,-1.5832,-1.5832,-1.5832,-1.5832,-1.5832,-1.5832,-1.5832,-1.5832,-1.5832,-1.573,-1.554,-1.4682,-1.3613,-1.2436,-1.1463,-1.0301,-0.9133,-0.8829,-0.8726,-0.8726,-0.8432,-0.8237,-0.8038,0.0,0.0,0.0,0.0,0.0,0.0,1.4106,1.3028,1.2145,1.2145,1.096,0.9784,0.8821,0.8517,0.7922,0.6539,0.5634,0.4528,0.3022,0.272,0.262,0.262,0.1714,0.1311,0.1311,0.0404,0.0,0.0,0.0,0.0,0.0,0.0,0.0,0.0,0.0908,0.1311,0.1311,0.2116,0.2519,0.2317,0.121,-0.0101,-0.1615,-0.2519,-0.3222,-0.4026,-0.5734,-0.6032,-0.5824,-0.773,-0.8609,-0.8977,-0.9989,-1.1072,0.0,0.0,0.0,0.0,0.0,0.0,0.0,0.0,0.0,0.0,0.0,0.0,0.0,0.0,0.0,0.0,0.0,0.0,0.0,-1.4394,-1.4968,-1.554,-1.5737,-1.5064,-1.4873,-1.573,-1.5832,-1.5832,-1.5832,-1.5832,-1.5832,-1.5832,-1.5832,-1.5832,-1.5832,-1.5832,-1.5832,-1.5832,-1.5832,-1.5832,-1.5832,-1.5832,-1.5832,-1.5832,0.0,0.0,-1.5832,-1.5832,-1.535,-1.4586,-1.4394,-1.3221,-1.1463,-1.0783,-0.9805,-0.8531,-0.8531,-0.8432,-0.8432,-0.8137,-0.8038,-0.8038,0.0,0.0,0.0,0.0,0.0,0.0,1.4298,1.3709,1.3125,1.2732,1.2042,1.1161,1.0096,0.9406,0.8616,0.773,0.6129,0.4828,0.4028,0.3624,0.3321,0.3224,0.272,0.2418,0.2418,0.1915,0.1613,0.1613,0.1613,0.1613,0.1613,0.1613,0.1311,0.0807,0.1915,0.2116,0.1613,0.2217,0.272,0.3022,0.1311,0.0404,-0.0101,-0.1513,-0.252,-0.3324,-0.4429,-0.4826,-0.4924,-0.6027,-0.6822,-0.7508,-0.8018,-0.9106,-1.019,0.0,0.0,0.0,0.0,0.0,0.0,0.0,0.0,0.0,0.0,0.0,0.0,0.0,0.0,-1.3318,-1.2829,0.0,-1.4088,-1.3607,-1.3896,-1.428,-1.428,-1.38,-1.3902,-1.4968,-1.5064,-1.5064,-1.5064,-1.554,-1.5832,-1.5832,-1.5832,-1.5832,-1.5832,-1.5832,-1.5832,-1.5832,-1.5832,-1.5832,-1.5832,-1.5832,-1.5832,-1.5832,-1.5832,-1.554,-1.5064,-1.4956,-1.4274,-1.3318,-1.3318,-1.2344,-1.0685,-0.9801,-0.9019,-0.8432,-0.8237,-0.8233,-0.8432,-0.8237,-0.8137,-0.8038,0.0,0.0,0.0,0.0,0.0,0.0,0.0,1.4298,1.4004,1.3119,1.3022,1.2533,1.1268,1.0391,0.96,0.8905,0.7214,0.6024,0.5632,0.4924,0.4321,0.3927,0.3626,0.3525,0.3525,0.3324,0.3224,0.3224,0.3224,0.3224,0.3224,0.3224,0.272,0.1916,0.3022,0.3022,0.2217,0.2417,0.3021,0.3624,0.1513,0.1009,0.131,-0.0404,-0.1817,-0.2822,-0.3022,-0.3624,-0.4225,-0.4624,-0.5327,-0.6134,-0.6334,-0.7335,-0.8333,-0.8432,-0.9118,0.0,0.0,0.0,0.0,0.0,0.0,0.0,0.0,-1.2242,-1.2344,-1.215,-1.2242,-1.2339,-1.215,-1.2441,-1.2635,-1.2436,-1.2533,-1.2727,-1.2727,-1.2533,-1.2732,-1.3613,-1.4004,-1.4394,-1.4586,-1.535,-1.5832,-1.5832,-1.5832,-1.5832,-1.5832,-1.5832,-1.5832,-1.5832,-1.5832,-1.5832,-1.5832,-1.5832,-1.573,-1.554,-1.554,-1.4962,-1.3902,-1.3692,-1.3011,-1.195,-1.175,-1.1072,-0.9998,-0.8821,-0.8333,-0.8333,-0.8038,-0.8137,-0.8333,-0.8333,-0.8237,-0.8038,0.0,0.0,0.0,0.0,0.0,0.0,0.0,0.0,1.4298,1.41,1.41,1.3709,1.2635,1.2339,1.1848,1.0681,1.0079,0.9387,0.8407,0.8011,0.7422,0.6439,0.5236,0.4634,0.4634,0.3726,0.3224,0.3224,0.3224,0.3224,0.3224,0.3224,0.3123,0.3022,0.413,0.4533,0.4531,0.5434,0.5934,0.5834,0.3725,0.272,0.2417,0.0303,-0.0909,-0.1515,-0.2519,-0.242,-0.222,-0.4124,-0.4924,-0.5127,-0.6134,-0.7135,-0.8137,-0.8333,-0.8528,-0.8726,-0.892,-0.9805,-1.0489,-0.9719,-1.0984,-1.195,0.0,-1.0694,-1.1077,-1.0113,-1.069,-1.1077,-1.0113,-1.1473,-1.2436,-1.1463,-1.2145,-1.2727,-1.2727,-1.195,-1.1365,-1.156,-1.3221,-1.4682,-1.554,-1.573,-1.5832,-1.5832,-1.5832,-1.5832,-1.5832,-1.5832,-1.5832,-1.5832,-1.5832,-1.5832,-1.5832,-1.5832,-1.535,-1.449,-1.449,-1.3806,-1.2533,-1.2528,-1.1755,-1.0587,-0.9608,-0.9118,-0.892,-0.8528,-0.8237,-0.8038,-0.8038,-0.8041,-0.8038,-0.8038,-0.8038,-0.8038,0.0,0.0,0.0,0.0,0.0,0.0,0.0,0.0,0.0,1.4298,1.4298,1.41,1.3709,1.2926,1.2047,1.0877,1.0676,1.0378,0.9784,0.9788,0.9497,0.8901,0.8014,0.7617,0.7617,0.6423,0.5727,0.5727,0.5329,0.5031,0.5031,0.5031,0.473,0.413,0.5233,0.5336,0.4834,0.5236,0.5834,0.6234,0.4026,0.3123,0.282,0.1311,0.0101,-0.0808,-0.1615,-0.1716,0.0,-0.2622,-0.3324,-0.4024,-0.5127,-0.6232,-0.7238,-0.7935,-0.8137,-0.8233,-0.8531,-0.9122,-0.962,-0.9331,-1.0015,-1.0498,-0.9723,-0.9916,-1.0109,-0.9723,-0.9916,-1.0301,-1.0498,-1.1272,-1.1658,-1.1268,-1.156,-1.1565,-1.0988,-1.0498,-1.0498,-1.117,-1.195,-1.2926,-1.389,-1.5057,-1.5832,-1.5832,-1.5832,-1.554,-1.4968,-1.4968,-1.4669,-1.3986,-1.3986,-1.3986,-1.3986,-1.3986,-1.3794,-1.3414,-1.3414,-1.2732,-1.1463,-1.1268,-1.0485,-0.9217,-0.8627,-0.8432,-0.8528,-0.8233,-0.8137,-0.8038,-0.8038,-0.8038,-0.8038,-0.8038,-0.8038,-0.8038,0.0,0.0,0.0,0.0,0.0,0.0,0.0,0.0,0.0,0.0,1.4394,1.4394,1.4298,1.3414,1.2533,1.1853,1.1755,1.1556,1.1058,1.1165,1.097,1.0569,1.0087,0.9797,0.9608,0.8619,0.8127,0.7928,0.7332,0.7033,0.7033,0.7033,0.6534,0.5634,0.6334,0.6134,0.5233,0.5233,0.5737,0.6237,0.4429,0.3626,0.3525,0.2116,0.0908,-0.0202,-0.0808,-0.1212,-0.1516,-0.1617,-0.2321,-0.3425,-0.4423,-0.5529,-0.6637,-0.764,-0.8038,-0.8038,-0.8233,-0.8634,-0.9034,-0.9031,-0.9331,-0.9529,-0.9628,-0.9628,-0.9628,-0.9628,-0.9628,-0.9821,-1.0592,-1.0788,-1.0788,-1.0788,-1.0788,-1.0498,-0.9727,-0.9628,-0.9916,-1.069,-1.0979,-1.1463,-1.2242,-1.4184,-1.5248,-1.4956,-1.5248,-1.4962,-1.3902,-1.3902,-1.3511,-1.2727,-1.2727,-1.2727,-1.2727,-1.2727,-1.2533,-1.2242,-1.2242,-1.1463,-1.0194,-0.9903,-0.9217,-0.8432,-0.8137,-0.8137,-0.8333,-0.8137,-0.8038,-0.8038,-0.8038,-0.8038,-0.8038,-0.8038,-0.8038,-0.8038,0.0,0.0,0.0,0.0,0.0,0.0,0.0,0.0,0.0,0.0,0.0,0.0,0.0,1.4298,1.4202,1.4202,1.4202,1.3709,1.2727,1.2436,1.1853,1.0877,1.0476,1.0083,0.9608,0.9608,0.9316,0.8726,0.8726,0.8726,0.8726,0.8726,0.8326,0.7531,0.7531,0.7132,0.6337,0.6337,0.6337,0.6337,0.5236,0.4734,0.4533,0.2418,0.121,0.0605,-0.0404,-0.101,-0.1212,-0.1516,-0.2321,-0.3425,-0.4423,-0.5529,-0.6637,-0.764,-0.8038,-0.8038,-0.8038,-0.8237,-0.8531,-0.8726,-0.9031,-0.9236,-0.9529,-0.9628,-0.9628,-0.9628,-0.9628,-0.9628,-0.9628,-0.9624,-0.9624,-0.9624,-0.9624,-0.9628,-0.9628,-0.9628,-0.9628,-0.9628,-1.0596,-1.117,-1.1268,-1.3125,-1.3902,-1.2823,-1.3806,-1.3902,-1.2829,-1.2732,-1.2727,-1.2727,-1.2727,-1.2727,-1.2727,-1.2727,-1.2242,-1.1268,-1.0974,-1.0194,-0.8825,-0.8333,-0.8237,-0.8432,-0.8137,-0.8137,-0.8333,-0.8137,-0.8038,-0.8038,-0.8038,-0.8038,-0.8038,-0.8038,-0.8038,-0.8038,0.0,0.0,0.0,0.0,0.0,0.0,0.0,0.0,0.0,0.0,0.0,0.0,0.0,0.0,0.0,0.0,1.4298,1.41,1.3806,1.3709,1.3511,1.3125,1.2737,1.2349,1.216,1.0979,1.0293,1.0096,0.9217,0.8825,0.8825,0.8825,0.8623,0.8425,0.8425,0.7928,0.7232,0.7232,0.6933,0.6337,0.6037,0.5436,0.4634,0.3021,0.1813,0.0907,0.0,-0.1212,-0.1516,-0.1617,-0.1818,-0.2421,-0.4225,-0.5024,-0.5729,-0.7434,-0.8038,-0.8038,-0.8038,-0.8237,-0.8432,-0.8726,-0.9031,-0.9232,-0.9529,-0.9628,-0.9628,-0.9628,-0.9628,-0.9628,-0.9628,-0.9628,-0.9628,-0.9628,-0.9628,-0.9628,-0.9628,-0.9628,-0.9628,-0.9628,-0.9916,-1.0109,-1.0109,-1.2052,-1.3119,-1.2727,-1.3022,-1.2829,-1.1755,-1.1658,-1.137,-1.0694,-1.06,-1.06,-1.06,-1.06,-1.0502,-1.0109,-0.971,-0.9118,-0.8531,-0.8137,-0.8038,-0.8137,-0.8038,-0.8038,-0.8137,-0.8038,-0.8038,-0.8038,-0.8038,-0.8038,-0.8038,-0.8038,-0.8038,-0.8038,0.0,0.0,0.0,0.0,0.0,0.0,0.0,0.0,0.0,0.0,0.0,0.0,0.0,0.0,0.0,0.0,0.0,1.5153,1.5153,1.5153,1.5153,1.5153,1.4777,1.4298,1.3619,1.2533,1.1556,1.0984,1.0105,0.9612,0.9612,0.9612,0.9517,0.9225,0.9225,0.8825,0.8028,0.8028,0.7531,0.6833,0.6833,0.6234,0.5233,0.3825,0.2517,0.0,-0.0202,-0.1111,-0.1617,-0.1617,-0.1617,-0.1919,-0.3624,-0.4726,-0.5629,-0.7036,-0.7739,-0.8038,-0.8038,-0.8237,-0.8432,-0.8627,-0.8931,-0.9236,-0.943,-0.9529,-0.9628,-0.9628,-0.9529,-0.9529,-0.9628,-0.9529,-0.9529,-0.9628,-0.9628,-0.9628,-0.9628,-0.9628,-0.9628,-0.9628,-0.9628,-0.9628,-0.9628,-1.0792,-1.1565,-1.1565,-1.1955,-1.1755,-1.069,-1.0592,-1.0306,-0.9628,-0.9628,-0.9628,-0.9628,-0.9529,-0.9331,-0.913,-0.8829,-0.8531,-0.8237,-0.8038,-0.8038,-0.8038,-0.8038,-0.8038,-0.8038,-0.8038,-0.8038,-0.8038,-0.8038,-0.8038,-0.8038,-0.8038,-0.8038,-0.8038,0.0,0.0,0.0,0.0,0.0,0.0,0.0,0.0,0.0,0.0,0.0,0.0,0.0,0.0,0.0,0.0,0.0,0.0,1.6588,1.6588,1.6588,1.6588,1.6588,1.5812,1.407,1.3968,1.3113,1.1389,1.1292,1.1292,1.1292,1.1194,1.0801,1.0019,1.0019,0.962,0.8825,0.8825,0.8326,0.763,0.763,0.7132,0.6234,0.4626,0.332,0.2115,0.0504,-0.0707,-0.1617,-0.1617,-0.1617,-0.1818,-0.2923,-0.4628,-0.6337,-0.6337,-0.7036,-0.7939,-0.7939,-0.8137,-0.8432,-0.8432,-0.8733,-0.9133,-0.9133,-0.9331,-0.9529,-0.9529,-0.9331,-0.9236,-0.9529,-0.943,-0.9331,-0.9529,-0.9628,-0.9628,-0.9628,-0.9628,-0.9628,-0.9628,-0.9628,-0.9628,-0.9628,-0.9628,-0.9628,-0.9628,0.0,-1.069,-0.9624,-0.9628,-0.9628,-0.9628,-0.9628,-0.9529,-0.9529,-0.9331,-0.8931,-0.8432,-0.8432,-0.8237,-0.8038,-0.8038,-0.8038,-0.8038,-0.8038,-0.8038,-0.8038,-0.8038,-0.8038,-0.8038,-0.8038,-0.8038,-0.8038,-0.8038,-0.7939,-0.7939,0.0,0.0,0.0,0.0,0.0,0.0,0.0,0.0,0.0,0.0,0.0,0.0,0.0,0.0,0.0,0.0,0.0,0.0,1.6588,1.6588,1.6588,1.6588,1.6588,1.6292,1.5609,1.5216,1.4644,1.3986,1.2926,1.2349,1.2344,1.158,1.1096,1.0904,1.0904,1.0408,0.9719,0.9719,0.8924,0.763,0.763,0.6833,0.5634,0.4225,0.2917,0.1611,0.0202,-0.0909,-0.1617,-0.1617,-0.2119,-0.2822,-0.3123,-0.4126,-0.5227,-0.5227,-0.5929,-0.6836,-0.6836,-0.7437,-0.8137,-0.8333,-0.8531,-0.863,-0.8829,-0.8928,-0.9023,-0.9023,-0.913,-0.9232,-0.9335,-0.943,-0.9529,-0.9628,-0.9628,-0.9628,-0.9628,-0.9628,-0.9628,-0.9628,-0.9628,-0.9628,-0.9628,-0.9628,-0.9628,-0.9628,-0.9821,-0.9916,-0.9628,-0.9628,-0.9529,-0.9331,-0.9331,-0.9229,-0.9023,-0.8928,-0.873,-0.8432,-0.8432,-0.8237,-0.8038,-0.8038,-0.8038,-0.8038,-0.8038,-0.8038,-0.8038,-0.8038,-0.8038,-0.8038,-0.8038,-0.8038,-0.8038,-0.8038,-0.7537,-0.6836,0.0,0.0,0.0,0.0,0.0,0.0,0.0,0.0,0.0,0.0,0.0,0.0,0.0,0.0,0.0,0.0,0.0,0.0,0.0,1.7613,1.7613,1.7613,1.7613,1.7232,1.656,1.617,1.5596,1.4848,1.3884,1.3403,1.3403,1.2344,1.1868,1.1868,1.1385,1.0998,1.0511,1.0511,0.9616,0.0,0.0,0.7129,0.5534,0.4528,0.332,0.1913,0.0605,-0.0606,-0.1617,-0.1617,-0.2019,-0.2521,-0.2521,-0.3224,-0.4124,-0.4124,-0.4826,-0.5832,-0.6234,-0.6836,-0.7437,-0.8035,-0.8333,-0.8432,-0.8627,-0.8726,-0.8825,-0.8825,-0.8928,-0.9031,-0.9137,-0.9331,-0.943,-0.9628,-0.9628,-0.9628,-0.9628,-0.9628,-0.9628,-0.9628,-0.9628,-0.9628,-0.9628,-0.9628,-0.9529,-0.943,-0.943,-0.943,-0.943,-0.9327,-0.9229,-0.9031,-0.9031,-0.8928,-0.8627,-0.8627,-0.8531,-0.8233,-0.8233,-0.8137,-0.8038,-0.8038,-0.8038,-0.8038,0.0,-0.8038,-0.8038,-0.8038,-0.8038,-0.8038,-0.8038,-0.8038,-0.7939,-0.7437,-0.6939,-0.6334,0.0,0.0,0.0,0.0,0.0,0.0,0.0,0.0,0.0,0.0,0.0,0.0,0.0,0.0,0.0,0.0,0.0,0.0,0.0,0.0,1.8827,1.8827,1.8827,1.8257,1.7124,1.6929,1.617,1.4937,1.4651,1.4459,1.4459,1.3307,1.2727,1.263,1.1678,1.1194,1.1194,1.1194,1.0207,0.8722,0.8722,0.7329,0.5334,0.0,0.3827,0.2518,0.1109,-0.0303,-0.1617,-0.1617,-0.1617,-0.1617,-0.1617,-0.222,-0.3024,-0.3024,-0.3725,-0.4824,-0.5732,-0.6034,-0.6434,-0.7335,-0.7836,-0.8134,-0.8134,-0.8428,-0.8726,-0.8726,-0.8726,-0.8825,-0.9034,-0.9133,-0.9232,-0.9529,-0.9529,-0.9529,-0.9628,-0.9628,-0.9628,-0.9628,-0.9628,-0.9628,-0.9628,-0.9529,-0.943,-0.9236,-0.9137,-0.9133,-0.9133,-0.8928,-0.8825,-0.8726,-0.8726,-0.8627,-0.8333,-0.8333,-0.8233,-0.8038,-0.8038,-0.8038,-0.8038,-0.8038,-0.8038,-0.8038,0.0,0.0,-0.8038,-0.8038,-0.7939,-0.7739,-0.7739,-0.7736,-0.7434,-0.6534,-0.6134,-0.5832,0.0,0.0,0.0,0.0,0.0,0.0,0.0,0.0,0.0,0.0,2.1741,2.1642,0.0,0.0,0.0,0.0,0.0,0.0,0.0,0.0,0.0,1.8827,1.8827,1.855,1.7893,1.7893,1.7512,1.685,1.5988,1.5514,1.5507,1.359,1.2727,1.263,1.1678,1.1194,1.1194,1.1194,1.0006,0.8124,0.8124,0.6628,0.4234,0.4133,0.3325,0.0,0.0404,-0.0808,-0.1617,-0.1617,-0.1617,-0.1617,-0.1617,-0.1717,-0.1919,-0.1919,-0.2622,-0.3524,-0.3725,-0.4425,-0.5127,-0.5325,-0.6029,-0.6736,-0.6736,-0.7434,-0.8137,-0.8137,-0.8333,-0.8531,-0.8531,-0.873,-0.8928,-0.9232,-0.9232,-0.9331,-0.9529,-0.9628,-0.9628,-0.9628,-0.9628,-0.9628,-0.9628,-0.943,-0.9236,-0.9236,-0.8832,-0.863,-0.8825,-0.8825,-0.8726,-0.8432,-0.8237,-0.8137,-0.8038,-0.8038,-0.8038,-0.8038,-0.8038,-0.8038,-0.8038,-0.8038,-0.8038,-0.8038,-0.8038,0.0,-0.8038,-0.8038,-0.7437,-0.6637,-0.6637,-0.6132,-0.5325,-0.5125,-0.4526,-0.3725,0.0,0.0,0.0,0.0,0.0,0.0,0.0,2.1741,2.1741,2.1741,2.1741,2.1741,2.1741,2.0835,2.0292,0.0,0.0,0.0,0.0,0.0,0.0,1.8827,1.8827,1.8735,1.8458,1.8179,1.7994,1.7707,0.0,1.6278,1.5798,1.4262,1.321,1.263,1.1678,1.1194,1.1194,1.1194,1.0301,0.8814,0.8219,0.6728,0.4734,0.4234,0.3126,0.0,0.0605,-0.0303,-0.101,-0.1415,-0.1617,-0.1617,-0.1617,-0.1617,-0.1617,-0.1617,-0.1918,-0.2521,-0.3022,-0.3624,-0.4124,-0.4624,-0.5227,-0.5729,-0.6234,-0.6836,-0.7338,-0.7839,-0.8237,-0.8432,-0.8432,-0.863,-0.8825,-0.8928,-0.9031,-0.9031,-0.9126,-0.9225,-0.9225,-0.9225,-0.9327,-0.9331,-0.9225,-0.9232,-0.9034,-0.8832,-0.8531,-0.8432,-0.8627,-0.8432,-0.8333,-0.8237,-0.8038,-0.8038,-0.8038,-0.8038,-0.8038,-0.8038,-0.8038,-0.8038,-0.8038,-0.8038,-0.8038,-0.7939,-0.7437,0.0,-0.7138,-0.6531,-0.6029,-0.5529,-0.5529,-0.5227,-0.4724,-0.4124,-0.3624,-0.3123,0.0,0.0,0.0,0.0,0.0,0.0,0.0,2.1741,2.1741,2.1741,2.1642,2.1553,2.1553,2.0826,2.0292,0.0,0.0,0.0,0.0,0.0,0.0,0.0,0.0,0.0,1.8643,0.0,0.0,1.7893,1.752,0.0,0.0,0.0,0.0,0.0,1.1678,1.1194,1.1194,1.11,1.0301,0.0,0.0,0.6628,0.5035,0.0,0.0,0.0,0.0,0.0404,-0.0505,-0.1111,-0.1415,-0.1617,-0.1617,-0.1617,-0.1617,-0.1617,-0.1617,-0.1818,-0.2622,-0.2822,-0.3024,-0.3924,-0.4323,-0.4726,-0.5532,-0.6034,-0.6637,-0.7437,-0.8035,-0.8333,-0.8333,-0.8531,-0.8627,-0.8726,-0.8726,-0.8627,-0.8524,-0.8623,-0.8722,-0.8524,-0.8829,-0.9031,-0.8825,-0.873,-0.863,-0.8432,-0.8333,-0.8333,-0.8333,-0.8137,-0.8038,-0.8038,-0.8038,-0.8038,-0.8038,-0.8038,-0.8038,-0.8038,-0.7739,-0.7637,-0.7637,-0.7434,-0.7335,-0.7235,-0.6434,0.0,0.0,-0.5127,-0.4624,-0.4423,-0.4423,-0.4325,-0.4024,-0.3123,-0.2822,-0.2621,0.0,0.0,0.0,0.0,0.0,0.0,0.0,2.1741,2.1741,2.1741,2.1365,2.1087,2.1087,2.0645,2.0102,0.0,0.0,0.0,0.0,0.0,0.0,0.0,0.0,0.0,0.0,0.0,0.0,1.7326,1.7326,0.0,0.0,0.0,0.0,0.0,0.0,1.1194,1.1194,1.09,0.0,0.0,0.0,0.0,0.0,0.0,0.0,0.0,0.0,0.0908,-0.0404,-0.0505,-0.101,-0.1617,-0.1617,-0.1617,-0.1617,-0.1617,-0.1617,-0.1617,-0.1717,-0.1717,-0.1818,-0.1919,-0.2622,-0.3324,-0.3423,-0.5031,-0.6437,-0.6537,-0.7338,-0.8038,-0.8038,-0.8038,-0.8137,-0.8432,-0.8432,-0.8226,-0.7422,-0.8223,-0.8425,-0.7422,-0.8223,-0.8825,-0.8825,-0.7726,-0.7428,-0.8333,-0.8137,-0.8038,-0.8038,-0.8038,-0.8038,-0.8038,-0.8038,-0.8038,-0.8038,-0.8038,-0.8038,-0.7939,-0.7036,-0.6537,-0.6537,-0.5527,-0.5125,-0.5125,-0.5024,0.0,0.0,-0.4824,-0.4225,-0.3324,-0.3324,-0.2723,-0.1817,-0.1515,-0.1414,-0.1313,0.0,0.0,0.0,0.0,0.0,0.0,2.1741,2.1741,2.1642,2.1365,2.1087,2.0817,2.0184,2.0011,1.9828,1.9637,0.0,0.0,0.0,0.0,0.0,0.0,0.0,0.0,0.0,0.0,1.79,1.7527,1.6756,0.0,0.0,0.0,0.0,0.0,0.0,1.1194,1.1194,1.1096,0.0,0.0,0.0,0.0,0.0,0.0,0.0,0.0,0.0,0.0,0.0202,-0.0202,-0.0909,-0.1617,-0.1617,-0.1617,-0.1617,-0.1617,-0.1617,-0.1617,-0.1617,-0.1617,-0.1617,-0.1617,-0.1919,-0.2422,-0.3024,-0.3827,-0.4628,-0.5329,-0.5729,-0.6229,-0.6936,-0.6531,-0.6528,-0.7935,-0.7637,-0.7335,-0.7633,-0.8031,-0.7932,-0.683,-0.7229,-0.7325,-0.6423,-0.6027,-0.5929,-0.6224,-0.6126,-0.6027,-0.6027,-0.6734,-0.6734,-0.6129,-0.6027,-0.6027,-0.6027,-0.6027,-0.6027,-0.6027,-0.5627,-0.5427,-0.5427,-0.5024,-0.4824,-0.4724,-0.4124,0.0,0.0,-0.3123,-0.2622,-0.222,-0.2018,-0.1716,-0.1314,-0.101,-0.0909,-0.0909,0.0,0.0,0.0,0.0,0.0,2.1741,2.1741,2.1741,2.1553,2.1087,2.0907,2.0456,1.9729,1.9463,1.9371,1.9371,1.9004,0.0,0.0,0.0,0.0,0.0,0.0,0.0,0.0,0.0,1.7707,1.7145,1.6278,1.5127,0.0,0.0,1.2155,1.1194,0.0,0.0,0.0,0.0,0.0,0.0,0.0,0.0,0.0,0.0,0.0,0.0,0.0,0.0,0.0,0.0,0.0,-0.1313,-0.1516,-0.1617,-0.1617,-0.1617,-0.1617,-0.1617,-0.1617,-0.1617,-0.1617,-0.1617,-0.1617,-0.1818,-0.2521,-0.2923,-0.3423,-0.4124,-0.4624,-0.5027,-0.5832,-0.5327,-0.5325,-0.683,-0.6431,-0.6032,-0.6534,-0.6833,-0.6634,-0.5532,-0.5929,-0.5827,-0.4924,-0.4926,-0.4826,-0.4325,-0.4624,-0.4624,-0.4325,-0.5029,-0.5229,-0.4824,-0.4824,-0.4824,-0.4824,-0.4824,-0.4824,-0.4824,-0.4524,-0.4325,-0.4325,-0.4024,-0.3823,-0.3823,0.0,0.0,0.0,-0.1817,-0.1516,-0.1415,-0.1212,-0.1111,-0.101,-0.0808,-0.0707,-0.0707,0.0,0.0,0.0,0.0,0.0,0.0,2.1741,2.1741,2.1553,2.1087,2.0645,2.0102,1.9646,1.9096,1.8827,1.8827,1.8827,0.0,0.0,0.0,0.0,0.0,0.0,0.0,0.0,0.0,1.7052,1.5798,1.5798,1.474,1.2727,1.2732,1.2155,1.1194,0.0,0.0,0.0,0.0,0.0,0.0,0.0,0.0,0.0,0.0,0.0,0.0,0.0,0.0,0.0,0.0,0.0,0.0,0.0,-0.1617,-0.1617,-0.1617,-0.1617,-0.1617,-0.1617,-0.1617,-0.1617,-0.1617,-0.1617,-0.1617,-0.1617,-0.2422,-0.3224,-0.3224,-0.4024,-0.4824,-0.4824,-0.4824,-0.4824,-0.4824,-0.4824,-0.4423,-0.3425,-0.4124,-0.4425,-0.3324,-0.4124,-0.4824,-0.4824,-0.4824,-0.4325,-0.3324,-0.4223,0.0,-0.3224,-0.3224,-0.3725,-0.4724,-0.4824,-0.4824,-0.4824,-0.4824,-0.4824,-0.4824,-0.3723,-0.3224,-0.3224,-0.212,-0.1617,0.0,0.0,0.0,0.0,-0.1314,-0.1212,-0.1212,-0.0909,-0.0808,-0.0808,-0.0505,-0.0404,-0.0404,0.0,0.0,0.0,0.0,0.0,0.0,0.0,2.1741,2.1553,2.1087,2.0555,2.011,1.9646,1.9096,1.8827,1.8827,1.8827,0.0,0.0,0.0,0.0,0.0,0.0,0.0,0.0,0.0,1.7052,1.5798,1.5127,1.4076,1.2635,1.196,1.1482,1.1194,1.1194,1.1194,0.0,0.0,0.0,0.0,0.0,0.0,0.323,0.0,0.0,0.0,0.0,0.0,0.0,0.0,0.0,0.0,0.0,0.0,0.0,-0.1617,-0.1617,-0.1617,-0.1617,-0.1617,-0.1617,-0.1617,-0.1617,-0.1617,-0.1617,-0.1818,-0.212,-0.212,-0.2422,-0.2822,-0.3524,-0.3123,-0.3123,-0.4524,-0.4225,-0.3823,-0.4225,-0.4624,-0.4423,-0.3323,-0.2822,-0.2622,-0.2622,-0.2622,-0.2521,-0.2119,-0.2422,-0.2421,-0.2119,-0.212,-0.222,-0.2622,-0.2622,-0.2622,-0.2622,-0.2622,-0.2622,-0.2622,-0.222,-0.212,-0.212,-0.1717,0.0,0.0,0.0,0.0,0.0,-0.1212,-0.1111,-0.0909,-0.0606,-0.0505,-0.0505,-0.0202,-0.0101,-0.0101,0.0,0.0,0.0,0.0,0.0,0.0,0.0,2.1741,2.1463,2.0826,2.0464,2.0019,1.9371,1.9012,1.8827,1.8827,1.8827,0.0,0.0,0.0,0.0,0.0,0.0,0.0,1.7527,1.7145,1.6379,1.5222,1.4166,1.3113,1.2155,1.1482,1.1194,1.1194,1.1194,1.1194,0.0,0.0,0.0,0.0,0.0,0.0,0.323,0.0,0.0,0.0,0.0,0.0,0.0,0.0,0.0,0.0,0.0,0.0,0.0,0.0,-0.1617,-0.1617,-0.1617,-0.1617,-0.1617,-0.1617,-0.1617,-0.1617,-0.1617,-0.1617,-0.1617,-0.1617,-0.1617,-0.1818,-0.2521,-0.2019,-0.2019,-0.3425,-0.3022,-0.2822,-0.3524,-0.3624,-0.3324,-0.2723,-0.2019,-0.1617,-0.1617,-0.1617,-0.1617,-0.1617,-0.1617,0.0,-0.1617,-0.1617,-0.1617,-0.1617,-0.1617,-0.1617,-0.1617,-0.1617,-0.1617,-0.1617,-0.1617,-0.1617,-0.1617,-0.1617,0.0,0.0,0.0,0.0,0.0,-0.101,-0.0808,-0.0606,-0.0404,-0.0202,-0.0202,-0.0101,0.0,0.0,0.0,0.0,0.0,0.0,0.0,0.0,0.0,2.1642,2.1374,2.0382,2.0292,1.9928,1.892,1.8827,1.8827,1.8827,0.0,0.0,0.0,0.0,0.0,0.0,0.0,0.0,1.7232,1.6278,1.5222,1.4172,1.321,1.2155,1.1194,1.1194,1.1194,1.1194,1.1194,1.1096,0.0,0.0,0.0,0.0,0.0,0.0,0.0,0.0,0.0,0.0,0.0,0.0,0.0,0.0,0.0,0.0,0.0,0.0,0.0,0.0,0.0,0.0,0.0,-0.1617,-0.1617,-0.1617,-0.1617,-0.1617,-0.1617,-0.1617,0.0,-0.1617,-0.1617,-0.1617,-0.1617,-0.1617,-0.1617,-0.1617,-0.1617,-0.1617,-0.1617,-0.1617,-0.1617,-0.1617,-0.1617,-0.1617,-0.1617,-0.1617,-0.1617,-0.1617,-0.1617,0.0,-0.1617,-0.1617,-0.1617,-0.1617,-0.1617,-0.1617,-0.1617,-0.1617,-0.1617,-0.1617,-0.1617,-0.1617,-0.1617,-0.1617,0.0,0.0,0.0,0.0,0.0,-0.0606,-0.0404,-0.0303,-0.0101,0.0,0.0,0.0,0.0,0.0,0.0,0.0,0.0,0.0,0.0,0.0,0.0,0.0,0.0,0.0,2.0011,1.9646,1.9463,1.9012,1.8827,0.0,0.0,0.0,0.0,0.0,0.0,0.0,0.0,0.0,1.6183,1.5893,1.4937,1.3113,1.2823,1.2155,1.1194,1.1194,1.1194,1.1194,1.0998,0.9801,0.0,0.0,0.0,0.0,0.0,0.0,0.0,0.0,0.0,0.0,0.323,0.323,0.0,0.0,0.0,0.0,0.0,0.0,0.0,0.0,-0.1617,-0.1617,-0.1617,0.0,-0.1617,-0.1617,-0.1617,-0.1617,0.0,-0.1617,-0.1617,-0.1617,-0.1617,-0.1617,-0.1617,-0.1617,-0.1617,-0.1617,-0.1617,-0.1617,-0.1617,-0.1617,-0.1617,-0.1617,-0.1617,-0.1617,-0.1617,-0.1617,-0.1617,-0.1617,-0.1617,-0.1617,-0.1617,-0.1617,-0.1617,-0.1617,-0.1617,-0.1617,-0.1617,-0.1617,-0.1617,-0.1617,-0.1617,-0.1617,-0.1617,-0.1617,0.0,0.0,0.0,0.0,-0.0606,-0.0404,-0.0303,-0.0101,0.0,0.0,0.0,0.0,0.0,0.0,0.0,0.0,0.0,0.0,0.0,0.0,0.0,0.0,0.0,0.0,0.0,0.0,0.0,0.0,0.0,0.0,0.0,0.0,0.0,0.0,0.0,0.0,0.0,1.6951,1.5798,1.5317,1.4358,1.2727,1.2247,1.177,1.1194,1.1194,1.1194,1.1194,1.1096,0.9604,0.0,0.0,0.0,0.0,0.3331,0.0,0.0,0.0,0.0,0.0,0.323,0.323,0.0,0.2724,0.2017,0.121,0.0,0.0,0.0,0.0,-0.1617,-0.1617,-0.1617,-0.1617,-0.1617,-0.1617,-0.1617,-0.1617,-0.1617,-0.1617,-0.1617,-0.1617,-0.1617,-0.1617,-0.1617,-0.1313,-0.1212,-0.1516,-0.1313,-0.1212,-0.1516,-0.1617,-0.1617,-0.1617,-0.1617,-0.1617,0.0,-0.1617,-0.1617,-0.1617,0.0,-0.1617,-0.1617,-0.1617,-0.1617,-0.1617,-0.1617,-0.1617,-0.1617,-0.1617,-0.1617,-0.1617,-0.1617,-0.1516,-0.1415,-0.1415,-0.1313,0.0,0.0,0.0,-0.0404,-0.0303,-0.0101,0.0,0.0,0.0,0.0,0.0,0.0,0.0,0.0,0.0,0.0,0.0,0.0,0.0,0.0,0.0,0.0,0.0,0.0,0.0,0.0,0.0,0.0,0.0,0.0,0.0,0.0,0.0,0.0,0.0,1.7239,1.656,1.5602,1.4555,1.3499,1.2441,1.158,1.1194,1.1194,1.1194,1.1198,1.11,1.11,0.9809,0.0,0.0,0.0,0.0,0.3531,0.0,0.0,0.0,0.0,0.0,0.0,0.0,0.0,0.3432,0.2825,0.2017,0.131,0.0,0.0,0.0,0.0,0.0,-0.1212,-0.1212,-0.1313,-0.1516,-0.1617,-0.1617,-0.1617,-0.1617,-0.1617,-0.1617,-0.1617,-0.1516,-0.1415,-0.101,-0.0808,-0.1314,-0.0909,-0.0808,-0.1516,-0.1617,-0.1617,-0.1617,-0.1617,-0.1617,-0.1617,-0.1617,-0.1617,-0.1617,0.0,-0.1617,-0.1617,-0.1617,-0.1617,-0.1617,-0.1617,-0.1617,-0.1617,-0.1617,-0.1617,-0.1617,-0.1516,-0.1415,-0.1212,-0.1111,-0.101,0.0,0.0,0.0,-0.0303,-0.0101,0.0,0.0,0.0,0.0,0.0,0.0,0.0,0.0,0.0,0.0,0.0,0.0,0.0,0.0,0.0,0.0,0.0,0.0,0.0,0.0,0.0,0.0,0.0,0.0,0.0,0.0,0.0,0.0,0.0,1.6177,1.6082,1.5602,1.4555,1.3499,1.2441,1.1385,1.1292,1.1194,1.1194,1.1194,1.1096,1.09,1.09,0.9612,0.763,0.7531,0.0,0.0,0.3932,0.0,0.0,0.0,0.0,0.0,0.0,0.0,0.0,0.4234,0.3726,0.2619,0.2518,0.0,0.0,0.0,0.0,0.0,0.0403,0.0403,0.0101,-0.1212,-0.1617,-0.1617,-0.1617,-0.1617,-0.1617,-0.1617,-0.1617,-0.1415,-0.0707,-0.101,-0.1212,-0.0707,-0.101,-0.1415,-0.1617,-0.1617,-0.1617,-0.1617,-0.1617,-0.1617,-0.1617,-0.1617,-0.1617,-0.1617,0.0,-0.1617,-0.1617,-0.1617,-0.1617,-0.1617,-0.1617,-0.1617,-0.1617,-0.1617,-0.1617,-0.1617,-0.1415,-0.1212,-0.1212,-0.101,-0.0707,0.0,0.0,-0.0303,-0.0101,0.0,0.0,0.0,0.0,0.0,0.0,0.0,0.0,0.0,0.0,0.0,0.0,0.0,0.0,0.0,0.0,0.0,0.0,0.0,0.0,0.0,0.0,0.0,0.0,0.0,0.0,0.0,0.0,0.0,1.6951,1.5893,1.5317,1.4459,1.3499,1.292,1.2252,1.1194,1.1194,1.1194,1.1194,1.1194,1.11,1.0806,1.0998,0.9912,0.8031,0.7829,0.6631,0.0,0.0,0.0,0.0,0.0,0.0,0.0,0.0,0.0,0.0,0.0,0.413,0.3827,0.3321,0.0,0.0,0.0,0.0,0.0,0.0907,0.1007,0.1007,0.0302,-0.0101,-0.0303,-0.0303,-0.0303,-0.0404,-0.0909,-0.0909,-0.0808,-0.0505,-0.0303,0.0,0.0807,0.0202,-0.0303,-0.0303,-0.0303,-0.0303,-0.0303,0.0,-0.0303,-0.0303,-0.0303,-0.0303,0.0,0.0,0.0,-0.0909,-0.1314,-0.1617,-0.1617,-0.1617,-0.1516,-0.1415,-0.1415,-0.1415,-0.1415,-0.1212,-0.101,-0.0808,-0.0606,-0.0404,-0.0202,0.0,-0.0101,0.0,0.0,0.0,0.0,0.0,0.0,0.0,0.0,0.0404,0.0909,0.0,0.0,0.0,0.0,0.0,0.0,0.0,0.0,0.0,0.0,0.0,0.0,0.0,0.0,0.0,0.0,0.0,0.0,0.0,1.7426,1.6756,1.5507,1.4746,1.3788,1.2727,1.2441,1.196,1.1194,1.1194,1.1194,1.1194,1.1194,1.1096,1.09,1.1096,1.0207,0.8432,0.8226,0.7229,0.0,0.0,0.0,0.0,0.0,0.0,0.0,0.0,0.0,0.0,0.0,0.0,0.0,0.0,0.0,0.0,0.2716,0.2314,0.2214,0.1713,0.1913,0.2314,0.2014,0.1611,0.1209,0.1209,0.1209,0.1008,0.0202,0.0101,0.0101,0.0303,0.0806,0.1411,0.1714,0.121,0.0806,0.0806,0.0806,0.0806,0.0806,0.0806,0.0806,0.0806,0.0806,0.0,0.0,0.0,0.0,-0.0101,-0.0707,-0.101,-0.0807,-0.0807,-0.0706,-0.0404,-0.0404,-0.0606,-0.1111,-0.101,-0.0808,-0.0404,-0.0303,-0.0202,0.0,0.0,0.0,0.0,0.0,0.0,0.0,0.0,0.0202,0.0404,0.0404,0.1009,0.2022,0.0,0.0,0.0,0.0,0.0,0.0,0.0,0.0,0.0,0.0,0.0,0.0,0.0,0.0,0.0,0.0,0.0,0.0,0.0,1.7333,1.6466,1.4459,1.4364,1.3788,1.2727,1.177,1.1292,1.1194,1.1194,1.1194,1.1194,1.1194,1.1194,1.1194,1.1194,1.0306,0.8726,0.8726,0.7528,0.5634,0.5536,0.0,0.0,0.0,0.0,0.0,0.0,0.0,0.0,0.0,0.0,0.0,0.0,0.0,0.5334,0.4732,0.4531,0.4431,0.393,0.4131,0.4332,0.333,0.2722,0.2316,0.2316,0.2316,0.2114,0.161,0.1409,0.1711,0.2416,0.2619,0.2317,0.1109,0.0806,0.0806,0.0806,0.0806,0.0806,0.0806,0.0806,0.0806,0.0806,0.0806,0.0,0.0,0.0,0.0,0.0706,0.0706,0.0806,0.1308,0.1409,0.161,0.2114,0.2114,0.1108,-0.0808,-0.0606,-0.0404,-0.0404,-0.0101,0.0,0.0,0.0,0.0,0.0,0.0,0.0,0.0,0.0,0.0606,0.1513,0.1513,0.2116,0.3131,0.0,0.0,0.0,0.0,0.0,0.0,0.0,0.0,0.0,0.0,0.0,0.0,0.0,0.0,0.0,0.0,0.0,0.0,0.0,1.6372,1.5412,1.3403,1.3307,1.2829,1.177,1.1389,1.1194,1.1194,1.1194,1.1194,1.1194,1.1194,1.1194,1.1194,1.1194,1.0306,0.8825,0.8825,0.773,0.6137,0.6137,0.0,0.0,0.0,0.0,0.0,0.0,0.0,0.0,0.0,0.6034,0.6137,0.6137,0.6137,0.6034,0.5436,0.5336,0.5135,0.4634,0.4935,0.5236,0.4834,0.483,0.4628,0.3626,0.3426,0.3324,0.2917,0.2816,0.2917,0.3219,0.3123,0.3025,0.2822,0.252,0.232,0.232,0.232,0.232,0.232,0.232,0.232,0.232,0.0,0.0,0.0,0.0,0.0,0.2015,0.1209,0.1209,0.2114,0.1811,0.1912,0.2618,0.2618,0.2317,0.1713,0.1613,0.1713,0.1814,0.1916,0.2017,0.2017,0.2017,0.2017,0.2017,0.2017,0.2017,0.2017,0.2017,0.2217,0.262,0.262,0.3347,0.4311,0.0,0.0,0.0,0.0,0.0,0.0,0.0,0.0,0.0,0.0,0.0,0.0,0.0,0.0,0.0,0.0,0.0,0.0,1.5893,1.5798,1.4835,1.2823,1.2727,1.2252,1.1194,1.1194,1.1194,1.1194,1.1194,1.1194,1.1194,1.1194,1.1194,1.1194,1.09,1.0109,0.8825,0.8528,0.763,0.6437,0.6437,0.6437,0.0,0.0,0.0,0.0,0.0,0.0,0.0,0.0,0.6137,0.6437,0.6437,0.6437,0.6337,0.5934,0.5837,0.5734,0.5236,0.5436,0.5737,0.5434,0.5734,0.5837,0.4734,0.4634,0.4632,0.4325,0.4225,0.4124,0.3823,0.3728,0.3732,0.3732,0.343,0.323,0.323,0.323,0.323,0.323,0.323,0.323,0.323,0.0,0.0,0.0,0.0,0.0,0.0,0.2517,0.2517,0.3422,0.3017,0.3218,0.3924,0.3924,0.4026,0.4228,0.4026,0.3725,0.3224,0.3224,0.3224,0.3224,0.3224,0.3224,0.3224,0.3224,0.3224,0.3224,0.3224,0.3425,0.3726,0.3726,0.4482,0.5494,0.0,0.0,0.0,0.0,0.0,0.0,0.0,0.0,0.0,0.0,0.0,0.0,0.0,0.0,0.0,0.0,0.0,0.0,1.5798,1.5798,1.4835,1.2829,1.2635,1.2252,1.1194,1.1194,1.1194,1.1194,1.1194,1.1194,1.1194,1.1194,1.1194,1.1194,1.0314,0.9521,0.8726,0.7928,0.7132,0.6437,0.6437,0.6437,0.6437,0.0,0.0,0.0,0.0,0.0,0.0,0.0,0.6437,0.6437,0.6437,0.6437,0.6437,0.6437,0.6437,0.6234,0.5734,0.6037,0.6134,0.5033,0.5236,0.5636,0.5636,0.6037,0.6237,0.5737,0.5636,0.5236,0.4234,0.4433,0.4433,0.3432,0.323,0.323,0.323,0.323,0.323,0.323,0.323,0.323,0.323,0.0,0.0,0.0,0.0,0.0,0.0,0.4834,0.5035,0.5634,0.5636,0.5837,0.6437,0.6437,0.6437,0.6437,0.6437,0.5331,0.3224,0.3224,0.3224,0.3224,0.3224,0.3224,0.3224,0.3224,0.3224,0.3224,0.3224,0.3929,0.4834,0.4836,0.5604,0.6638,0.0,0.0,0.0,0.0,0.0,0.0,0.0,0.0,0.0,0.0,0.0,0.0,0.0,0.0,0.0,0.0,0.0,0.0,1.3392,1.3295,1.2823,1.1673,1.1482,1.1287,1.1194,1.1194,1.1194,1.1194,1.1194,1.1194,1.1194,1.1194,1.0904,1.0314,1.0117,0.9225,0.7928,0.773,0.7132,0.6437,0.6437,0.6437,0.6437,0.0,0.0,0.0,0.0,0.0,0.0,0.0,0.0,0.0,0.6437,0.6437,0.6437,0.6437,0.6437,0.6334,0.6234,0.6237,0.6337,0.6037,0.6034,0.6137,0.6137,0.6034,0.5934,0.6137,0.5837,0.5636,0.5634,0.5236,0.4734,0.4332,0.4033,0.3632,0.323,0.323,0.323,0.323,0.323,0.3331,0.0,0.0,0.0,0.0,0.0,0.0,0.0,0.5035,0.5236,0.6134,0.5837,0.5837,0.6437,0.6437,0.6437,0.6437,0.6437,0.6034,0.5432,0.5432,0.5432,0.5432,0.5432,0.5432,0.5432,0.5432,0.5432,0.5432,0.5432,0.5634,0.5944,0.6025,0.6331,0.6766,0.0,0.0,0.0,0.0,0.0,0.0,0.0,0.0,0.0,0.0,1.5615,1.5324,0.0,0.0,0.0,0.0,0.0,0.0,0.0,1.2145,1.176,1.09,1.0801,1.09,1.1194,1.1194,1.1194,1.1194,1.1194,1.1194,1.1194,1.1194,1.0806,1.0019,0.9624,0.8825,0.7531,0.7232,0.6833,0.6437,0.6437,0.6437,0.6437,0.0,0.0,0.0,0.0,0.0,0.0,0.0,0.0,0.0,0.6437,0.6437,0.6437,0.6437,0.6437,0.6437,0.6437,0.6437,0.6437,0.6437,0.6437,0.6437,0.6437,0.6137,0.6037,0.6337,0.6134,0.5937,0.6034,0.5536,0.5035,0.4834,0.4533,0.4234,0.3831,0.3831,0.3831,0.3831,0.3831,0.3932,0.0,0.0,0.0,0.0,0.0,0.0,0.0,0.5636,0.5734,0.6337,0.6137,0.6037,0.6437,0.6437,0.6437,0.6437,0.6437,0.6437,0.6437,0.6437,0.6437,0.6437,0.6437,0.6437,0.6437,0.6437,0.6437,0.6437,0.6437,0.6437,0.645,0.6575,0.6698,0.682,0.0,0.0,0.0,0.0,0.0,0.0,0.0,0.0,0.0,0.0,1.407,1.3488,0.0,0.0,0.0,0.0,0.0,0.0,0.0,1.1755,1.137,1.0413,1.0708,1.09,1.1194,1.1194,1.1194,1.1194,1.1194,1.1194,1.1194,1.1096,1.0703,0.9821,0.9023,0.8226,0.7431,0.6734,0.6437,0.6437,0.6437,0.6437,0.6437,0.6437,0.0,0.0,0.0,0.0,0.0,0.0,0.0,0.0,0.6437,0.6437,0.6437,0.6437,0.6437,0.6437,0.6437,0.6437,0.6437,0.6437,0.6437,0.6437,0.6437,0.6437,0.6437,0.6437,0.6437,0.6237,0.5737,0.5634,0.5534,0.4935,0.4834,0.4834,0.4834,0.4834,0.4834,0.4834,0.4834,0.4834,0.0,0.0,0.0,0.0,0.0,0.0,0.0,0.6437,0.6437,0.6437,0.6437,0.6437,0.6437,0.6437,0.6437,0.6437,0.6437,0.6437,0.6437,0.6437,0.6437,0.6437,0.6437,0.6437,0.6437,0.6437,0.6437,0.6437,0.6437,0.6442,0.6467,0.6592,0.6714,0.6836,0.0,0.0,0.0,0.0,0.0,0.0,0.0,0.0,0.0,0.0,0.0,0.0,0.0,0.0,0.0,0.0,0.0,0.0,0.0,1.0404,1.0408,1.0413,1.0708,1.0801,1.09,1.1096,1.1194,1.1194,1.1194,1.1194,1.1194,1.0507,0.9817,0.9023,0.8226,0.7431,0.6637,0.6437,0.6437,0.6437,0.6437,0.6437,0.6437,0.6437,0.6437,0.0,0.0,0.0,0.0,0.0,0.0,0.0,0.6437,0.6437,0.6437,0.6437,0.6437,0.6437,0.6437,0.6437,0.6437,0.6437,0.6437,0.6437,0.6437,0.6437,0.6437,0.6437,0.6437,0.6334,0.6237,0.6237,0.6034,0.5534,0.5434,0.5236,0.4834,0.4834,0.4834,0.4834,0.4834,0.0,0.0,0.0,0.0,0.0,0.0,0.0,0.6437,0.6437,0.6437,0.6437,0.6437,0.6437,0.6437,0.6437,0.6437,0.0,0.6437,0.6437,0.6437,0.6437,0.6437,0.6437,0.6437,0.6437,0.6437,0.6437,0.6437,0.6437,0.6437,0.6494,0.6594,0.6717,0.6839,0.6961,0.0,0.0,0.0,0.0,0.0,0.0,0.0,0.0,0.0,0.0,0.0,0.0,0.0,0.0,0.0,0.0,0.0,0.0,0.0,0.0,0.992,1.0216,1.0314,1.0511,1.0801,1.0904,1.1096,1.1194,1.1194,1.1194,1.1194,1.0413,0.962,0.8726,0.7928,0.7132,0.6437,0.6437,0.6437,0.6437,0.6437,0.6437,0.6437,0.6437,0.6437,0.6437,0.6437,0.0,0.0,0.0,0.0,0.0,0.0,0.0,0.6437,0.6437,0.6437,0.6437,0.6437,0.6437,0.6437,0.6437,0.6437,0.6437,0.6437,0.6437,0.6437,0.6437,0.6437,0.6437,0.6437,0.6437,0.6337,0.6037,0.5934,0.5934,0.5636,0.5534,0.5534,0.5534,0.5534,0.0,0.0,0.0,0.0,0.0,0.0,0.6437,0.6437,0.6437,0.6437,0.6437,0.6437,0.6437,0.6437,0.6437,0.6437,0.6437,0.6437,0.6437,0.6437,0.6437,0.6437,0.6437,0.6437,0.6437,0.6437,0.6437,0.6437,0.6437,0.6437,0.651,0.6635,0.6757,0.688,0.7002,0.0,0.0,0.0,0.0,0.0,0.0,0.0,0.0,0.0,0.0,0.0,0.0,0.0,0.0,0.0,0.0,0.0,0.0,0.0,0.0,0.0,0.992,1.0019,1.0314,1.0703,1.0801,1.1002,1.1194,1.1096,1.0998,1.1002,1.0216,0.9324,0.8524,0.773,0.7033,0.6437,0.6437,0.6437,0.6437,0.6437,0.6437,0.6437,0.6437,0.6437,0.6437,0.6437,0.6437,0.6437,0.6437,0.0,0.0,0.0,0.0,0.6437,0.6437,0.6437,0.6437,0.6437,0.6534,0.6634,0.6734,0.6833,0.6833,0.6833,0.6833,0.6833,0.6833,0.6637,0.6437,0.6437,0.6437,0.6437,0.6437,0.6437,0.6437,0.6437,0.6437,0.6437,0.6437,0.6437,0.0,0.0,0.0,0.0,0.0,0.0,0.6437,0.6437,0.6437,0.6437,0.6437,0.6437,0.6437,0.6437,0.6437,0.6437,0.6437,0.6437,0.6437,0.6437,0.6437,0.6437,0.6437,0.6437,0.6437,0.6437,0.6437,0.6437,0.6437,0.6461,0.6543,0.6665,0.6787,0.691,0.7027,0.0,0.0,0.0,0.0,0.0,0.0,0.0,0.0,0.0,0.0,0.9608,0.9312,0.0,0.0,0.0,0.0,0.0,0.0,0.9628,0.0,0.0,0.9628,1.0117,1.0408,1.0413,1.09,1.1194,1.1194,1.0507,1.0117,1.0117,0.9324,0.8524,0.773,0.6933,0.6534,0.6437,0.6437,0.6437,0.6437,0.6437,0.6539,0.6742,0.6537,0.6539,0.6742,0.6437,0.6437,0.6437,0.6437,0.6437,0.0,0.0,0.0,0.6437,0.6437,0.6437,0.6437,0.6437,0.6933,0.763,0.8326,0.8524,0.8524,0.8524,0.8524,0.8524,0.8524,0.7332,0.6437,0.6437,0.6437,0.6437,0.6437,0.6437,0.6437,0.6437,0.6437,0.6437,0.6437,0.6437,0.0,0.0,0.0,0.0,0.0,0.6437,0.6437,0.6437,0.6437,0.6437,0.6437,0.6437,0.6437,0.6437,0.6437,0.6437,0.6437,0.6437,0.6437,0.6437,0.6437,0.6437,0.6437,0.6437,0.6437,0.6437,0.6437,0.6437,0.6448,0.6554,0.6671,0.6793,0.6915,0.7032,0.7135,0.0,0.0,0.0,0.0,0.0,0.0,0.0,0.0,0.0,0.0,0.0,0.8432,0.0,0.0,0.0,0.8928,0.9133,0.9331,0.9628,0.9628,0.9628,0.9628,0.9821,1.0117,1.0413,1.0605,1.0703,1.0511,1.0216,0.9521,0.8627,0.8326,0.7928,0.7531,0.6734,0.6437,0.6437,0.6437,0.6437,0.6437,0.6539,0.6742,0.6845,0.6839,0.6939,0.7039,0.6936,0.6836,0.6836,0.6639,0.6639,0.6639,0.6437,0.0,0.0,0.0,0.6437,0.6534,0.6933,0.763,0.8326,0.8722,0.8825,0.8825,0.8825,0.8825,0.8825,0.8825,0.8226,0.773,0.773,0.773,0.773,0.773,0.773,0.773,0.773,0.773,0.7531,0.7132,0.7033,0.0,0.0,0.0,0.0,0.0,0.6437,0.6437,0.6437,0.6437,0.6437,0.6437,0.6437,0.6437,0.6437,0.6437,0.6437,0.6437,0.6437,0.6437,0.6437,0.6437,0.6437,0.6437,0.6437,0.6437,0.6437,0.6437,0.6437,0.6448,0.657,0.6695,0.6817,0.694,0.7056,0.7154,0.0,0.0,0.0,0.0,0.0,0.0,0.0,0.0,0.0,0.0,0.0,0.0,0.0,0.0,0.0,0.0,0.9031,0.9232,0.9628,0.9628,0.9628,0.9628,0.9628,0.992,1.0413,1.0511,1.0314,1.0019,0.9817,0.9023,0.763,0.7431,0.7332,0.7232,0.6637,0.6437,0.6437,0.6437,0.6437,0.6537,0.7039,0.7338,0.7437,0.7826,0.8024,0.8024,0.773,0.7826,0.7925,0.7138,0.7039,0.7235,0.6736,0.6833,0.0,0.0,0.0,0.7621,0.8414,0.9011,0.9509,0.9612,0.9612,0.9612,0.9418,0.9414,0.9414,0.9414,0.9414,0.9414,0.9414,0.9118,0.8825,0.8825,0.8825,0.8825,0.8825,0.8825,0.8524,0.773,0.763,0.0,0.0,0.0,0.0,0.0,0.6437,0.6437,0.6437,0.6437,0.6437,0.6437,0.6437,0.6437,0.6437,0.6437,0.6437,0.6437,0.6437,0.6437,0.6437,0.6634,0.6734,0.6734,0.6537,0.6437,0.6437,0.6437,0.6437,0.645,0.6605,0.6722,0.682,0.6972,0.7081,0.7154,0.0,0.0,0.0,0.0,0.0,0.0,0.0,0.0,0.0,0.0,0.0,0.0,0.7939,0.8038,0.8233,0.8726,0.8825,0.9027,0.9529,0.9628,0.9628,0.9628,0.9821,0.0,1.0413,1.0609,1.0511,1.0019,0.9225,0.8425,0.763,0.6833,0.6437,0.6437,0.6437,0.6437,0.6437,0.6437,0.6539,0.6842,0.7922,0.8616,0.9114,0.9985,1.0378,1.0485,0.9201,0.9391,0.9878,0.7826,0.7826,0.8513,0.7531,0.7826,0.8707,0.0,0.0,0.0,1.1165,1.1463,1.1565,1.178,1.178,1.1683,1.1194,1.1096,1.1096,1.1096,1.1096,1.1096,1.1096,0.9813,0.8825,0.8825,0.8825,0.8825,0.8825,0.8825,0.8524,0.773,0.763,0.0,0.0,0.0,0.0,0.0,0.6437,0.6437,0.6437,0.6437,0.6437,0.6437,0.6437,0.6437,0.6437,0.6437,0.6437,0.6437,0.6437,0.6437,0.6437,0.7232,0.7531,0.7531,0.6734,0.6437,0.6437,0.6437,0.6437,0.6461,0.67,0.6796,0.6831,0.7059,0.7149,0.7154,0.0,0.0,0.0,0.0,0.0,0.0,0.0,0.0,0.0,0.0,0.0,0.0,0.0,0.7338,0.7235,0.7733,0.7425,0.7322,0.7521,0.8223,0.8524,0.8524,0.9521,1.0117,1.0413,1.0207,0.9809,0.9225,0.8425,0.763,0.6833,0.6537,0.6437,0.6437,0.6437,0.6437,0.6437,0.6437,0.6539,0.6942,0.812,0.8909,0.9312,1.048,1.0974,1.0974,1.048,1.0186,0.9698,0.8817,0.8718,0.8913,0.8414,0.9,0.978,0.978,1.0471,1.1263,1.156,1.196,1.2365,1.2467,1.2273,1.198,1.178,1.1487,1.1194,1.1194,1.1194,1.1194,1.1194,1.0703,1.0306,1.0306,1.0306,1.0306,1.0306,1.0306,1.001,0.9221,0.9122,0.0,0.0,0.0,0.0,0.0,0.0,0.7928,0.7928,0.7928,0.7928,0.7928,0.7928,0.7928,0.7928,0.7928,0.7928,0.7928,0.7928,0.7928,0.7928,0.8226,0.8326,0.8326,0.8028,0.7928,0.7928,0.7928,0.7982,0.8187,0.829,0.8431,0.8541,0.8194,0.8371,0.8809,0.0,0.0,0.0,0.0,0.0,0.0,0.0,0.0,0.0,0.6032,0.0,0.0,0.0,0.0,0.6032,0.6631,0.6526,0.6423,0.6423,0.7024,0.7422,0.7422,0.8524,0.9225,0.9418,0.9316,0.892,0.8425,0.7829,0.7232,0.6437,0.6437,0.6437,0.6437,0.6437,0.6437,0.6437,0.6537,0.6639,0.7039,0.881,0.96,0.9998,1.1658,1.2242,1.2145,1.1853,1.1463,1.1072,1.0194,0.0,1.0288,0.9792,1.0373,1.1249,1.1638,1.2134,1.2538,1.2538,1.2937,1.3244,1.3055,1.2759,1.2467,1.2273,1.198,1.1688,1.1487,1.1487,1.1389,1.1194,1.1194,1.1194,1.1194,1.1194,1.1194,1.1194,1.1194,1.09,1.0117,1.0019,0.0,0.0,0.0,0.0,0.0,0.0,0.0,0.8825,0.8825,0.8825,0.8825,0.8825,0.8825,0.8825,0.8825,0.8825,0.8825,0.8825,0.8825,0.8825,0.9122,0.9221,0.9221,0.9517,0.932,0.8825,0.8825,0.8918,0.9078,0.9246,0.9414,0.9585,0.9088,0.9251,0.9688,0.0,0.0,0.0,0.0,0.0,0.0,0.0,0.0,0.3425,0.3924,0.0,0.0,0.0,0.0,0.0,0.5425,0.6022,0.6323,0.6323,0.6323,0.6323,0.6423,0.693,0.7335,0.763,0.8131,0.8131,0.763,0.7531,0.7132,0.6437,0.6437,0.6437,0.6437,0.6437,0.6437,0.6437,0.6642,0.6942,0.7434,0.9797,1.0974,1.1463,1.3511,1.4298,1.4196,1.3119,1.3414,0.0,1.195,0.0,0.0,1.156,1.195,1.2926,1.4004,1.4298,1.4298,0.0,0.0,0.0,1.363,1.3539,1.3346,1.2958,1.2764,1.2667,1.2175,1.1975,1.1878,1.1292,1.1292,1.1292,1.1292,1.1194,1.1194,1.1194,1.1194,1.09,1.0117,1.0019,0.0,0.0,0.0,0.0,0.0,0.8825,0.8825,0.8825,0.8825,0.8825,0.8825,0.8825,0.8825,0.8825,0.8825,0.8825,0.8825,0.8825,0.8825,0.8924,0.9719,1.0019,1.0117,1.09,1.0306,0.8924,0.892,0.9018,0.9184,0.935,0.9523,0.97,0.9851,0.9908,0.9908,0.0,0.0,0.0,0.0,0.0,0.3123,0.3224,0.3325,0.3627,0.0,0.0,0.0,0.4724,0.4429,0.3929,0.3324,0.3728,0.4131,0.4131,0.4832,0.5432,0.5832,0.6933,0.7733,0.8131,0.7932,0.773,0.763,0.7033,0.6634,0.6437,0.6437,0.6437,0.6437,0.6437,0.6539,0.6742,0.6742,0.6942,0.7434,0.9797,1.0974,1.1463,1.3511,1.4298,1.4298,1.3998,1.3516,1.3022,0.0,1.2436,1.2829,1.3318,1.3613,1.3908,1.4196,1.4298,1.4298,1.4298,0.0,0.0,0.0,0.0,0.0,1.3346,1.3055,1.2764,1.257,1.257,1.2565,1.237,1.237,1.237,1.237,1.1683,1.1194,1.1194,1.1194,1.1096,1.0904,1.09,0.0,0.0,0.0,0.0,0.0,1.0502,1.0502,1.0502,1.0502,1.0502,1.0502,1.0502,1.0502,1.0502,1.0502,1.0502,1.0502,1.0502,1.0502,1.0502,1.0801,1.09,1.09,1.1096,1.1194,1.1091,1.0699,1.0702,1.1111,1.1061,1.1292,1.1598,1.0996,1.145,1.2214,0.0,0.0,0.0,0.0,0.0,0.1713,0.1814,0.2017,0.2218,0.0,0.0,0.0,0.3423,0.3327,0.2927,0.2422,0.2826,0.313,0.323,0.3833,0.4234,0.4634,0.5734,0.6531,0.6933,0.7033,0.7132,0.7132,0.6634,0.6437,0.6437,0.6437,0.6437,0.6437,0.6437,0.6539,0.6845,0.6942,0.7141,0.7537,0.9998,1.1072,1.1463,1.3511,1.4298,1.4298,0.0,0.0,1.3414,1.3414,1.3414,0.0,0.0,1.4298,1.4298,1.4298,1.4298,1.4298,1.4298,1.4298,1.4298,1.4298,0.0,0.0,1.3823,1.363,1.334,1.3152,1.3055,1.3055,1.2861,1.2764,1.2764,1.2764,1.2273,1.178,1.159,1.1292,1.1194,1.1194,1.1194,0.0,0.0,1.1194,1.1194,1.1194,1.1194,1.1194,1.1194,1.1194,1.1194,1.1194,1.1194,1.1194,1.1194,1.1194,1.1194,1.1194,1.1194,1.1292,1.1492,1.1492,1.1688,1.1878,1.1878,1.2078,1.2273,1.198,1.2139,1.2535,1.2535,1.2805,1.3088,1.254,1.2975,1.3635,0.0,0.0,-0.1414,-0.0909,-0.0707,-0.0404,-0.0101,0.0,0.0202,0.0,0.0808,0.1111,0.1516,0.1718,0.202,0.2321,0.2522,0.2826,0.313,0.323,0.323,0.3331,0.4332,0.4834,0.4935,0.5934,0.6437,0.6437,0.6437,0.6437,0.6437,0.6437,0.6437,0.6437,0.6437,0.6639,0.6942,0.7141,0.7441,0.8041,1.0293,1.1268,1.156,1.3516,1.4298,1.4298,1.4298,1.4298,1.4298,1.4298,1.4298,0.0,0.0,0.0,0.0,1.4298,1.4298,1.4298,1.4298,1.4298,1.4298,1.4298,1.4298,0.0,1.4298,1.4298,1.4202,1.3732,1.3636,1.3443,1.305,1.2953,1.2953,1.2953,1.2958,1.2662,1.2175,1.1683,1.1394,1.1394,1.1394,0.0,1.1394,1.1394,1.1394,1.1394,1.1292,1.1292,1.1194,1.1194,1.1194,1.1194,1.1194,1.1194,1.1194,1.1296,1.1292,1.1292,1.1389,1.1585,1.2078,1.2078,1.237,1.2764,1.2764,1.2861,1.2861,1.2889,1.316,1.3453,1.3453,1.375,1.4169,1.4169,1.4277,1.4277,0.0,-0.3621,-0.3119,-0.111,-0.1311,-0.131,-0.0202,0.0202,0.0404,0.0808,0.1212,0.1516,0.1617,0.111,0.121,0.232,0.1815,0.2017,0.313,0.323,0.3632,0.4433,0.4734,0.5236,0.6034,0.6334,0.6437,0.6437,0.6437,0.6437,0.6437,0.6437,0.6539,0.6742,0.6742,0.6945,0.7447,0.7547,0.8134,0.9312,1.0681,1.1658,1.2533,1.3806,1.4298,1.4298,1.4298,1.4298,1.4298,1.4298,1.4298,1.4298,0.0,0.0,0.0,1.4298,0.0,1.4298,1.4298,1.4298,1.4298,0.0,0.0,0.0,1.4298,1.4298,1.4298,1.4202,1.4106,1.4106,1.401,1.401,1.401,1.401,1.363,1.3152,1.2662,1.2565,1.2467,1.2467,1.2467,0.0,1.2467,1.2467,1.2467,1.2467,1.2078,1.1688,1.1194,1.1194,1.1194,1.1194,1.1194,1.1194,1.1194,1.1585,1.1883,1.1883,1.2273,1.2565,1.2662,1.2662,1.2662,1.2764,1.2764,1.3055,1.3363,1.356,1.3618,1.3475,1.3475,1.376,1.4169,1.4169,1.4493,1.4821,-0.4423,-0.4221,-0.3822,-0.262,-0.2518,-0.2416,-0.1714,-0.1513,-0.121,-0.0806,-0.0303,0.0,0.0,-0.0403,-0.0202,0.0907,0.1008,0.1412,0.2522,0.2927,0.3531,0.4332,0.4634,0.5135,0.5934,0.6237,0.6437,0.6437,0.6437,0.6437,0.6437,0.6437,0.6833,0.7531,0.7039,0.7441,0.8333,0.7842,0.8726,1.0489,1.0974,1.1755,1.2829,1.3902,1.4298,1.4298,1.4298,1.4298,1.4298,1.4298,1.4298,0.0,1.4298,1.4298,1.4298,0.0,1.4298,1.4298,0.0,0.0,0.0,1.4298,0.0,0.0,0.0,1.4298,1.4388,1.4771,1.4867,1.4962,1.5343,1.5439,1.5439,1.5439,1.4867,1.4388,1.41,1.3335,1.2764,1.2764,1.2764,0.0,1.2764,1.2764,1.2667,1.2467,1.2175,1.1785,1.1194,1.1194,1.1292,1.1585,1.1585,1.1688,1.198,1.2273,1.237,1.237,1.2662,1.2958,1.3152,1.3152,1.3346,1.3528,1.3528,1.3721,1.3943,1.4201,1.4265,1.4304,1.443,1.4704,1.503,1.503,1.5244,1.5464,-0.5325,-0.4926,-0.4526,-0.4124,-0.3725,-0.3525,-0.3224,-0.3123,-0.292,-0.2417,-0.1713,-0.121,-0.121,-0.131,-0.0907,0.0101,0.0605,0.121,0.2118,0.2927,0.3632,0.4133,0.4533,0.5135,0.5734,0.6137,0.6437,0.6437,0.6437,0.6437,0.6437,0.6437,0.703,0.812,0.7431,0.7832,0.892,0.8233,0.9217,1.117,1.117,1.195,1.3119,1.4004,1.4298,1.4298,1.4298,1.4298,1.4298,1.4298,1.4298,1.4298,1.4298,1.4298,0.0,0.0,0.0,0.0,0.0,0.0,0.0,0.0,0.0,1.458,0.0,0.0,0.0,1.5534,1.5629,1.5818,1.6487,1.6588,1.6588,1.6588,0.0,0.0,0.0,1.4388,0.0,1.3147,1.305,0.0,1.305,1.305,1.2856,1.237,1.2273,1.2073,1.159,1.1487,1.1683,1.2175,1.2175,1.237,1.2764,1.2861,1.2958,1.2958,1.305,1.3244,1.363,1.363,1.3919,1.4298,1.4298,1.4298,1.4322,1.4654,1.4914,1.5137,1.5396,1.5656,1.5891,1.5891,1.5891,1.5891,-0.6728,-0.6936,-0.6537,-0.4325,-0.4528,-0.4528,-0.3425,-0.3021,-0.2619,-0.2117,-0.0706,0.0202,0.0202,-0.0202,0.0302,0.2219,0.141,0.141,0.2927,0.3632,0.4133,0.4734,0.4734,0.5236,0.6334,0.6337,0.6437,0.6437,0.6437,0.6437,0.6437,0.6437,0.6736,0.7335,0.8219,0.8421,0.8237,0.9019,1.0096,1.117,1.117,1.2344,0.0,1.4292,1.4298,1.4298,1.4298,1.4298,1.4298,0.0,1.4298,1.4298,0.0,1.4298,1.4298,1.4298,0.0,0.0,0.0,0.0,0.0,0.0,1.5248,0.0,0.0,0.0,1.6393,1.6487,0.0,1.6487,1.6588,0.0,0.0,0.0,0.0,0.0,1.6487,1.6298,1.5629,1.4298,1.4106,0.0,0.0,1.4106,1.3919,1.3346,1.3346,1.3147,1.2662,1.2667,1.2667,1.2662,1.2662,1.2764,1.2764,1.3249,1.3443,1.3443,1.3913,1.4202,1.4202,1.4202,1.4202,1.4298,1.4298,1.4298,1.4334,1.4853,1.5083,1.5137,1.5396,1.5656,1.5891,1.5891,1.5891,1.5891,-0.7338,-0.7341,-0.7039,-0.5834,-0.5734,-0.5632,-0.4933,-0.4431,-0.413,-0.393,-0.3122,-0.2616,-0.2616,-0.2518,-0.1813,-0.0101,0.0503,0.1107,0.0,0.2722,0.3525,0.4124,0.4126,0.4828,0.6337,0.6437,0.6437,0.6437,0.6437,0.6437,0.6437,0.6437,0.703,0.812,0.8609,0.9205,0.9899,1.0293,1.117,1.2047,1.2047,1.2926,0.0,1.4298,1.4298,1.4298,1.4298,1.4298,1.4298,0.0,1.4298,0.0,0.0,0.0,0.0,1.4771,0.0,0.0,0.0,0.0,0.0,0.0,0.0,0.0,1.6581,0.0,1.6676,0.0,0.0,0.0,0.0,0.0,0.0,0.0,1.7512,0.0,0.0,0.0,1.6393,0.0,0.0,0.0,0.0,0.0,0.0,0.0,1.3913,1.3811,1.2861,1.2764,1.2958,1.3152,1.3249,1.3346,1.3624,1.3913,1.3919,1.401,1.4202,1.4298,1.4298,1.4298,1.4298,1.4298,1.4298,1.4298,1.434,1.4883,1.5107,1.5149,1.5565,1.5795,1.5891,1.5891,1.5891,1.5891,-0.7444,-0.7241,-0.7039,-0.6842,-0.6539,-0.6237,-0.5939,-0.5541,-0.514,-0.514,-0.4634,-0.423,-0.4028,-0.3324,-0.2316,-0.0805,0.0704,0.171,0.0,0.0,0.3723,0.4123,0.4123,0.0,0.6337,0.6437,0.6437,0.6437,0.6437,0.6437,0.6437,0.6437,0.7129,0.8414,0.8711,0.9596,1.0779,1.1072,1.1755,1.2727,1.2727,1.3318,1.4298,1.4298,1.4298,1.4298,1.4298,1.4298,1.4298,1.4298,1.4298,0.0,1.5146,0.0,0.0,0.0,0.0,0.0,1.4962,0.0,0.0,0.0,0.0,0.0,0.0,0.0,0.0,0.0,0.0,0.0,0.0,0.0,1.8827,1.8827,0.0,1.7971,0.0,1.7512,0.0,0.0,0.0,0.0,0.0,0.0,0.0,0.0,0.0,1.4382,1.3244,1.3244,1.334,1.3727,1.3732,1.3919,1.4298,1.4298,1.4298,1.4298,1.4298,1.4298,1.4298,1.4298,1.4298,1.4298,1.4298,1.4298,1.434,1.4883,1.5107,1.5161,1.5686,1.5891,1.5891,1.5891,1.5891,1.5891,-0.6945,-0.6845,-0.6845,-0.6845,-0.6539,-0.6237,-0.5737,-0.5338,-0.514,-0.4834,-0.3626,-0.2618,-0.2114,-0.0907,0.0604,0.2517,0.0,0.3822,0.4634,0.0,0.5536,0.0,0.0,0.5834,0.6437,0.6437,0.6437,0.6437,0.6437,0.6437,0.6437,0.6642,0.6942,0.7338,0.8623,0.9312,0.9706,1.0779,1.1755,1.2727,1.2727,1.3318,1.4298,0.0,1.4298,1.4298,1.4298,0.0,0.0,1.4298,1.4298,0.0,0.0,0.0,0.0,0.0,0.0,0.0,0.0,0.0,0.0,1.7412,0.0,0.0,0.0,0.0,1.8735,0.0,0.0,0.0,0.0,1.8827,1.8827,1.8827,1.8735,0.0,0.0,0.0,0.0,0.0,0.0,0.0,0.0,0.0,0.0,0.0,0.0,0.0,1.4298,1.4298,1.4298,1.4298,1.4298,1.4298,1.4298,1.4298,1.4298,1.4298,1.4298,1.4298,1.4298,1.4298,1.4298,1.4298,1.4298,1.4298,1.434,1.4883,1.5107,1.5161,1.5686,1.5891,1.5891,1.5891,1.5891,1.5891,-0.9015,-0.8223,-0.7332,-0.6639,-0.6437,-0.6234,-0.5636,-0.5236,-0.4634,-0.3624,-0.3122,0.0,0.0,-0.0201,0.1006,0.0,0.0,0.4126,0.4024,0.4528,0.0,0.0,0.0,0.5331,0.6337,0.6437,0.6437,0.6437,0.6437,0.6437,0.6437,0.6642,0.6942,0.7238,0.8623,0.9702,1.0685,1.1755,1.2829,1.3806,0.0,1.4004,1.4298,0.0,0.0,1.4298,1.4298,1.4298,0.0,1.4298,1.458,1.5153,1.5913,1.6204,1.6386,1.7131,1.6951,0.0,0.0,0.0,1.7878,1.8064,0.0,0.0,0.0,0.0,0.0,0.0,0.0,0.0,0.0,1.8827,1.8827,1.8827,1.8827,1.8827,0.0,0.0,0.0,0.0,0.0,0.0,0.0,0.0,0.0,0.0,1.5432,0.0,0.0,1.4298,1.4298,1.4298,1.4298,1.4298,1.4298,1.4298,1.4298,1.4298,1.4298,1.4298,1.4298,1.4298,1.4298,1.4298,1.4298,1.4401,1.4606,1.4962,1.5209,1.5403,1.5753,1.5891,1.5891,1.5891,1.5891,1.5891,-0.9899,-0.9209,-0.8219,-0.7129,-0.6534,-0.6037,-0.5634,-0.4732,-0.3827,0.0,-0.2415,0.0,-0.0604,0.0,0.1609,0.0,0.3924,0.4728,0.4624,0.4929,0.0,0.5131,0.5131,0.5729,0.0,0.6634,0.6634,0.7129,0.6634,0.6437,0.6539,0.6842,0.7338,0.7928,0.8528,0.9899,1.1755,1.2047,1.3022,1.4298,0.0,1.4298,0.0,0.0,1.4298,1.4298,0.0,1.4298,1.4298,1.4394,1.4962,1.5805,1.6662,1.7232,1.7692,1.8434,1.8156,1.7785,1.8234,1.8611,0.0,1.8988,1.9455,0.0,1.9188,0.0,0.0,0.0,0.0,0.0,0.0,0.0,1.9096,1.9096,1.892,1.8827,0.0,1.8827,0.0,0.0,0.0,1.7978,0.0,0.0,0.0,1.5527,1.5629,1.5343,0.0,0.0,1.4298,1.4298,1.4298,1.4298,1.4298,1.4298,1.4298,1.4298,1.4298,1.4298,1.4298,1.4298,1.4298,1.4298,1.4298,1.4455,1.4739,1.4998,1.5264,1.5523,1.5789,1.5891,1.5891,1.5891,1.5891,1.5891,-0.9805,-0.9706,-0.9308,-0.8219,-0.6731,0.0,0.0,0.0,-0.282,0.0,-0.161,-0.0503,0.0101,0.1309,0.2515,0.3521,0.4828,0.5837,0.6337,0.6437,0.0,0.0,0.6437,0.703,0.8414,0.7129,0.703,0.8414,0.703,0.6539,0.6845,0.7039,0.7932,0.9118,0.8333,0.9702,1.263,1.1658,1.2441,1.4298,1.4298,1.4298,1.4298,1.4298,1.4298,1.4298,1.4298,1.4298,1.4394,1.4682,1.5425,1.6445,1.749,1.8419,1.943,2.0102,2.0011,1.9737,2.0201,2.0011,1.9737,2.0201,0.0,0.0,0.0,0.0,1.9646,0.0,0.0,0.0,0.0,0.0,0.0,1.9637,1.9188,1.8827,1.8827,1.8827,1.8827,0.0,0.0,1.845,1.7785,1.8357,1.7792,1.5622,1.6109,1.5913,0.0,0.0,1.4394,1.4394,1.4298,1.4298,1.4298,1.4298,1.4298,1.4298,1.4298,1.4298,1.4298,1.4298,1.4298,1.4298,1.431,1.4479,1.4757,1.5022,1.5282,1.5547,1.5795,1.5891,1.5891,1.5891,1.5891,1.5891,-1.197,-1.1375,-1.019,0.0,-0.7226,-0.6429,0.0,0.0,0.0,0.0,-0.0705,0.0504,0.2219,0.3426,0.4228,0.4429,0.5534,0.0,0.0,0.0,0.0,0.6437,0.6437,0.703,0.8414,0.7129,0.703,0.8414,0.7235,0.6742,0.6845,0.7244,0.8134,0.9118,0.8333,0.9702,1.263,1.1658,1.2441,1.4298,1.4298,1.4298,0.0,0.0,1.4394,1.4592,1.4394,1.4394,1.4682,1.5514,1.6452,1.749,1.8511,1.9347,2.0011,2.0201,2.0201,2.0192,2.0727,2.0464,2.0192,2.0736,2.0555,2.0292,0.0,0.0,0.0,0.0,0.0,0.0,0.0,0.0,0.0,1.9637,1.9188,1.8827,1.8827,0.0,0.0,1.8827,0.0,0.0,1.845,1.7707,1.6958,1.6298,1.5913,1.5534,0.0,0.0,0.0,1.5153,1.4586,1.4298,1.4298,1.4298,1.4298,1.4298,1.4298,1.4298,1.4298,1.4298,1.4298,1.431,1.4521,1.4763,1.5028,1.5288,1.5553,1.5795,1.5861,1.5891,1.5891,1.5891,1.5891,1.5891,-1.216,-1.1175,-0.9694,-0.7723,0.0,0.0,-0.5037,-0.383,0.0,-0.1208,0.0101,0.0,0.2522,0.393,0.4834,0.4834,0.5737,0.0,0.6437,0.0,0.0,0.6437,0.6437,0.7325,0.9197,0.7915,0.0,0.9497,0.8219,0.7534,0.7144,0.7939,0.8924,0.9998,0.9118,1.0485,1.3318,1.2829,1.3221,1.4298,1.4298,1.4394,0.0,1.4496,1.4688,1.4885,1.4688,1.4968,1.5615,1.6264,1.7483,1.8788,1.943,2.0266,2.0925,2.0925,2.0744,2.0736,2.1186,2.1006,2.0736,2.1186,2.1096,2.0835,2.0645,2.0645,2.0645,0.0,0.0,0.0,0.0,0.0,0.0,1.9279,1.9012,1.8827,0.0,0.0,0.0,0.0,1.8812,0.0,0.0,1.7426,1.6588,1.6588,1.6204,1.5913,0.0,0.0,0.0,1.5913,1.5534,1.5153,1.4771,1.4771,1.458,1.4298,1.4298,1.4298,1.4298,1.4298,1.4298,1.431,1.4594,1.4865,1.5125,1.539,1.565,1.5891,1.5891,1.5891,1.5891,1.5891,1.5891,1.5891,-1.0877,-0.9985,-0.8704,0.0,0.0,0.0,0.0,-0.282,0.0,-0.1109,0.0,0.2017,0.2118,0.3728,0.4834,0.4834,0.0,0.6437,0.6437,0.6437,0.6437,0.6437,0.6437,0.772,1.0369,0.9099,0.9201,0.0,0.0,0.8421,0.7646,0.8726,0.9899,1.117,1.0194,1.1365,1.41,1.4196,1.4298,1.4298,1.4298,1.449,1.4688,1.479,1.4885,1.5172,1.5172,1.5724,1.6633,1.6922,1.8411,1.9977,2.0348,2.1087,2.1741,2.1741,2.1365,2.1177,2.1553,2.1365,2.1177,2.1642,2.1741,2.1553,2.1177,2.1087,2.1087,2.1087,2.1087,2.1186,0.0,0.0,0.0,1.9196,0.0,0.0,0.0,0.0,0.0,0.0,0.0,0.0,0.0,0.0,1.6958,1.6864,1.6857,0.0,0.0,0.0,0.0,1.677,1.6676,0.0,1.5534,0.0,1.5248,1.4586,1.4586,1.4586,1.4586,1.4586,1.4604,1.4647,1.4937,1.5214,1.5478,1.5749,1.5996,1.6205,1.6205,1.6205,1.6099,1.6099,1.5998,1.5998,-0.9399,-0.9,-0.8411,0.0,0.0,-0.4409,-0.2716,-0.1813,-0.1109,-0.0302,0.1109,0.2219,0.2927,0.4031,0.4834,0.4834,0.5737,0.0,0.0,0.0,0.0,0.6437,0.6639,0.7922,1.0369,0.9292,0.9399,0.0,0.0,0.8627,0.7646,0.892,1.0096,1.117,1.0974,1.1658,1.3022,1.3902,0.0,1.4298,1.4496,1.4688,1.4688,1.4987,1.5172,1.5452,1.5452,1.6001,1.6929,1.7848,1.9047,2.0348,2.1186,2.1553,2.1741,2.1741,2.1642,2.1642,2.1651,2.1642,2.1642,2.1651,2.1741,2.1651,2.1642,2.1553,2.1553,2.1553,2.1553,2.1642,2.1651,0.0,0.0,0.0,0.0,0.0,0.0,0.0,0.0,0.0,0.0,1.9538,0.0,0.0,0.0,1.8149,1.8519,0.0,0.0,0.0,0.0,0.0,1.6958,0.0,0.0,0.0,1.6298,1.6204,1.6204,1.6204,1.6204,1.6204,1.6327,1.667,1.6888,1.7189,1.7476,1.7791,1.7955,1.8003,1.8003,1.7575,1.6935,1.6935,1.663,1.6217,-0.7422,-0.6825,-0.6224,0.0,0.0,0.0,0.0,-0.0201,0.0,0.0403,0.131,0.2118,0.2522,0.393,0.4834,0.4834,0.5737,0.6437,0.6437,0.6437,0.6437,0.6437,0.7232,0.8513,1.0369,1.0569,1.0769,1.0974,0.0,0.0,0.8627,1.0386,1.1463,1.195,1.2538,1.2732,1.2829,0.0,0.0,1.4496,1.479,1.4981,1.5166,1.5261,1.5452,1.5642,1.5642,1.6662,1.7956,1.8411,1.9704,2.1087,2.1553,2.1741,2.1741,2.1741,2.1741,2.1741,2.1741,2.1741,2.1741,2.1741,2.1741,2.1741,2.1741,2.1741,2.1741,2.1741,2.1741,2.1642,2.1365,2.1177,0.0,0.0,0.0,0.0,0.0,0.0,2.0555,0.0,0.0,0.0,0.0,0.0,0.0,0.0,0.0,0.0,0.0,0.0,0.0,0.0,0.0,0.0,0.0,0.0,0.0,1.6588,1.685,1.6857,1.6588,1.6742,1.6978,1.714,1.7519,1.7806,1.8062,1.8587,1.9027,1.9228,1.9228,1.8603,1.7871,1.7871,1.7252,1.6424,-0.5231,-0.4533,0.0,0.0,-0.1611,0.0,0.0202,0.1512,0.2117,0.121,0.1714,0.232,0.2421,0.3828,0.4834,0.4935,0.5837,0.6437,0.6437,0.6437,0.6437,0.6437,0.7723,0.9099,1.0471,1.1745,1.2145,0.0,0.0,0.0,0.0,1.1848,1.2829,0.0,0.0,0.0,0.0,0.0,1.4688,1.479,1.5077,1.5261,1.554,1.554,1.5825,1.6109,1.6109,1.7404,1.9155,1.9155,2.0266,2.1741,2.1741,2.1741,2.1741,2.1741,2.1741,2.1741,2.1741,2.1741,2.1741,2.1741,2.1741,2.1741,2.1741,2.1741,2.1741,2.1741,2.1741,2.1553,2.1186,2.1177,0.0,0.0,0.0,0.0,0.0,0.0,0.0,0.0,0.0,0.0,2.0654,0.0,0.0,0.0,0.0,0.0,0.0,0.0,0.0,0.0,0.0,1.8819,1.8241,0.0,1.8249,0.0,1.7584,1.7535,1.7167,1.7588,1.786,1.8013,1.8618,1.8883,1.8964,1.9633,2.0151,2.0546,2.0546,1.9937,1.9005,1.9005,1.8387,1.7457,0.0,0.0,0.0,0.0,0.0,0.0,0.1109,0.2621,0.3327,0.2017,0.2623,0.3229,0.3731,0.4433,0.5035,0.5434,0.6034,0.6437,0.6437,0.6437,0.6539,0.6742,0.8021,0.9399,1.0681,1.2047,1.263,0.0,0.0,1.2145,0.0,0.0,0.0,0.0,0.0,0.0,0.0,1.4688,1.4885,1.5083,1.5356,1.5445,1.554,1.573,1.6393,1.7145,1.7145,1.8427,2.0158,2.0158,2.0808,2.1741,2.1741,2.1741,2.1741,2.1741,2.1741,2.1741,2.1741,2.1741,2.1741,2.1741,2.1741,2.1741,2.1741,2.1741,2.1741,2.1741,2.1741,2.1651,2.1642,2.1642,2.1642,0.0,0.0,0.0,0.0,0.0,2.1642,2.1553,0.0,0.0,0.0,2.1651,0.0,0.0,2.0808,0.0,0.0,0.0,0.0,2.0201,0.0,2.011,2.0102,2.0102,0.0,1.9363,1.9363,1.9265,1.913,1.9628,2.0262,2.0876,2.1427,2.1844,2.2064,2.2207,2.2215,2.2316,2.2316,2.1802,2.1073,2.1073,2.0656,2.0017,0.0,0.0,0.0,0.0,0.0,0.0,0.0,0.4029,0.4332,0.3728,0.393,0.4234,0.4433,0.4935,0.5336,0.5534,0.6137,0.6637,0.7132,0.6637,0.7033,0.8425,0.93,1.0373,1.1658,1.3022,1.3318,0.0,0.0,0.0,0.0,0.0,0.0,0.0,0.0,1.4592,1.4694,1.4885,1.5077,1.5356,1.5547,1.5635,1.573,1.6487,1.6951,1.7419,1.7963,1.9063,2.0339,2.0339,2.0898,2.1741,2.1741,2.1741,2.1741,2.1741,2.1741,2.1741,2.1741,2.1741,2.1741,2.1741,2.1741,2.1741,2.1741,2.1741,2.1741,2.1741,2.1741,2.1741,2.1741,2.1741,2.1741,0.0,0.0,0.0,0.0,0.0,0.0,2.1741,0.0,2.1741,0.0,0.0,0.0,0.0,0.0,0.0,0.0,0.0,0.0,2.0292,0.0,2.0292,2.0292,2.0555,2.0464,2.0011,2.0514,2.061,2.0304,2.0937,2.1514,2.1996,2.2204,2.2581,2.3029,2.3029,2.3238,2.3538,2.3538,2.2929,2.2013,2.2013,2.1489,2.0664,0.0602,0.0,0.2009,0.0,0.3621,0.4227,0.5033,0.5135,0.5035,0.5035,0.5334,0.5434,0.5033,0.5336,0.5634,0.5834,0.6434,0.7033,0.7531,0.7428,0.8021,0.9604,1.0476,0.0,1.2436,1.3613,1.3902,1.3216,1.3902,0.0,0.0,0.0,0.0,0.0,1.4688,1.479,1.4885,1.5077,1.5363,1.5635,1.573,1.6015,1.6298,1.7044,1.7692,1.8241,1.8972,1.9886,2.0709,2.0709,2.1177,2.1741,2.1741,2.1741,2.1741,2.1741,2.1741,2.1741,2.1741,2.1741,2.1741,2.1741,2.1741,2.1741,2.1741,2.1741,2.1741,2.1741,2.1741,2.1741,2.1741,2.1741,2.1741,2.1741,0.0,0.0,0.0,0.0,0.0,0.0,2.1741,2.1741,2.1741,2.1741,0.0,0.0,0.0,0.0,0.0,0.0,0.0,0.0,0.0,0.0,0.0,2.1006,2.1068,2.0737,2.1283,2.1436,2.1285,2.2028,2.2568,2.3029,2.3029,2.3238,2.3538,2.3538,2.3845,2.4152,2.4152,2.3746,2.3029,2.3029,2.2518,2.1903,0.4004,0.3907,0.441,0.5724,0.5331,0.5033,0.5829,0.5732,0.5634,0.5634,0.6734,0.7033,0.5734,0.5634,0.5834,0.6337,0.7132,0.763,0.763,0.8817,0.9706,0.0,0.0,1.2436,1.2727,1.3709,1.4298,1.4292,0.0,0.0,1.4298,0.0,1.4688,1.4694,1.4987,1.5083,1.5083,1.5356,1.5635,1.5832,1.5832,1.6393,1.7232,1.7326,1.8511,2.0257,2.0249,2.0898,2.1651,2.1651,2.1731,2.1741,2.1741,2.1741,2.1741,2.1741,2.1741,2.1741,2.1741,2.1741,2.1741,2.1741,2.1741,2.1741,2.1741,2.1741,2.1741,2.1741,2.1741,2.1741,2.1741,2.1741,2.1741,2.1741,0.0,0.0,0.0,0.0,0.0,2.1741,2.1741,2.1741,2.1741,2.1741,0.0,0.0,0.0,0.0,0.0,0.0,0.0,2.1642,2.1651,0.0,2.1651,2.1651,2.1663,2.1591,2.16,2.1716,2.2059,2.2845,2.3628,2.4152,2.4152,2.4152,2.4152,2.4152,2.4152,2.4152,2.4152,2.4152,2.4152,2.4152,2.4152,2.4152,0.6213,0.6515,0.6816,0.7322,0.703,0.703,0.7826,0.7329,0.7129,0.7726,0.8127,0.8421,0.8319,0.7528,0.7033,0.0,0.7431,0.8219,0.0,0.9702,1.0395,1.2257,1.2344,1.2727,1.3806,1.41,1.4298,1.4298,0.0,0.0,0.0,1.5064,1.5166,1.4987,1.5261,1.5356,1.5356,1.5445,1.5635,1.5832,1.6581,1.7044,1.7419,1.8788,1.9704,2.0339,2.0997,2.1463,2.1741,2.1741,2.1741,2.1741,2.1741,2.1741,2.1741,2.1741,2.1741,2.1741,2.1741,2.1741,2.1741,2.1741,2.1741,2.1741,2.1741,2.1741,2.1741,2.1741,2.1741,2.1741,2.1741,2.1741,2.1741,2.1741,2.1741,0.0,0.0,0.0,0.0,0.0,2.1741,2.1741,0.0,2.1741,0.0,0.0,0.0,0.0,0.0,0.0,0.0,0.0,2.1741,0.0,2.1741,2.1741,2.1843,2.2052,2.2342,2.279,2.3556,2.3791,2.4044,2.4152,2.4152,2.4152,2.4152,2.4152,2.4152,2.4152,2.4152,2.4152,2.4152,2.4152,2.4152,2.4152,0.8319,0.852,0.8722,0.8722,0.8326,0.8421,0.941,0.8916,0.8616,0.9304,0.9702,0.9899,0.9895,0.9399,0.0,0.8707,0.8711,0.9501,1.0974,1.1077,1.1765,1.3443,1.3227,1.3414,1.4292,0.0,0.0,1.4298,1.4394,1.4592,1.4885,1.5261,1.5452,1.5267,1.592,1.6103,1.6096,1.6567,1.6842,1.6943,1.7598,1.8056,1.8519,1.9795,2.0529,2.0898,2.1463,2.1741,2.1741,2.1741,2.1741,2.1741,2.1741,2.1741,2.1741,2.1741,2.1741,2.1741,2.1741,2.1741,2.1741,2.1741,2.1741,2.1741,2.1741,2.1741,2.1741,2.1741,2.1741,2.1741,2.1741,2.1741,2.1741,2.1741,2.1741,2.1741,2.1741,0.0,0.0,0.0,0.0,0.0,0.0,2.1741,0.0,0.0,0.0,0.0,0.0,0.0,0.0,2.1741,2.1741,0.0,2.1741,2.1878,2.2162,2.2566,2.3134,2.3666,2.4152,2.4152,2.4152,2.4152,2.4152,2.4152,2.4152,2.4152,2.4152,2.4152,2.4152,2.4152,2.4152,2.4152,2.4152,2.4152,1.0408,1.031,0.0,0.0,0.9517,0.0,1.0783,1.0293,0.9895,1.0471,1.1263,1.1365,1.0667,1.1263,1.1365,1.076,0.0,0.0,0.0,1.2845,1.3539,1.3539,1.401,1.4298,1.4298,1.4298,1.4298,1.4298,1.4592,1.4885,1.5178,1.5356,1.554,1.5635,1.6763,1.7225,1.7117,1.8326,1.8788,1.8796,1.888,1.943,2.0348,2.0348,2.0907,2.1741,2.1741,2.1741,2.1741,2.1741,2.1741,2.1741,2.1741,2.1741,2.1741,2.1741,2.1741,2.1741,2.1741,2.1741,2.1741,2.1741,2.1741,2.1741,2.1741,2.1741,2.1741,2.1741,2.1741,2.1741,2.1741,2.1741,2.1741,2.1741,2.1741,2.1741,2.1741,0.0,0.0,0.0,0.0,0.0,0.0,2.1741,2.1741,0.0,0.0,0.0,0.0,0.0,2.1741,2.1741,2.1741,2.1741,2.1741,2.2126,2.2547,2.2911,2.3785,2.4152,2.4152,2.4152,2.4152,2.4152,2.4152,2.4152,2.4152,2.4152,2.4152,2.4152,2.4152,2.4152,2.4152,2.4152,2.4152,2.4152,0.0,0.0,1.264,1.264,1.1755,1.1272,1.2165,1.1668,1.137,1.216,1.2365,1.2559,1.2748,1.2657,1.2748,1.3312,1.2145,1.1863,1.2948,1.3346,1.363,1.4106,1.4202,1.4298,1.4298,1.4298,1.4394,1.4592,1.5064,1.535,1.5452,1.5635,1.6109,1.6857,1.7138,1.7692,1.8326,1.8696,1.8788,1.888,1.9613,2.0068,2.0348,2.1087,2.1553,2.1741,2.1741,2.1741,2.1741,2.1741,2.1741,2.1741,2.1741,2.1741,2.1741,2.1741,2.1741,2.1741,2.1741,2.1741,2.1741,2.1741,2.1741,2.1741,2.1741,2.1741,2.1741,2.1741,2.1741,2.1741,2.1741,2.1741,2.1741,2.1741,2.1741,2.1741,2.1741,2.1741,0.0,0.0,2.1741,2.1741,2.1741,2.1741,2.1741,0.0,0.0,0.0,0.0,2.1741,2.1741,2.1741,2.1741,2.1741,2.1741,2.2126,2.2694,2.3313,2.3914,2.4152,2.4152,2.4152,2.4152,2.4152,2.4152,2.4152,2.4152,2.4152,2.4152,2.4152,2.4152,2.4152,2.4152,2.4152,2.4152,2.4152,1.4638,1.4358,1.4172,1.4172,1.3584,1.3392,1.4088,1.3788,1.3782,1.4478,1.4196,1.41,1.4298,1.3817,1.3721,1.4298,1.313,1.2845,1.3823,1.3823,1.401,1.4298,1.4298,1.4298,1.4298,1.4394,1.4592,1.4885,1.5261,1.554,1.554,1.6204,1.677,1.7326,1.8241,1.8972,1.9521,1.9985,2.0175,2.0167,2.0718,2.0907,2.0997,2.1553,2.1741,2.1741,2.1741,2.1741,2.1741,2.1741,2.1741,2.1741,2.1741,2.1741,2.1741,2.1741,2.1741,2.1741,2.1741,2.1741,2.1741,2.1741,2.1741,2.1741,2.1741,2.1741,2.1741,2.1741,2.1741,2.1741,2.1741,2.1741,2.1741,2.1741,2.1741,2.1741,2.1741,2.1741,0.0,2.1741,2.1741,2.1741,2.1741,2.1741,2.1741,2.1741,0.0,0.0,2.1741,2.1741,2.1741,2.1741,2.1741,2.1823,2.2006,2.2593,2.3198,2.3822,2.4051,2.4152,2.4152,2.4152,2.4152,2.4152,2.4152,2.4152,2.4152,2.4152,2.4152,2.4152,2.4152,2.4152,2.4152,2.4152,2.4152,2.4152,1.5488,1.5393,1.5393,1.5393,1.5305,1.5406,1.5893,1.5893,1.6089,1.6581,1.6008,1.5629,1.5629,1.5057,1.4586,1.449,1.4208,1.4016,1.4298,1.4298,1.4298,1.4394,1.4298,1.4298,1.4394,1.4688,1.4975,1.5363,1.5452,1.573,1.6008,1.6857,1.7419,1.7878,1.9521,2.0348,2.0529,2.1365,2.1741,2.1741,2.1741,2.1741,2.1741,2.1741,2.1741,2.1741,2.1741,2.1741,2.1741,2.1741,2.1741,2.1741,2.1741,2.1741,2.1741,2.1741,2.1741,2.1741,2.1741,2.1741,2.1741,2.1741,2.1741,2.1741,2.1741,2.1741,2.1741,2.1741,2.1741,2.1741,2.1741,2.1741,2.1741,2.1741,2.1741,2.1741,2.1741,0.0,2.1741,2.1741,2.1741,2.1741,2.1741,2.1741,2.1741,2.1741,2.1741,2.1741,0.0,2.1741,2.1741,2.1741,2.1741,2.1951,2.2419,2.3171,2.3749,2.4152,2.4152,2.4152,2.4152,2.4152,2.4152,2.4152,2.4152,2.4152,2.4152,2.4152,2.4152,2.4152,2.4152,2.4152,2.4152,2.4152,2.4152,2.4152,1.7785,1.7225,1.6943,1.6943,1.6662,1.6386,1.648,1.6487,1.6487,1.6581,1.6487,1.6393,1.6393,1.6298,1.6015,1.5248,1.5724,1.5629,1.4394,1.4298,1.4394,1.4592,1.4394,1.4496,1.4981,1.5261,1.5818,1.6655,1.6015,1.6662,1.8234,1.7598,1.8241,1.9886,2.0158,2.0718,2.1463,2.1642,2.1741,2.1741,2.1741,2.1741,2.1741,2.1741,2.1741,2.1741,2.1741,2.1741,2.1741,2.1741,2.1741,2.1741,2.1741,2.1741,2.1741,2.1741,2.1741,2.1741,2.1741,2.1741,2.1741,2.1741,2.1741,2.1741,2.1741,2.1741,2.1741,2.1741,2.1741,2.1741,2.1741,2.1741,2.1741,2.1741,2.1741,2.1741,2.1741,0.0,2.1741,2.1741,2.1741,2.1741,2.1741,2.1741,2.1741,2.1741,2.1741,2.1741,2.1741,2.1741,2.1741,2.1741,2.1741,2.2098,2.2756,2.3318,2.3749,2.4152,2.4152,2.4152,2.4152,2.4152,2.4152,2.4152,2.4152,2.4152,2.4152,2.4152,2.4152,2.4152,2.4152,2.4152,2.4152,2.4152,2.4152,2.4152,1.9571,1.9155,1.8703,1.8172,1.7893,1.78,1.78,1.78,1.78,1.78,1.7419,1.7326,1.7505,1.6958,1.6669,1.6828,1.6929,1.6741,1.6351,1.5527,1.5248,1.552,1.4968,1.4879,1.5267,1.6466,1.7117,1.7131,1.7311,1.7863,1.8788,1.888,1.943,2.0339,2.0808,2.1275,2.1741,2.1741,2.1741,2.1741,2.1741,2.1741,2.1741,2.1741,2.1741,2.1741,2.1741,2.1741,2.1741,2.1741,2.1741,2.1741,2.1741,2.1741,2.1741,2.1741,2.1741,2.1741,2.1741,2.1741,2.1741,2.1741,2.1741,2.1741,2.1741,2.1741,2.1741,2.1741,2.1741,2.1741,2.1741,2.1741,2.1741,2.1741,2.1741,0.0,0.0,2.1741,2.1741,2.1741,2.1741,2.1741,2.1741,2.1741,2.1741,2.1741,2.1741,2.1741,2.1741,2.1741,2.1741,2.1741,2.2162,2.2676,2.3263,2.3666,2.3969,2.4152,2.4152,2.4152,2.4152,2.4152,2.4152,2.4152,2.4152,2.4152,2.4152,2.4152,2.4152,2.4152,2.4152,2.4152,2.4152,2.4152,2.4152,2.4152,2.1132,2.0782,2.0257,1.9546,1.9279,1.9196,1.9196,1.9196,1.9196,1.9196,1.8627,1.8434,1.8804,1.7971,1.7692,1.8226,1.8133,1.8041,1.8033,1.7117,1.6655,1.672,1.6183,1.6008,1.619,1.7662,1.8319,1.7963,1.8519,1.9072,1.953,2.0068,2.0439,2.0628,2.1365,2.1741,2.1741,2.1741,2.1741,2.1741,2.1741,2.1741,2.1741,2.1741,2.1741,2.1741,2.1741,2.1741,2.1741,2.1741,2.1741,2.1741,2.1741,2.1741,2.1741,2.1741,2.1741,2.1741,2.1741,2.1741,2.1741,2.1741,2.1741,2.1741,2.1741,2.1741,2.1741,2.1741,2.1741,2.1741,2.1741,2.1741,2.1741,2.1741,0.0,0.0,0.0,2.1741,2.1741,2.1741,2.1741,2.1741,2.1741,2.1741,2.1741,2.1741,2.1741,2.1741,2.1741,2.1741,2.1823,2.2016,2.2537,2.3048,2.3538,2.395,2.4152,2.4152,2.4152,2.4152,2.4152,2.4152,2.4152,2.4152,2.4152,2.4152,2.4152,2.4152,2.4152,2.4152,2.4152,2.4152,2.4152,2.4152,2.4152,2.4152,2.2368,2.1667,2.1239,2.1159,2.0637,2.0201,2.0201,2.0201,2.0201,2.0201,2.011,2.011,2.0201,2.0102,1.982,1.9155,1.972,1.9446,1.8126,1.8788,1.8964,1.8303,1.8411,1.8411,1.8211,1.8596,1.9155,2.0068,1.9247,1.9712,2.1463,2.0709,2.0718,2.1642,2.1642,2.1741,2.1741,2.1741,2.1741,2.1741,2.1741,2.1741,2.1741,2.1741,2.1741,2.1741,2.1741,2.1741,2.1741,2.1741,2.1741,2.1741,2.1741,2.1741,2.1741,2.1741,2.1741,2.1741,2.1741,2.1741,2.1741,2.1741,2.1741,2.1741,2.1741,2.1741,2.1741,2.1741,2.1741,2.1741,2.1741,2.1741,2.1741,2.1741,0.0,0.0,2.1741,2.1741,2.1741,2.1741,2.1741,2.1741,2.1741,2.1741,2.1741,2.1741,2.1741,2.1741,2.1741,2.1741,2.208,2.2747,2.2829,2.3048,2.3538,2.395,2.4152,2.4152,2.4152,2.4152,2.4152,2.4152,2.4152,2.4152,2.4152,2.4152,2.4152,2.4152,2.4152,2.4152,2.4152,2.4152,2.4152,2.4152,2.4152,2.4152,2.3517,2.3173,2.2648,2.211,2.1418,2.1069,2.1498,2.0898,2.0464,2.0898,2.0555,2.0382,2.0736,2.0464,2.0464,2.0718,2.0727,2.0637,2.0348,2.0628,2.0167,1.8688,1.9894,1.9985,1.8688,1.9886,2.0538,2.0339,2.0538,2.0997,2.1731,2.1365,2.1365,2.1741,2.1741,2.1741,2.1741,2.1741,2.1741,2.1741,2.1741,2.1741,2.1741,2.1741,2.1741,2.1741,2.1741,2.1741,2.1741,2.1741,2.1741,2.1741,2.1741,2.1741,2.1741,2.1741,2.1741,2.1741,2.1741,2.1741,2.1741,2.1741,2.1741,2.1741,2.1741,2.1741,2.1741,2.1741,2.1741,2.1741,2.1741,2.1741,2.1741,2.1741,0.0,2.1741,2.1741,2.1741,2.1741,2.1741,2.1741,2.1741,2.1741,2.1741,2.1741,2.1741,2.1741,2.1741,2.1741,2.197,2.2364,2.2848,2.3094,2.3519,2.3914,2.4079,2.4152,2.4152,2.4152,2.4152,2.4152,2.4152,2.4152,2.4152,2.4152,2.4152,2.4152,2.4152,2.4152,2.4152,2.4152,2.4152,2.4152,2.4152,2.4152,2.4152,2.466,2.4402,2.3963,2.3337,2.2551,2.2208,2.2473,2.1863,2.1526,2.1704,2.1356,2.1186,2.1535,2.1096,2.1015,2.1642,2.1374,2.1365,2.1651,2.1741,2.1096,1.9803,2.0997,2.1096,1.9712,2.1006,2.1365,2.0718,2.1365,2.1741,2.1741,2.1741,2.1741,2.1741,2.1741,2.1741,2.1741,2.183,2.1741,2.1741,2.182,2.1741,2.1741,2.1741,2.1731,2.183,2.1731,2.1731,2.183,2.1741,2.1741,2.1741,2.1741,2.1741,2.1741,2.1741,2.1741,2.1741,2.1741,2.1741,2.1741,2.1741,2.1741,2.1741,2.1741,2.1741,2.1741,2.1741,2.1741,2.1741,2.1741,2.1741,2.1741,2.1741,2.1741,2.1741,2.1741,2.1741,2.1741,2.1741,2.1741,2.1741,2.1741,2.1741,2.1741,2.1741,2.1741,2.1796,2.1915,2.23,2.2712,2.3125,2.3529,2.3868,2.4152,2.4152,2.4152,2.4152,2.4152,2.4152,2.4152,2.4152,2.4152,2.4152,2.4152,2.4152,2.4152,2.4152,2.4152,2.4152,2.4152,2.4152,2.4152,2.4152,2.4152,2.4152,2.5808,2.538,2.4946,2.4946,2.4327,2.3551,2.2969,2.3387,2.3551,2.2882,2.2794,2.2794,2.2794,2.2176,2.1741,2.1741,2.1741,2.1741,2.1741,2.1741,2.1741,2.1741,2.1741,2.1741,2.1741,2.1741,2.1741,2.1741,2.1741,2.1741,2.1741,2.1741,2.1741,2.1741,2.1741,2.1741,2.1741,2.2008,2.1919,2.1741,2.2008,2.1919,2.1741,2.1741,2.183,2.2097,2.183,2.183,2.2097,2.182,2.1741,2.1741,2.1741,2.1741,2.1741,2.1741,2.1741,2.1741,2.1741,2.1741,2.1741,2.1741,2.1741,2.1741,2.1741,2.1741,2.1741,2.1741,2.1741,2.1741,2.1741,2.1741,2.1741,2.1741,2.1741,2.1741,2.1741,2.1741,2.1741,2.1741,2.1741,2.1741,2.1741,2.1741,2.1741,2.1741,2.1741,2.1906,2.2309,2.2722,2.3134,2.3529,2.3932,2.4251,2.4251,2.4251,2.4152,2.4152,2.4152,2.4152,2.4152,2.4152,2.4152,2.4152,2.4152,2.4152,2.4152,2.4152,2.4152,2.4152,2.4152,2.4152,2.4152,2.4152,2.4152,2.4152,2.6753,2.6362,2.603,2.603,2.5421,2.4999,2.4946,2.4327,2.3887,2.4262,2.381,2.3464,2.3464,2.2872,2.2441,2.2441,2.2008,2.1741,2.1741,2.1741,2.1741,2.1741,2.1741,2.1741,2.1741,2.1741,2.1741,2.1741,2.1741,2.1741,2.1741,2.1741,2.1741,2.1741,2.1919,2.2008,2.2008,2.2185,2.2176,2.2008,2.2176,2.2176,2.2008,2.2176,2.2264,2.2264,2.2097,2.2008,2.2097,2.182,2.183,2.2008,2.2008,2.183,2.1741,2.1741,2.1741,2.1741,2.1741,2.1741,2.1741,2.1741,2.1741,2.1741,2.1741,2.1741,2.1741,2.1741,2.1741,2.1741,2.1741,2.1741,2.1741,2.1741,2.1741,2.1741,2.1741,2.1741,2.1741,2.1741,2.1741,2.1741,2.1741,2.1741,2.1741,2.1741,2.1741,2.2085,2.3109,2.3547,2.4162,2.5134,2.5555,2.5781,2.5781,2.4726,2.4152,2.4152,2.4152,2.4152,2.4152,2.4152,2.4152,2.4152,2.4152,2.4152,2.4152,2.4152,2.4152,2.4152,2.4152,2.4152,2.4152,2.4152,2.4152,2.4152,2.7174,2.6928,2.6775,2.6775,2.6423,2.6174,2.6041,2.5348,2.4914,2.5094,2.4734,2.4307,2.3887,2.3637,2.3135,2.2441,2.2176,2.1998,2.1741,2.2255,2.2344,2.1919,2.2008,2.2008,2.1741,2.1741,2.1731,2.183,2.1731,2.1731,2.183,2.1741,2.1741,2.183,2.2008,2.2185,2.2264,2.2441,2.2441,2.2274,2.2441,2.2441,2.2264,2.2353,2.2441,2.253,2.2264,2.2274,2.2362,2.2087,2.2087,2.2185,2.2185,2.2097,2.1998,2.1998,2.1998,2.1998,2.1919,2.183,2.183,2.1741,2.1741,2.1741,2.1741,2.1741,2.1741,2.1741,2.1741,2.1741,2.1741,2.1741,2.1741,2.1741,2.1741,2.1741,2.1741,2.1741,2.1741,2.1741,2.1741,2.1741,2.1741,2.1741,2.1741,2.1741,2.1878,2.2497,2.364,2.4156,2.4863,2.6148,2.6411,2.6456,2.6456,2.5596,2.4922,2.4627,2.4627,2.444,2.4152,2.4152,2.4152,2.4152,2.4152,2.4152,2.4152,2.4152,2.4152,2.4152,2.4152,2.4152,2.4152,2.4152,2.4152,2.4152,2.7499,2.7348,2.7348,2.7267,2.7267,2.7021,2.6351,2.6434,2.6351,2.5746,2.5652,2.5231,2.4221,2.4402,2.3973,2.2255,2.2618,2.2696,2.2078,2.3193,2.3367,2.2264,2.2706,2.2608,2.1909,2.182,2.1909,2.2185,2.1909,2.183,2.2097,2.183,2.1919,2.2185,2.2264,2.2353,2.2608,2.2882,2.2794,2.2608,2.2794,2.2706,2.252,2.253,2.2618,2.2794,2.2608,2.2618,2.2803,2.253,2.2441,2.2441,2.2441,2.2441,2.2441,2.252,2.252,2.252,2.2441,2.2353,2.2264,2.2078,2.1909,2.182,2.1741,2.1741,2.1741,2.1741,2.1741,2.1741,2.1741,2.1741,2.1741,2.1741,2.1741,2.1741,2.1731,2.1741,2.183,2.183,2.1741,2.1741,2.182,2.182,2.1928,2.1965,2.2298,2.3063,2.4268,2.475,2.5435,2.6638,2.6744,2.6744,2.6744,2.6744,2.6254,2.5392,2.5294,2.4913,2.435,2.4251,2.4152,2.4152,2.4152,2.4152,2.4152,2.4152,2.4152,2.4152,2.4152,2.4152,2.4152,2.4152,2.4152,2.4152,2.9015,2.8712,2.8315,2.7869,2.7719,2.7545,2.7103,2.7021,2.7021,2.6846,2.6846,2.6753,2.6505,2.6091,2.5684,2.5253,2.4573,2.4231,2.4361,2.4392,2.4059,2.3454,2.4211,2.4211,2.3367,2.2432,2.2264,2.2882,2.2264,2.2008,2.2097,2.2008,2.2432,2.3096,2.3541,2.3714,2.3714,2.3983,2.3983,2.3714,2.3222,2.3299,2.3714,2.3125,2.296,2.3135,2.3541,2.329,2.2794,2.2706,2.253,2.2441,2.2618,2.253,2.252,2.329,2.3454,2.3627,2.4286,2.4221,2.4059,2.4286,2.3531,2.2608,2.1909,2.1741,2.1741,2.1741,2.1741,2.1741,2.1741,2.1741,2.1741,2.1741,2.2176,2.2353,2.1741,2.2185,2.253,2.253,2.2274,2.2185,2.2784,2.3125,2.3515,2.3861,2.4305,2.5066,2.6269,2.6496,2.7034,2.8258,2.8269,2.8269,2.8269,2.8269,2.76,2.6264,2.5577,2.5197,2.5001,2.444,2.4152,2.4152,2.4152,2.4152,2.4152,2.4152,2.4152,2.4152,2.4152,2.4152,2.4152,2.4152,2.4152,2.4251,2.9561,2.9263,2.8882,2.8271,2.8203,2.8111,2.7846,2.7696,2.7534,2.7534,2.7534,2.736,2.6775,2.6869,2.6787,2.6279,2.5684,2.5242,2.5126,2.5568,2.5411,2.4638,2.5231,2.5495,2.5073,2.4221,2.3887,2.4231,2.379,2.3617,2.3714,2.3617,2.3867,2.4372,2.4638,2.4808,2.4893,2.5073,2.5073,2.4893,2.4563,2.4563,2.4893,2.4478,2.4402,2.4392,2.4808,2.4307,2.3647,2.3647,2.356,2.3464,2.4059,2.4135,2.4135,2.4638,2.4723,2.4808,2.5221,2.5147,2.4988,2.5041,2.4542,2.379,2.2755,2.2167,2.1919,2.1919,2.2087,2.2264,2.2353,2.2511,2.2677,2.2677,2.3212,2.3474,2.3115,2.3541,2.3887,2.3887,2.3704,2.3704,2.4049,2.4492,2.4881,2.5119,2.5643,2.6292,2.7253,2.7302,2.7814,2.9106,2.9117,2.9209,2.9485,2.9485,2.9106,2.8236,2.7189,2.634,2.5489,2.5197,2.4815,2.4341,2.4251,2.4152,2.4152,2.4152,2.4152,2.4152,2.4152,2.4251,2.4341,2.4341,2.444,2.4548,2.9947,2.9639,2.9419,2.8882,2.8669,2.851,2.8669,2.8271,2.7962,2.7962,2.7962,2.7626,2.6693,2.7452,2.7626,2.6693,2.6528,2.6257,2.5724,2.6753,2.6846,2.583,2.634,2.6599,2.661,2.6246,2.5913,2.5663,2.5305,2.5305,2.5484,2.5305,2.5389,2.5735,2.5735,2.5913,2.608,2.608,2.608,2.5997,2.5819,2.5913,2.5997,2.5819,2.5819,2.583,2.5986,2.5579,2.4914,2.4744,2.4744,2.4829,2.5579,2.5819,2.5819,2.5997,2.608,2.608,2.5997,2.5997,2.5913,2.5724,2.5546,2.5126,2.419,2.327,2.2608,2.2608,2.295,2.3212,2.3387,2.38,2.4049,2.4049,2.4478,2.4754,2.4659,2.4978,2.5305,2.5305,2.5369,2.5507,2.5507,2.6012,2.6411,2.6498,2.6986,2.7479,2.8112,2.8032,2.8527,2.9577,2.9577,2.9852,3.0216,3.0216,3.0216,3.0216,2.9176,2.7851,2.6254,2.6137,2.5557,2.4716,2.444,2.4251,2.4251,2.4251,2.4251,2.435,2.4251,2.4341,2.4538,2.4538,2.4735,2.4941,3.1084,3.0545,3.0165,3.0088,2.9184,2.8657,2.9197,2.8816,2.8431,2.8431,2.8431,2.8351,2.8179,2.8351,2.8351,2.8179,2.7869,2.7788,2.8007,2.7869,2.7534,2.701,2.7753,2.7846,2.7103,2.7753,2.751,2.6351,2.5746,2.5484,2.5484,2.5484,2.5902,2.6648,2.6835,2.701,2.701,2.701,2.701,2.6928,2.6163,2.6246,2.6928,2.608,2.5819,2.5913,2.6753,2.6928,2.667,2.5913,2.5652,2.5652,2.5746,2.5819,2.5997,2.6753,2.701,2.7174,2.7926,2.7857,2.7626,2.7926,2.7174,2.634,2.6318,2.5462,2.4702,2.4702,2.4702,2.4787,2.4787,2.4872,2.4957,2.4957,2.5495,2.5757,2.5136,2.5568,2.6008,2.6008,2.6634,2.6975,2.6975,2.7827,2.8475,2.9018,2.9477,2.9754,2.9908,2.9897,2.9932,3.0125,3.0125,3.0125,3.0216,3.0216,3.0216,3.0216,3.0487,2.992,2.8609,2.7094,2.6137,2.5751,2.4815,2.444,2.444,2.4251,2.4449,2.4735,2.4538,2.4637,2.4833,2.4833,2.503,2.5235,3.1307,3.0996,3.0696,3.0317,2.9561,2.9118,2.9341,2.8895,2.851,2.851,2.851,2.851,2.851,2.851,2.851,2.851,2.8363,2.8283,2.851,2.8351,2.8111,2.7926,2.8259,2.8339,2.7926,2.8259,2.8179,2.7603,2.7336,2.7162,2.7162,2.7162,2.7418,2.7742,2.7834,2.7926,2.7926,2.7926,2.7926,2.7926,2.7499,2.7592,2.7846,2.7499,2.7336,2.7336,2.7255,2.7185,2.7185,2.6753,2.6588,2.667,2.7162,2.7336,2.7418,2.7765,2.7926,2.8007,2.8431,2.8351,2.8283,2.8431,2.8099,2.7672,2.7753,2.7325,2.6648,2.5557,2.5568,2.5746,2.583,2.608,2.6235,2.6235,2.6764,2.7033,2.6682,2.7185,2.7627,2.7905,2.8221,2.8561,2.8841,2.9503,2.9989,3.0237,3.0443,3.0625,3.0566,3.0306,3.0306,3.0578,3.0578,3.0758,3.1026,3.1038,3.1038,3.1026,3.1217,3.0656,2.9279,2.8598,2.7652,2.6426,2.5858,2.5197,2.4735,2.4637,2.4735,2.4932,2.4735,2.4932,2.5137,2.5333,2.544,2.5538]},{"header":{"parameterUnit":"m.s-1","parameterCategory":1,"la1":30.6,"la2":28.766,"lo1":-90.7593,"lo2":-88.6598,"dy":0.0162,"dx":0.0183,"nx":116,"ny":114,"refTime":"2023-05-28T06:00:00:Z","depth":0,"parameterNumber":3,"parameterNumberName":"V-component_of_WINDS"},"data":[0.0,0.0,0.0,0.0,0.0,0.0,0.0,0.0,0.0,0.0,0.0,0.0,0.0,0.0,0.0,0.0,0.0,0.0,0.0,0.0,0.0,0.0,0.0,0.0,0.0,0.0,0.0,0.0,0.0,0.0,0.0,0.0,0.0,0.0,0.0,0.0,0.0,0.0,0.0,0.0,0.0,0.0,0.0,0.0,0.0,0.0,0.0,0.0,0.0,0.0,0.0,0.0,0.0,0.0,0.0,0.0,0.0,0.0,0.0,0.0,0.0,0.0,0.0,0.0,0.0,0.0,0.0,0.0,0.0,0.0,0.0,0.0,0.0,0.0,0.0,0.0,0.0,0.0,0.0,0.0,0.0,0.0,0.0,0.0,0.0,0.0,0.0,0.0,0.0,0.0,0.0,0.0,0.0,0.0,0.0,0.0,0.0,0.0,0.0,0.0,0.0,0.0,0.0,0.0,0.0,0.0,0.0,0.0,0.0,0.0,0.0,0.0,0.0,0.0,0.0,0.0,0.0,0.0,0.0,0.0,0.0,0.0,0.0,0.0,0.0,0.0,0.0,0.0,0.0,0.0,0.0,0.0,0.0,0.0,0.0,0.0,0.0,0.0,0.0,0.0,0.0,0.0,0.0,0.0,0.0,0.0,0.0,0.0,0.0,0.0,0.0,0.0,0.0,0.0,0.0,0.0,0.0,0.0,0.0,0.0,0.0,0.0,0.0,0.0,0.0,0.0,0.0,0.0,0.0,0.0,0.0,0.0,0.0,0.0,0.0,0.0,0.0,0.0,0.0,0.0,0.0,0.0,0.0,0.0,0.0,0.0,0.0,0.0,0.0,0.0,0.0,0.0,0.0,0.0,0.0,0.0,0.0,0.0,0.0,0.0,0.0,0.0,0.0,0.0,0.0,0.0,0.0,0.0,0.0,0.0,0.0,0.0,0.0,0.0,0.0,0.0,0.0,0.0,0.0,0.0,0.0,0.0,0.0,0.0,0.0,0.0,0.0,0.0,0.0,0.0,0.0,0.0,0.0,0.0,0.0,0.0,0.0,0.0,0.0,0.0,0.0,0.0,0.0,0.0,0.0,0.0,0.0,0.0,0.0,0.0,0.0,0.0,0.0,0.0,0.0,0.0,0.0,0.0,0.0,0.0,0.0,0.0,0.0,0.0,0.0,0.0,0.0,0.0,0.0,0.0,0.0,0.0,0.0,0.0,0.0,0.0,0.0,0.0,0.0,0.0,0.0,0.0,0.0,0.0,0.0,0.0,0.0,0.0,0.0,0.0,0.0,0.0,0.0,0.0,0.0,0.0,0.0,0.0,0.0,0.0,0.0,0.0,0.0,0.0,0.0,0.0,0.0,0.0,0.0,0.0,0.0,0.0,0.0,0.0,0.0,0.0,0.0,0.0,0.0,0.0,0.0,0.0,0.0,0.0,0.0,0.0,0.0,0.0,0.0,0.0,0.0,0.0,0.0,0.0,0.0,0.0,0.0,0.0,0.0,0.0,0.0,0.0,0.0,0.0,0.0,0.0,0.0,0.0,0.0,0.0,0.0,0.0,0.0,0.0,0.0,0.0,0.0,0.0,0.0,0.0,0.0,0.0,0.0,0.0,0.0,0.0,0.0,0.0,0.0,0.0,0.0,0.0,0.0,0.0,0.0,0.0,0.0,0.0,0.0,0.0,0.0,0.0,0.0,0.0,0.0,0.0,0.0,0.0,0.0,0.0,0.0,0.0,0.0,0.0,0.0,0.0,0.0,0.0,0.0,0.0,0.0,0.0,0.0,0.0,0.0,0.0,0.0,0.0,0.0,0.0,0.0,0.0,0.0,0.0,0.0,0.0,0.0,0.0,0.0,0.0,0.0,0.0,0.0,0.0,0.0,0.0,0.0,0.0,0.0,0.0,0.0,0.0,0.0,0.0,0.0,0.0,0.0,0.0,0.0,0.0,0.0,0.0,0.0,0.0,0.0,0.0,0.0,0.0,0.0,0.0,0.0,0.0,0.0,0.0,0.0,0.0,0.0,0.0,0.0,0.0,0.0,0.0,0.0,0.0,0.0,0.0,0.0,0.0,0.0,0.0,0.0,0.0,0.0,0.0,0.0,0.0,0.0,0.0,0.0,0.0,0.0,0.0,0.0,0.0,0.0,0.0,0.0,0.0,0.0,0.0,0.0,0.0,0.0,0.0,0.0,0.0,0.0,0.0,0.0,0.0,0.0,0.0,0.0,0.0,0.0,0.0,0.0,0.0,0.0,0.0,0.0,0.0,0.0,0.0,0.0,0.0,0.0,0.0,0.0,0.0,0.0,0.0,0.0,0.0,0.0,0.0,0.0,0.0,0.0,0.0,0.0,0.0,0.0,0.0,0.0,0.0,0.0,0.0,0.0,0.0,0.0,0.0,0.0,0.0,0.0,0.0,0.0,0.0,0.0,0.0,0.0,0.0,0.0,0.0,0.0,0.0,0.0,0.0,0.0,0.0,0.0,0.0,0.0,0.0,0.0,0.0,0.0,0.0,0.0,0.0,0.0,0.0,0.0,0.0,0.0,0.0,0.0,0.0,0.0,0.0,0.0,0.0,0.0,0.0,0.0,0.0,0.0,0.0,0.0,0.0,0.0,0.0,0.0,0.0,0.0,0.0,0.0,0.0,0.0,0.0,0.0,0.0,0.0,0.0,0.0,0.0,0.0,0.0,0.0,0.0,0.0,0.0,0.0,0.0,0.0,0.0,0.0,0.0,0.0,0.0,0.0,0.0,0.0,0.0,0.0,0.0,0.0,0.0,0.0,0.0,0.0,0.0,0.0,0.0,0.0,0.0,0.0,0.0,0.0,0.0,0.0,0.0,0.0,0.0,0.0,0.0,0.0,0.0,0.0,0.0,0.0,0.0,0.0,0.0,0.0,0.0,0.0,0.0,0.0,0.0,0.0,0.0,0.0,0.0,0.0,0.0,0.0,0.0,0.0,0.0,0.0,0.0,0.0,0.0,0.0,0.0,0.0,0.0,0.0,0.0,0.0,0.0,0.0,0.0,0.0,0.0,0.0,0.0,0.0,0.0,0.0,0.0,0.0,0.0,0.0,0.0,0.0,0.0,0.0,0.0,0.0,0.0,0.0,0.0,0.0,0.0,0.0,0.0,0.0,0.0,0.0,0.0,0.0,0.0,0.0,0.0,0.0,0.0,0.0,0.0,0.0,0.0,0.0,0.0,0.0,0.0,0.0,0.0,0.0,0.0,0.0,0.0,0.0,0.0,0.0,0.0,0.0,0.0,0.0,0.0,0.0,0.0,0.0,0.0,0.0,0.0,0.0,0.0,0.0,0.0,0.0,0.0,0.0,0.0,0.0,0.0,0.0,0.0,0.0,0.0,0.0,0.0,0.0,0.0,0.0,0.0,0.0,0.0,0.0,0.0,0.0,0.0,0.0,0.0,0.0,0.0,0.0,0.0,0.0,0.0,0.0,0.0,0.0,0.0,0.0,0.0,0.0,0.0,0.0,0.0,0.0,0.0,0.0,0.0,0.0,0.0,0.0,0.0,0.0,0.0,0.0,0.0,0.0,0.0,0.0,0.0,0.0,0.0,0.0,0.0,0.0,0.0,0.0,0.0,0.0,0.0,0.0,0.0,0.0,0.0,0.0,0.0,0.0,0.0,0.0,0.0,0.0,0.0,0.0,0.0,0.0,0.0,0.0,0.0,0.0,0.0,0.0,0.0,0.0,0.0,0.0,0.0,0.0,0.0,0.0,0.0,0.0,0.0,0.0,0.0,0.0,0.0,0.0,0.0,0.0,0.0,0.0,0.0,0.0,0.0,0.0,0.0,0.0,0.0,0.0,0.0,0.0,0.0,0.0,0.0,0.0,0.0,0.0,0.0,0.0,0.0,0.0,0.0,0.0,0.0,0.0,0.0,0.0,0.0,0.0,0.0,0.0,0.0,0.0,0.0,0.0,0.0,0.0,0.0,0.0,0.0,0.0,0.0,0.0,0.0,0.0,0.0,0.0,0.0,0.0,0.0,0.0,0.0,0.0,0.0,0.0,0.0,0.0,0.0,0.0,0.0,0.0,0.0,0.0,0.0,0.0,0.0,0.0,0.0,0.0,0.0,0.0,0.0,0.0,0.0,0.0,0.0,0.0,0.0,0.0,0.0,0.0,0.0,0.0,0.0,0.0,0.0,0.0,0.0,0.0,0.0,0.0,0.0,0.0,0.0,0.0,0.0,0.0,0.0,0.0,0.0,0.0,0.0,0.0,0.0,0.0,0.0,0.0,0.0,0.0,0.0,0.0,0.0,0.0,0.0,0.0,0.0,0.0,0.0,0.0,0.0,0.0,0.0,0.0,0.0,0.0,0.0,0.0,0.0,0.0,0.0,0.0,0.0,0.0,0.0,0.0,0.0,0.0,0.0,0.0,0.0,0.0,0.0,0.0,0.0,0.0,0.0,0.0,0.0,0.0,0.0,0.0,0.0,0.0,0.0,0.0,0.0,0.0,0.0,0.0,0.0,0.0,0.0,0.0,0.0,0.0,0.0,0.0,0.0,0.0,0.0,0.0,0.0,0.0,0.0,0.0,0.0,0.0,0.0,0.0,0.0,0.0,0.0,0.0,0.0,0.0,0.0,0.0,0.0,0.0,0.0,0.0,0.0,0.0,0.0,0.0,0.0,0.0,0.0,0.0,0.0,0.0,0.0,0.0,0.0,0.0,0.0,0.0,0.0,0.0,0.0,0.0,0.0,0.0,0.0,0.0,0.0,0.0,0.0,0.0,0.0,0.0,0.0,0.0,0.0,0.0,0.0,0.0,0.0,0.0,0.0,0.0,0.0,0.0,0.0,0.0,0.0,0.0,0.0,0.0,0.0,0.0,0.0,0.0,0.0,0.0,0.0,0.0,0.0,0.0,0.0,0.0,0.0,0.0,0.0,0.0,0.0,0.0,0.0,0.0,0.0,0.0,0.0,0.0,0.0,0.0,0.0,0.0,0.0,0.0,0.0,0.0,0.0,0.0,0.0,0.0,0.0,0.0,0.0,0.0,0.0,0.0,0.0,0.0,0.0,0.0,0.0,0.0,0.0,0.0,0.0,0.0,0.0,0.0,0.0,0.0,0.0,0.0,0.0,0.0,0.0,0.0,0.0,0.0,0.0,0.0,0.0,0.0,0.0,0.0,0.0,0.0,0.0,0.0,0.0,0.0,0.0,0.0,0.0,0.0,0.0,0.0,0.0,0.0,0.0,0.0,0.0,0.0,0.0,0.0,0.0,0.0,0.0,0.0,0.0,0.0,0.0,0.0,0.0,0.0,0.0,0.0,0.0,0.0,0.0,0.0,0.0,0.0,0.0,0.0,0.0,0.0,0.0,0.0,0.0,0.0,0.0,0.0,0.0,0.0,0.0,0.0,0.0,0.0,0.0,0.0,0.0,0.0,0.0,0.0,0.0,0.0,0.0,0.0,0.0,0.0,0.0,0.0,0.0,0.0,0.0,0.0,0.0,0.0,0.0,0.0,0.0,0.0,0.0,0.0,0.0,0.0,0.0,0.0,0.0,0.0,0.0,0.0,0.0,0.0,0.0,0.0,0.0,0.0,0.0,0.0,0.0,0.0,0.0,0.0,0.0,0.0,0.0,0.0,0.0,0.0,0.0,0.0,0.0,0.0,0.0,0.0,0.0,0.0,0.0,0.0,0.0,0.0,0.0,0.0,0.0,0.0,0.0,0.0,0.0,0.0,0.0,0.0,0.0,0.0,0.0,0.0,0.0,0.0,0.0,0.0,0.0,0.0,0.0,0.0,0.0,0.0,0.0,0.0,0.0,0.0,0.0,0.0,0.0,0.0,0.0,0.0,0.0,0.0,0.0,0.0,0.0,0.0,0.0,0.0,0.0,0.0,0.0,0.0,0.0,0.0,0.0,0.0,0.0,0.0,0.0,0.0,0.0,0.0,0.0,0.0,0.0,0.0,0.0,0.0,0.0,0.0,0.0,0.0,0.0,0.0,0.0,0.0,0.0,0.0,0.0,0.0,0.0,0.0,0.0,0.0,0.0,0.0,0.0,0.0,0.0,0.0,0.0,0.0,0.0,0.0,0.0,0.0,0.0,0.0,0.0,0.0,0.0,0.0,0.0,4.8306,0.0,0.0,0.0,0.0,0.0,0.0,0.0,0.0,0.0,0.0,0.0,0.0,0.0,0.0,0.0,0.0,0.0,0.0,0.0,0.0,0.0,0.0,0.0,0.0,0.0,0.0,0.0,0.0,0.0,0.0,0.0,0.0,0.0,0.0,0.0,0.0,0.0,0.0,4.6211,4.6273,4.6273,4.6211,4.6273,4.6277,4.6245,0.0,0.0,0.0,0.0,0.0,0.0,0.0,0.0,0.0,0.0,0.0,0.0,0.0,0.0,0.0,0.0,0.0,0.0,0.0,0.0,0.0,0.0,0.0,0.0,0.0,0.0,0.0,0.0,0.0,0.0,0.0,0.0,0.0,0.0,0.0,0.0,0.0,0.0,0.0,0.0,0.0,0.0,0.0,0.0,0.0,0.0,0.0,0.0,0.0,0.0,0.0,0.0,0.0,0.0,0.0,0.0,0.0,0.0,0.0,0.0,0.0,0.0,0.0,0.0,0.0,0.0,0.0,0.0,0.0,0.0,0.0,4.8306,0.0,0.0,0.0,0.0,0.0,0.0,0.0,0.0,0.0,0.0,0.0,0.0,0.0,0.0,0.0,0.0,0.0,0.0,0.0,0.0,0.0,0.0,0.0,4.6075,4.6107,4.6187,4.6186,4.6207,0.0,0.0,0.0,0.0,0.0,0.0,4.63,4.63,4.6245,4.6138,4.6216,4.6211,4.6098,4.6181,4.624,4.624,4.6277,0.0,0.0,0.0,0.0,0.0,0.0,0.0,0.0,0.0,0.0,0.0,0.0,0.0,0.0,0.0,0.0,0.0,0.0,0.0,0.0,0.0,0.0,0.0,0.0,0.0,0.0,0.0,0.0,0.0,0.0,0.0,0.0,0.0,0.0,0.0,0.0,0.0,0.0,0.0,0.0,0.0,0.0,0.0,0.0,0.0,0.0,0.0,0.0,0.0,0.0,0.0,0.0,0.0,0.0,0.0,0.0,0.0,0.0,0.0,0.0,0.0,0.0,0.0,4.5553,4.5553,4.5718,4.6397,4.6783,4.6948,4.7755,4.8177,4.8306,0.0,0.0,0.0,0.0,0.0,0.0,0.0,0.0,0.0,0.0,0.0,0.0,0.0,0.0,0.0,0.0,0.0,0.0,0.0,0.0,0.0,0.0,4.5986,4.6037,4.6111,4.6114,4.6136,4.6205,0.0,0.0,0.0,0.0,4.63,4.63,4.63,4.6296,4.6273,4.6176,4.6131,4.6098,4.5996,4.594,4.5949,4.6206,4.63,4.6296,0.0,0.0,0.0,0.0,0.0,0.0,0.0,0.0,0.0,0.0,0.0,0.0,0.0,0.0,0.0,0.0,0.0,0.0,0.0,0.0,0.0,0.0,0.0,0.0,0.0,0.0,0.0,0.0,0.0,0.0,0.0,0.0,0.0,0.0,0.0,0.0,0.0,0.0,0.0,0.0,0.0,4.3697,4.373,0.0,0.0,0.0,0.0,0.0,0.0,0.0,0.0,0.0,0.0,0.0,0.0,0.0,4.3938,4.4856,4.4066,4.4066,4.4856,4.414,4.4176,4.4874,4.4984,4.5406,4.6104,4.6929,0.0,4.8306,4.8306,0.0,0.0,0.0,0.0,0.0,0.0,0.0,0.0,0.0,0.0,0.0,0.0,0.0,0.0,0.0,0.0,0.0,0.0,0.0,0.0,0.0,4.5929,4.5975,4.6027,4.6045,4.6075,4.6134,4.621,0.0,0.0,4.63,4.63,4.63,4.6306,4.6306,4.6306,4.6092,4.5985,4.5987,4.592,4.5886,4.5847,4.6007,4.6084,4.6064,4.6017,0.0,0.0,0.0,0.0,0.0,0.0,0.0,0.0,0.0,0.0,0.0,0.0,0.0,0.0,0.0,0.0,0.0,0.0,0.0,0.0,0.0,0.0,0.0,0.0,0.0,0.0,0.0,0.0,0.0,0.0,0.0,0.0,0.0,0.0,0.0,0.0,0.0,0.0,0.0,4.3649,4.3615,4.3814,4.3649,4.3566,0.0,0.0,0.0,0.0,0.0,0.0,0.0,0.0,0.0,4.3497,4.3497,4.3663,4.4011,4.3663,4.3663,4.4011,4.3663,4.3681,4.4048,4.4488,4.4892,4.5278,4.6085,4.6673,4.7151,4.8163,4.8586,4.8586,0.0,0.0,0.0,0.0,4.9252,4.9269,0.0,0.0,0.0,0.0,0.0,0.0,0.0,0.0,0.0,0.0,0.0,0.0,4.588,4.5861,4.5886,4.5975,4.5998,4.604,4.6117,4.6163,4.623,4.6309,4.6306,4.6306,4.6306,4.6293,4.6295,4.6295,4.6073,4.5948,4.5949,4.592,4.5863,4.5794,4.5863,4.5899,4.5899,4.5879,4.5861,4.5848,0.0,0.0,0.0,0.0,0.0,0.0,0.0,0.0,0.0,0.0,0.0,0.0,0.0,0.0,0.0,0.0,0.0,0.0,0.0,0.0,0.0,0.0,0.0,0.0,0.0,0.0,0.0,0.0,0.0,0.0,0.0,0.0,0.0,0.0,0.0,0.0,0.0,4.3649,4.3582,4.3846,4.3649,4.3513,0.0,0.0,0.0,0.0,0.0,0.0,4.3497,4.3497,4.3497,4.3497,4.3497,4.3497,4.3497,4.3497,4.3497,4.3497,4.3497,4.3497,4.3516,4.4121,4.4397,4.4452,4.5241,4.5644,4.588,4.7404,4.8134,4.8237,4.8527,4.8694,4.8784,4.8909,4.8993,4.9007,0.0,0.0,0.0,0.0,0.0,0.0,0.0,0.0,0.0,0.0,0.0,4.58,4.5794,4.5814,4.5822,4.5905,4.5958,4.606,4.6182,4.6195,4.6229,4.6301,4.6301,4.6301,4.6301,4.6301,4.6301,4.6301,4.6158,4.6079,4.6099,4.5959,4.5863,4.5794,4.5863,4.5899,4.5899,4.5829,4.5766,4.5703,4.5582,0.0,0.0,0.0,0.0,0.0,0.0,0.0,0.0,0.0,0.0,0.0,0.0,0.0,0.0,0.0,0.0,0.0,0.0,0.0,0.0,0.0,0.0,0.0,0.0,0.0,0.0,0.0,0.0,0.0,0.0,0.0,0.0,0.0,0.0,0.0,0.0,0.0,0.0,4.3513,4.3532,0.0,0.0,0.0,0.0,4.3479,4.3479,4.3497,4.3497,4.3497,4.3497,4.3497,4.3497,4.3497,4.3497,4.3497,4.3497,4.3497,4.3497,4.3497,4.3497,4.3534,4.3552,4.3608,4.4415,4.4764,4.4837,4.5699,4.6279,4.6597,4.6583,4.6738,4.7071,4.7382,4.7555,4.7653,0.0,0.0,0.0,0.0,0.0,0.0,0.0,0.0,4.5596,4.5786,4.58,4.58,4.58,4.58,4.5814,4.5822,4.5861,4.5938,4.6117,4.6138,4.6175,4.6303,4.6301,4.6303,4.6306,4.6306,4.6306,4.6306,4.6179,4.6089,4.6098,4.5966,4.589,4.5867,4.5889,4.5899,4.5899,4.5829,4.58,4.5752,4.5565,4.5495,0.0,0.0,0.0,0.0,0.0,0.0,0.0,0.0,0.0,0.0,0.0,0.0,0.0,0.0,0.0,0.0,0.0,0.0,0.0,0.0,0.0,0.0,0.0,0.0,0.0,0.0,0.0,0.0,0.0,0.0,0.0,0.0,0.0,0.0,0.0,0.0,0.0,4.3497,4.3497,0.0,4.3497,4.3497,4.3497,4.3497,4.3497,4.3497,4.3497,4.3497,4.3497,4.3497,4.3497,4.3497,4.3497,4.3497,4.3497,4.3497,4.3497,4.3497,4.3497,4.3497,4.3497,4.3532,4.4029,4.4272,4.4355,4.4755,4.5562,4.6613,4.6977,4.7224,4.7372,4.7723,4.7869,4.7811,0.0,0.0,0.0,0.0,0.0,0.0,0.0,0.0,4.558,4.5708,4.5766,4.58,4.58,4.58,4.5827,4.5848,4.588,4.5938,4.6123,4.6128,4.6186,4.6307,4.6306,4.6307,4.6307,4.6307,4.6307,4.6307,4.6217,4.6167,4.6179,4.6072,4.6006,4.5963,4.6018,4.6002,4.5968,4.5908,4.5891,4.5829,4.5684,4.561,4.5599,0.0,0.0,0.0,0.0,0.0,0.0,0.0,0.0,0.0,0.0,0.0,0.0,0.0,0.0,0.0,0.0,0.0,0.0,0.0,0.0,0.0,0.0,0.0,0.0,0.0,0.0,0.0,0.0,0.0,0.0,0.0,0.0,0.0,0.0,4.3497,4.3497,4.3497,4.3497,4.3497,4.3497,4.3497,4.3497,4.3497,4.3497,4.3497,4.3497,4.3497,4.3497,4.3497,4.3497,4.3497,4.3497,4.3497,4.3497,4.3497,4.3497,4.3497,4.3497,4.3497,4.3497,4.3513,4.3846,4.4036,4.4079,4.4318,4.5002,4.5937,4.6424,4.6729,4.6879,4.7146,4.7242,4.7165,0.0,0.0,0.0,0.0,0.0,0.0,4.4843,4.518,4.5438,4.558,4.5708,4.58,4.58,4.58,4.5848,4.5986,4.5997,4.6063,4.6195,4.6202,4.6237,4.6308,4.6308,4.6308,4.6308,4.6308,4.6308,4.6308,4.6307,4.6307,4.6307,4.6303,4.6231,4.6114,4.6234,4.6225,4.6111,4.6111,4.6018,4.591,4.591,4.5852,4.5814,0.0,0.0,0.0,0.0,0.0,0.0,0.0,0.0,0.0,0.0,0.0,0.0,0.0,0.0,0.0,0.0,0.0,0.0,0.0,0.0,0.0,0.0,0.0,0.0,0.0,0.0,0.0,0.0,0.0,0.0,0.0,0.0,0.0,4.3497,4.3497,4.3497,4.3497,4.3497,4.3497,4.3497,4.3497,4.3497,4.3497,4.3497,4.3497,4.3497,4.3497,4.3497,4.3497,4.3497,4.3497,4.3497,4.3497,4.3497,4.3497,4.3497,4.3497,4.3497,4.3497,4.3497,4.3513,4.3846,4.3986,4.4017,4.4289,4.4465,4.4546,4.48,4.5096,4.54,4.5457,4.5531,4.5586,0.0,0.0,0.0,0.0,0.0,0.0,4.472,4.5052,4.5303,4.538,4.5642,4.58,4.581,4.5805,4.5808,4.5835,4.5933,4.6036,4.6125,4.6167,4.6237,4.6308,4.6308,4.6308,4.6308,4.6308,4.6308,4.6308,4.6308,4.6308,4.6308,4.6307,4.6284,4.6241,4.6282,4.6278,4.6251,4.6251,4.6225,4.6162,4.5977,4.5878,4.5863,0.0,0.0,0.0,0.0,0.0,0.0,0.0,0.0,0.0,0.0,0.0,0.0,0.0,0.0,0.0,0.0,0.0,0.0,0.0,0.0,0.0,0.0,0.0,0.0,0.0,0.0,0.0,0.0,0.0,0.0,0.0,4.3497,4.3497,4.3497,4.3497,4.3497,4.3497,4.3497,4.3497,4.3497,4.3497,4.3497,4.3497,4.3497,4.3497,4.3497,4.3497,4.3497,4.3497,4.3497,4.3497,4.3497,4.3497,4.3497,4.3497,4.3497,4.3497,4.3497,4.3497,4.3497,4.3513,4.3846,4.4091,4.4318,4.4624,4.4934,4.5132,4.4981,4.5004,4.5216,4.5419,4.5531,4.5586,0.0,0.0,0.0,0.0,0.0,0.0,4.4495,4.4795,4.5033,4.5204,4.5435,4.5642,4.5781,4.581,4.5814,4.5893,4.5964,4.6046,4.6137,4.6206,4.6265,4.6308,4.6308,4.6308,4.6308,4.6308,4.6308,4.6308,4.6308,4.6308,4.6308,4.6308,4.6308,4.6308,4.6307,4.6306,4.6305,4.6305,4.6303,4.63,4.6123,4.6025,4.5977,4.5908,4.5822,4.5703,4.5435,4.5284,4.518,4.4896,0.0,0.0,0.0,0.0,0.0,0.0,0.0,0.0,0.0,0.0,0.0,0.0,0.0,0.0,0.0,0.0,0.0,0.0,0.0,0.0,0.0,0.0,0.0,0.0,4.3716,4.3649,4.3513,4.3497,4.3497,4.3497,4.3497,4.3497,4.3497,4.3497,4.3497,4.3497,4.3497,4.3497,4.3497,4.3497,4.3497,4.3497,4.3497,4.3497,4.3497,4.3497,4.3497,4.3497,4.3497,4.3497,4.3497,4.3497,4.3497,0.0,4.3846,4.4151,4.4411,4.4726,4.5068,0.0,0.0,0.0,0.0,0.0,4.5531,4.5586,0.0,0.0,0.0,0.0,0.0,0.0,4.4255,4.4495,4.4751,4.5007,4.5165,4.538,4.57,4.5731,4.5819,4.5964,4.5986,4.6063,4.6171,4.6241,4.6287,4.6287,4.6289,4.6289,4.6289,4.6308,4.6308,4.6308,4.6308,4.6308,4.6308,4.6308,4.6308,4.6308,4.6289,4.6289,4.6289,4.6289,4.6289,4.6287,4.6286,4.6228,4.6117,4.6112,4.5988,4.5835,4.5814,4.5677,4.551,4.5223,0.0,0.0,0.0,0.0,0.0,0.0,0.0,0.0,0.0,0.0,0.0,0.0,0.0,0.0,0.0,0.0,0.0,0.0,0.0,0.0,0.0,0.0,0.0,0.0,4.3974,4.3846,4.3548,4.3513,4.3548,4.3479,4.3497,4.3497,4.3497,4.3497,4.3497,4.3497,4.3497,4.3497,4.3497,0.0,0.0,0.0,0.0,4.3497,4.3497,4.3497,4.3497,4.3497,4.3497,4.3497,4.3497,4.3497,4.3513,4.3582,4.3878,4.4181,4.4465,4.4726,4.5068,4.5399,4.5419,4.5419,4.5419,4.5495,4.555,4.5586,0.0,0.0,0.0,0.0,0.0,0.0,4.4067,4.4336,4.4546,4.4546,4.4792,4.5063,4.5381,4.5399,4.5507,4.5805,4.5886,4.5969,4.6112,4.6131,4.6137,4.6137,4.6199,4.6212,4.6212,4.6268,4.6308,4.6308,4.6308,4.6308,4.6308,4.6308,4.6308,4.6308,4.6241,4.6212,4.6212,4.6162,4.6142,4.6133,4.6195,4.623,4.6241,4.6142,4.6079,4.6016,4.5873,4.5815,4.5783,4.558,4.5342,4.5131,4.5058,4.4825,0.0,0.0,0.0,0.0,0.0,0.0,0.0,0.0,0.0,0.0,0.0,0.0,0.0,0.0,0.0,0.0,0.0,0.0,0.0,4.3974,4.3781,4.3582,4.3532,4.3749,4.3814,4.3513,4.3497,4.3497,4.3497,4.3497,4.3497,4.3497,4.3497,4.3497,4.3497,4.3497,4.3497,4.3497,4.3497,4.3497,4.3497,4.3497,4.3497,4.3497,0.0,0.0,4.3497,4.3497,4.3649,4.391,4.3974,4.4279,4.4726,4.4915,4.5159,4.5476,4.5476,4.5495,4.5495,4.5568,4.5586,4.5586,0.0,0.0,0.0,0.0,0.0,0.0,4.4005,4.4151,4.4308,4.4402,4.4553,4.4762,4.5074,4.5223,4.5381,4.558,4.5783,4.5938,4.6035,4.6049,4.6052,4.6098,4.6131,4.6147,4.6147,4.6171,4.6202,4.6202,4.6202,4.6202,4.6202,4.6202,4.6212,4.6243,4.6171,4.6162,4.6202,4.6158,4.6131,4.6112,4.6212,4.6248,4.625,4.6206,4.6162,4.6091,4.5998,4.5919,4.5889,4.5777,4.5645,4.5478,4.547,4.5265,4.5033,0.0,0.0,0.0,0.0,0.0,0.0,0.0,0.0,0.0,0.0,0.0,0.0,0.0,0.0,4.425,4.4374,0.0,4.4011,4.4162,4.4072,4.3949,4.3949,4.4102,4.4091,4.3781,4.3749,4.3749,4.3749,4.3582,4.3497,4.3497,4.3497,4.3497,4.3497,4.3497,4.3497,4.3497,4.3497,4.3497,4.3497,4.3497,4.3497,4.3497,4.3497,4.3582,4.3749,4.3744,4.3931,4.425,4.425,4.4511,4.4938,4.514,4.5342,4.5495,4.555,4.5531,4.5495,4.555,4.5568,4.5586,0.0,0.0,0.0,0.0,0.0,0.0,0.0,4.4005,4.4079,4.4289,4.4318,4.4438,4.4776,4.5007,4.5163,4.5285,4.5545,4.5757,4.5866,4.5889,4.593,4.6044,4.6068,4.6076,4.6076,4.6091,4.6098,4.6098,4.6098,4.6098,4.6098,4.6098,4.6131,4.6191,4.6112,4.6112,4.6158,4.6128,4.6092,4.6049,4.6206,4.6239,4.6192,4.6268,4.6234,4.6144,4.6112,4.6049,4.5978,4.592,4.5863,4.5822,4.5794,4.5665,4.5513,4.5495,4.5322,0.0,0.0,0.0,0.0,0.0,0.0,0.0,0.0,4.4519,4.4511,4.4565,4.4519,4.4493,4.4565,4.4484,4.443,4.4465,4.4438,4.4383,4.4383,4.4438,4.4402,4.4181,4.4079,4.3974,4.391,4.3649,4.3497,4.3497,4.3497,4.3497,4.3497,4.3497,4.3497,4.3497,4.3497,4.3497,4.3497,4.3497,4.3513,4.3582,4.3582,4.3763,4.4091,4.4095,4.428,4.4599,4.4631,4.4825,4.5096,4.5381,4.5513,4.5513,4.5586,4.5568,4.5513,4.5513,4.555,4.5586,0.0,0.0,0.0,0.0,0.0,0.0,0.0,0.0,4.4005,4.4048,4.4048,4.4151,4.443,4.4493,4.4606,4.4919,4.4998,4.5128,4.536,4.5432,4.5571,4.5819,4.5953,4.6017,4.6017,4.606,4.6098,4.6098,4.6098,4.6098,4.6098,4.6098,4.6105,4.6112,4.6046,4.6027,4.6008,4.591,4.5848,4.5861,4.6041,4.6131,4.6128,4.6249,4.628,4.6264,4.6142,4.6167,4.6216,4.5987,4.5889,4.5886,4.5822,4.5696,4.5568,4.5513,4.5457,4.5419,4.5362,4.5159,4.4985,4.5237,4.4887,4.4599,0.0,4.4976,4.4843,4.5151,4.4957,4.4843,4.5151,4.4764,4.4465,4.4726,4.4546,4.4383,4.4383,4.4599,4.4751,4.4701,4.4279,4.3878,4.3582,4.3513,4.3497,4.3497,4.3497,4.3497,4.3497,4.3497,4.3497,4.3497,4.3497,4.3497,4.3497,4.3497,4.3649,4.3942,4.3942,4.4121,4.4438,4.4419,4.465,4.4962,4.5201,4.5322,4.5362,4.5457,4.555,4.5586,4.5586,4.5605,4.5586,4.5586,4.5586,4.5586,0.0,0.0,0.0,0.0,0.0,0.0,0.0,0.0,0.0,4.4005,4.4005,4.4048,4.4151,4.4346,4.4572,4.4872,4.49,4.495,4.5063,4.5082,4.5165,4.5266,4.5451,4.5519,4.5519,4.5703,4.5815,4.5815,4.5883,4.5936,4.5936,4.5936,4.5968,4.6046,4.5933,4.5941,4.5997,4.5953,4.5861,4.5808,4.6016,4.6105,4.6105,4.6212,4.6269,4.6282,4.6241,4.6257,0.0,4.6176,4.6091,4.5996,4.5886,4.5789,4.57,4.5584,4.5568,4.5531,4.5476,4.5341,4.5258,4.5359,4.5173,4.5023,4.5256,4.5194,4.5132,4.5256,4.5194,4.5068,4.5023,4.4795,4.4676,4.4776,4.4701,4.472,4.4905,4.5023,4.5023,4.48,4.4599,4.4346,4.4053,4.373,4.3497,4.3497,4.3497,4.3582,4.3781,4.3781,4.3841,4.4023,4.4023,4.4023,4.4023,4.4023,4.4084,4.4221,4.4221,4.4402,4.4726,4.4776,4.4966,4.5302,4.5438,4.5495,4.5457,4.5531,4.5568,4.5586,4.5586,4.5586,4.5586,4.5586,4.5586,4.5586,0.0,0.0,0.0,0.0,0.0,0.0,0.0,0.0,0.0,0.0,4.3974,4.3974,4.4005,4.4221,4.4438,4.4624,4.465,4.4682,4.4768,4.4781,4.483,4.4886,4.5036,4.512,4.5201,4.54,4.551,4.5545,4.5645,4.5692,4.5692,4.5692,4.5766,4.5886,4.5794,4.5822,4.5933,4.5933,4.5893,4.5827,4.5998,4.6068,4.6076,4.6162,4.6221,4.6269,4.6282,4.6293,4.6303,4.63,4.6211,4.6084,4.594,4.5859,4.5771,4.5654,4.5586,4.5586,4.5531,4.5477,4.5419,4.54,4.5359,4.5317,4.5297,4.5297,4.5297,4.5297,4.5297,4.5235,4.4981,4.4934,4.4934,4.4934,4.4934,4.5023,4.5275,4.5297,4.5194,4.4957,4.4868,4.4726,4.4519,4.398,4.3664,4.3744,4.3664,4.3763,4.4091,4.4091,4.4192,4.4383,4.4383,4.4383,4.4383,4.4383,4.4438,4.4519,4.4519,4.4726,4.5052,4.5137,4.5302,4.5495,4.5568,4.5568,4.5513,4.5568,4.5586,4.5586,4.5586,4.5586,4.5586,4.5586,4.5586,4.5586,0.0,0.0,0.0,0.0,0.0,0.0,0.0,0.0,0.0,0.0,0.0,0.0,0.0,4.4005,4.4036,4.4036,4.4036,4.4151,4.4383,4.4465,4.4624,4.4872,4.4928,4.5017,4.5201,4.5201,4.5282,4.5419,4.5419,4.5419,4.5419,4.5419,4.5475,4.5613,4.5613,4.5677,4.5814,4.5814,4.5814,4.5814,4.5953,4.6007,4.6027,4.6147,4.6195,4.6207,4.6287,4.6297,4.6293,4.6303,4.6211,4.6084,4.594,4.5859,4.5771,4.5654,4.5586,4.5586,4.5586,4.555,4.5476,4.5419,4.54,4.5398,4.5317,4.5297,4.5297,4.5297,4.5297,4.5297,4.5297,4.5277,4.5277,4.5277,4.5277,4.5297,4.5297,4.5297,4.5297,4.5297,4.5,4.48,4.4776,4.4308,4.4091,4.4355,4.4121,4.4091,4.4374,4.4402,4.4383,4.4383,4.4383,4.4383,4.4383,4.4383,4.4519,4.4776,4.4849,4.5052,4.54,4.5513,4.555,4.5495,4.5568,4.5568,4.5513,4.5568,4.5586,4.5586,4.5586,4.5586,4.5586,4.5586,4.5586,4.5586,0.0,0.0,0.0,0.0,0.0,0.0,0.0,0.0,0.0,0.0,0.0,0.0,0.0,0.0,0.0,0.0,4.4005,4.4048,4.4121,4.4151,4.4192,4.4308,4.4421,4.453,4.4602,4.4868,4.503,4.5074,4.5302,4.54,4.54,4.54,4.5419,4.5456,4.5456,4.5545,4.5661,4.5661,4.5708,4.5814,4.5854,4.5929,4.6017,4.6092,4.6156,4.6202,0.0,4.6293,4.6303,4.63,4.6273,4.6187,4.5978,4.5878,4.5835,4.5648,4.5586,4.5586,4.5586,4.555,4.5495,4.5419,4.54,4.5379,4.5317,4.5297,4.5297,4.5297,4.5297,4.5297,4.5297,4.5297,4.5297,4.5297,4.5297,4.5297,4.5297,4.5297,4.5297,4.5297,4.5194,4.5132,4.5132,4.4591,4.4289,4.4383,4.4318,4.4374,4.465,4.4676,4.477,4.4976,4.5019,4.5019,4.5019,4.5019,4.5042,4.5132,4.5199,4.5322,4.5476,4.5568,4.5586,4.5568,4.5586,4.5586,4.5568,4.5586,4.5586,4.5586,4.5586,4.5586,4.5586,4.5586,4.5586,4.5586,0.0,0.0,0.0,0.0,0.0,0.0,0.0,0.0,0.0,0.0,0.0,0.0,0.0,0.0,0.0,0.0,0.0,4.3697,4.3697,4.3697,4.3697,4.3697,4.3846,4.4005,4.4199,4.4438,4.4682,4.4887,4.5113,4.522,4.522,4.522,4.526,4.5341,4.5341,4.54,4.5528,4.5528,4.5613,4.5723,4.5723,4.5808,4.5933,4.6033,4.6103,0.0,4.6269,4.6295,4.63,4.63,4.63,4.6269,4.6049,4.5929,4.5847,4.5712,4.5637,4.5586,4.5586,4.555,4.5495,4.5438,4.5419,4.5398,4.5338,4.5317,4.5297,4.5297,4.5317,4.5317,4.5297,4.5317,4.5317,4.5297,4.5297,4.5297,4.5297,4.5297,4.5297,4.5297,4.5297,4.5297,4.5297,4.4953,4.472,4.472,4.4617,4.465,4.4957,4.4981,4.5087,4.5297,4.5297,4.5297,4.5297,4.5317,4.5359,4.538,4.5419,4.5476,4.555,4.5586,4.5586,4.5586,4.5586,4.5586,4.5586,4.5586,4.5586,4.5586,4.5586,4.5586,4.5586,4.5586,4.5586,4.5586,0.0,0.0,0.0,0.0,0.0,0.0,0.0,0.0,0.0,0.0,0.0,0.0,0.0,0.0,0.0,0.0,0.0,0.0,4.3214,4.3214,4.3214,4.3214,4.3214,4.3442,4.3955,4.3967,4.427,4.4846,4.487,4.487,4.487,4.4895,4.4991,4.5192,4.5192,4.5258,4.54,4.54,4.5475,4.5596,4.5596,4.5677,4.5808,4.5939,4.6033,4.6123,4.6247,4.6303,4.63,4.63,4.63,4.6273,4.6138,4.5959,4.5814,4.5814,4.5712,4.5603,4.5603,4.5568,4.5495,4.5495,4.5458,4.5399,4.5399,4.5359,4.5317,4.5317,4.5359,4.5398,4.5317,4.5338,4.5359,4.5317,4.5297,4.5297,4.5297,4.5297,4.5297,4.5297,4.5297,4.5297,4.5297,4.5297,4.5297,4.5297,0.0,4.4957,4.5277,4.5297,4.5297,4.5297,4.5297,4.5317,4.5317,4.5359,4.5419,4.5495,4.5495,4.555,4.5586,4.5586,4.5586,4.5586,4.5586,4.5586,4.5586,4.5586,4.5586,4.5586,4.5586,4.5586,4.5586,4.5586,4.5603,4.5603,0.0,0.0,0.0,0.0,0.0,0.0,0.0,0.0,0.0,0.0,0.0,0.0,0.0,0.0,0.0,0.0,0.0,0.0,4.3214,4.3214,4.3214,4.3214,4.3214,4.3286,4.3474,4.3572,4.3767,4.4023,4.4346,4.453,4.4511,4.4777,4.4919,4.4986,4.4986,4.5084,4.5237,4.5237,4.5381,4.5596,4.5596,4.5723,4.5886,4.5978,4.604,4.6124,4.6249,4.63,4.63,4.63,4.6221,4.6144,4.6105,4.6007,4.5875,4.5875,4.5809,4.5742,4.5742,4.5668,4.5568,4.5513,4.5476,4.5457,4.5419,4.54,4.5361,4.5361,4.538,4.5379,4.5378,4.5338,4.5317,4.5297,4.5297,4.5297,4.5297,4.5297,4.5297,4.5297,4.5297,4.5297,4.5297,4.5297,4.5297,4.5297,4.5235,4.5194,4.5297,4.5297,4.5317,4.5359,4.5359,4.536,4.5361,4.54,4.5438,4.5495,4.5495,4.555,4.5586,4.5586,4.5586,4.5586,4.5586,4.5586,4.5586,4.5586,4.5586,4.5586,4.5586,4.5586,4.5586,4.5586,4.5651,4.5742,0.0,0.0,0.0,0.0,0.0,0.0,0.0,0.0,0.0,0.0,0.0,0.0,0.0,0.0,0.0,0.0,0.0,0.0,0.0,4.2786,4.2786,4.2786,4.2786,4.292,4.3142,4.3248,4.3437,4.374,4.4035,4.4184,4.4184,4.4511,4.4681,4.4681,4.4827,4.4943,4.508,4.508,4.5239,0.0,0.0,4.5658,4.5898,4.5969,4.6033,4.6113,4.6226,4.6285,4.63,4.63,4.6245,4.6181,4.6181,4.6098,4.5987,4.5987,4.5919,4.5841,4.5808,4.5742,4.5668,4.5566,4.5513,4.5495,4.5438,4.5419,4.54,4.54,4.54,4.54,4.5418,4.5359,4.5338,4.5297,4.5297,4.5297,4.5297,4.5297,4.5297,4.5297,4.5297,4.5297,4.5297,4.5297,4.5317,4.5338,4.5338,4.5338,4.5338,4.5339,4.536,4.54,4.54,4.54,4.5438,4.5438,4.5476,4.5531,4.5531,4.5568,4.5586,4.5586,4.5586,4.5586,0.0,4.5586,4.5586,4.5586,4.5586,4.5586,4.5586,4.5586,4.5603,4.5668,4.5746,4.5794,0.0,0.0,0.0,0.0,0.0,0.0,0.0,0.0,0.0,0.0,0.0,0.0,0.0,0.0,0.0,0.0,0.0,0.0,0.0,0.0,4.2287,4.2287,4.2287,4.2494,4.2921,4.2977,4.3248,4.3689,4.3786,4.3849,4.3849,4.4213,4.4383,4.4411,4.4751,4.4895,4.4895,4.4895,4.5109,4.54,4.54,4.5626,4.5922,0.0,4.6052,4.6123,4.6198,4.6249,4.63,4.63,4.63,4.63,4.63,4.6216,4.6131,4.6131,4.6041,4.5899,4.5854,4.5835,4.578,4.5665,4.5601,4.5549,4.5549,4.5475,4.5419,4.5419,4.5419,4.54,4.5419,4.5399,4.5379,4.5317,4.5317,4.5317,4.5297,4.5297,4.5297,4.5297,4.5297,4.5297,4.5297,4.5317,4.5338,4.5398,4.5418,4.5399,4.5399,4.54,4.54,4.5419,4.5419,4.5438,4.5513,4.5513,4.5531,4.5586,4.5586,4.5586,4.5586,4.5586,4.5586,4.5586,0.0,0.0,4.5586,4.5586,4.5603,4.5637,4.5637,4.5618,4.5648,4.5766,4.5822,4.5841,0.0,0.0,0.0,0.0,0.0,0.0,0.0,0.0,0.0,0.0,4.0888,4.0918,0.0,0.0,0.0,0.0,0.0,0.0,0.0,0.0,0.0,4.2287,4.2287,4.2409,4.267,4.267,4.2806,4.305,4.3336,4.3508,4.349,4.4106,4.4383,4.4411,4.4751,4.4895,4.4895,4.4895,4.5135,4.5491,4.5491,4.5713,4.6075,4.6084,4.6111,0.0,4.6268,4.6282,4.63,4.63,4.63,4.63,4.63,4.6277,4.6269,4.6269,4.6176,4.6057,4.6041,4.5959,4.5886,4.5844,4.5796,4.5757,4.5757,4.5648,4.5568,4.5568,4.5513,4.5476,4.5476,4.5438,4.54,4.5379,4.5379,4.5359,4.5317,4.5297,4.5297,4.5297,4.5297,4.5297,4.5297,4.5338,4.5398,4.5398,4.5438,4.5457,4.54,4.54,4.5419,4.5495,4.555,4.5568,4.5586,4.5586,4.5586,4.5586,4.5586,4.5586,4.5586,4.5586,4.5586,4.5586,4.5586,0.0,4.5586,4.5586,4.5668,4.5771,4.5771,4.5802,4.5844,4.5867,4.5949,4.6041,0.0,0.0,0.0,0.0,0.0,0.0,0.0,4.0888,4.0888,4.0888,4.0888,4.0888,4.0888,4.1335,4.1604,0.0,0.0,0.0,0.0,0.0,0.0,4.2287,4.2287,4.2328,4.245,4.257,4.2649,4.2747,0.0,4.3249,4.3406,4.3893,4.4242,4.4411,4.4751,4.4895,4.4895,4.4895,4.5068,4.5343,4.5454,4.5699,4.6007,4.6075,4.6144,0.0,4.6246,4.6268,4.6297,4.6306,4.63,4.63,4.63,4.63,4.63,4.63,4.6249,4.6181,4.6112,4.6049,4.5987,4.592,4.5875,4.5835,4.5808,4.5742,4.5684,4.562,4.555,4.5495,4.5495,4.5457,4.54,4.54,4.54,4.54,4.5361,4.5341,4.5341,4.5341,4.5339,4.5359,4.5341,4.5379,4.5419,4.5438,4.5476,4.5495,4.5438,4.5495,4.5513,4.555,4.5586,4.5586,4.5586,4.5586,4.5586,4.5586,4.5586,4.5586,4.5586,4.5586,4.5586,4.5603,4.5668,0.0,4.5715,4.5747,4.5796,4.5859,4.5859,4.5875,4.591,4.5987,4.6049,4.6105,0.0,0.0,0.0,0.0,0.0,0.0,0.0,4.0888,4.0888,4.0888,4.0918,4.0965,4.0965,4.1318,4.1604,0.0,0.0,0.0,0.0,0.0,0.0,0.0,0.0,0.0,4.2369,0.0,0.0,4.267,4.2824,0.0,0.0,0.0,0.0,0.0,4.4751,4.4895,4.4895,4.4938,4.5068,0.0,0.0,4.5713,4.5975,0.0,0.0,0.0,0.0,4.6248,4.6306,4.6295,4.6306,4.63,4.63,4.63,4.63,4.63,4.63,4.6273,4.6176,4.6144,4.6131,4.6005,4.5949,4.5929,4.5879,4.5835,4.5771,4.5668,4.5566,4.5513,4.5513,4.5476,4.5438,4.5419,4.5419,4.5438,4.5438,4.5419,4.54,4.5438,4.5419,4.54,4.54,4.5438,4.5457,4.5495,4.5513,4.5513,4.5513,4.5568,4.5586,4.5586,4.5586,4.5586,4.5586,4.5586,4.5586,4.5586,4.5637,4.5635,4.5635,4.5648,4.5665,4.568,4.578,0.0,0.0,4.5886,4.592,4.594,4.594,4.5969,4.5996,4.6105,4.6144,4.6156,0.0,0.0,0.0,0.0,0.0,0.0,0.0,4.0888,4.0888,4.0888,4.1041,4.1163,4.1163,4.1408,4.1675,0.0,0.0,0.0,0.0,0.0,0.0,0.0,0.0,0.0,0.0,0.0,0.0,4.2882,4.2882,0.0,0.0,0.0,0.0,0.0,0.0,4.4895,4.4895,4.4967,0.0,0.0,0.0,0.0,0.0,0.0,0.0,0.0,0.0,4.6241,4.6307,4.6306,4.6297,4.63,4.63,4.63,4.63,4.63,4.63,4.63,4.6277,4.6277,4.6273,4.6269,4.6176,4.6091,4.6064,4.5936,4.58,4.5786,4.5684,4.5586,4.5586,4.5586,4.5568,4.5495,4.5495,4.5493,4.5571,4.5473,4.5456,4.5571,4.5473,4.54,4.54,4.556,4.561,4.5513,4.5568,4.5586,4.5586,4.5586,4.5586,4.5586,4.5586,4.5586,4.5586,4.5586,4.5586,4.5603,4.5712,4.5786,4.5786,4.584,4.5867,4.5867,4.5878,0.0,0.0,4.5899,4.5978,4.6091,4.6091,4.617,4.6253,4.6284,4.6287,4.629,0.0,0.0,0.0,0.0,0.0,0.0,4.0888,4.0888,4.0918,4.1041,4.1163,4.13,4.1613,4.1719,4.1805,4.1874,0.0,0.0,0.0,0.0,0.0,0.0,0.0,0.0,0.0,0.0,4.2688,4.2842,4.3087,0.0,0.0,0.0,0.0,0.0,0.0,4.4895,4.4895,4.4919,0.0,0.0,0.0,0.0,0.0,0.0,0.0,0.0,0.0,0.0,4.6249,4.6289,4.63,4.63,4.63,4.63,4.63,4.63,4.63,4.63,4.63,4.63,4.63,4.63,4.6269,4.6206,4.6131,4.6052,4.5959,4.5883,4.5835,4.5769,4.5727,4.5747,4.5728,4.5584,4.5635,4.5665,4.5616,4.5547,4.5565,4.5703,4.5642,4.5607,4.5703,4.5777,4.5809,4.5731,4.5764,4.5777,4.5777,4.5737,4.5737,4.5783,4.5777,4.5777,4.5777,4.5777,4.5777,4.5777,4.5828,4.5852,4.5852,4.5878,4.5899,4.591,4.5987,0.0,0.0,4.6105,4.6176,4.6216,4.6225,4.6257,4.6309,4.6297,4.63,4.63,0.0,0.0,0.0,0.0,0.0,4.0888,4.0888,4.0888,4.0965,4.1163,4.1255,4.148,4.1831,4.1977,4.2019,4.2019,4.2187,0.0,0.0,0.0,0.0,0.0,0.0,0.0,0.0,0.0,4.2747,4.2975,4.3249,4.3623,0.0,0.0,4.4584,4.4895,0.0,0.0,0.0,0.0,0.0,0.0,0.0,0.0,0.0,0.0,0.0,0.0,0.0,0.0,0.0,0.0,0.0,4.629,4.6303,4.63,4.63,4.63,4.63,4.63,4.63,4.63,4.63,4.63,4.63,4.6273,4.6181,4.6138,4.6064,4.5987,4.592,4.5897,4.5841,4.5863,4.5844,4.5703,4.5761,4.5815,4.5766,4.5723,4.5752,4.5879,4.5809,4.5803,4.5889,4.5908,4.5919,4.5969,4.592,4.592,4.5969,4.5917,4.5894,4.5899,4.5899,4.5899,4.5899,4.5899,4.5899,4.5899,4.593,4.5969,4.5969,4.5996,4.6013,4.6013,0.0,0.0,0.0,4.6253,4.6303,4.6306,4.6293,4.6295,4.6297,4.6301,4.6303,4.6303,0.0,0.0,0.0,0.0,0.0,0.0,4.0888,4.0888,4.0965,4.1163,4.1408,4.1675,4.1892,4.2145,4.2287,4.2287,4.2287,0.0,0.0,0.0,0.0,0.0,0.0,0.0,0.0,0.0,4.3013,4.3406,4.3406,4.3735,4.4383,4.4402,4.4584,4.4895,0.0,0.0,0.0,0.0,0.0,0.0,0.0,0.0,0.0,0.0,0.0,0.0,0.0,0.0,0.0,0.0,0.0,0.0,0.0,4.63,4.63,4.63,4.63,4.63,4.63,4.63,4.63,4.63,4.63,4.63,4.63,4.6206,4.6098,4.6098,4.5996,4.5899,4.5899,4.5899,4.5899,4.5899,4.5899,4.594,4.6084,4.5987,4.5959,4.6091,4.5987,4.5899,4.5899,4.5899,4.5969,4.6091,4.5959,0.0,4.6098,4.6098,4.6041,4.591,4.5899,4.5899,4.5899,4.5899,4.5899,4.5899,4.6021,4.6098,4.6098,4.624,4.63,0.0,0.0,0.0,0.0,4.6309,4.6293,4.6293,4.63,4.6301,4.6301,4.6306,4.6307,4.6307,0.0,0.0,0.0,0.0,0.0,0.0,0.0,4.0888,4.0965,4.1163,4.1453,4.1692,4.1892,4.2145,4.2287,4.2287,4.2287,0.0,0.0,0.0,0.0,0.0,0.0,0.0,0.0,0.0,4.3013,4.3406,4.3623,4.3974,4.443,4.4636,4.4802,4.4895,4.4895,4.4895,0.0,0.0,0.0,0.0,0.0,0.0,4.6196,0.0,0.0,0.0,0.0,0.0,0.0,0.0,0.0,0.0,0.0,0.0,0.0,4.63,4.63,4.63,4.63,4.63,4.63,4.63,4.63,4.63,4.63,4.6273,4.624,4.624,4.6206,4.6144,4.6057,4.6105,4.6105,4.593,4.5978,4.6013,4.5978,4.592,4.594,4.6072,4.6144,4.6176,4.6176,4.6176,4.6181,4.6221,4.6206,4.6187,4.6221,4.624,4.6216,4.6176,4.6176,4.6176,4.6176,4.6176,4.6176,4.6176,4.6216,4.624,4.624,4.6277,0.0,0.0,0.0,0.0,0.0,4.6293,4.6295,4.63,4.6305,4.6306,4.6306,4.6308,4.6308,4.6308,0.0,0.0,0.0,0.0,0.0,0.0,0.0,4.0888,4.1012,4.1318,4.1498,4.1736,4.2019,4.2205,4.2287,4.2287,4.2287,0.0,0.0,0.0,0.0,0.0,0.0,0.0,4.2842,4.2975,4.3232,4.359,4.3924,4.427,4.4584,4.4802,4.4895,4.4895,4.4895,4.4895,0.0,0.0,0.0,0.0,0.0,0.0,4.6196,0.0,0.0,0.0,0.0,0.0,0.0,0.0,0.0,0.0,0.0,0.0,0.0,0.0,4.63,4.63,4.63,4.63,4.63,4.63,4.63,4.63,4.63,4.63,4.63,4.63,4.63,4.6273,4.6181,4.6245,4.6245,4.6084,4.6112,4.6144,4.6057,4.6049,4.6091,4.617,4.6245,4.63,4.63,4.63,4.63,4.63,4.63,0.0,4.63,4.63,4.63,4.63,4.63,4.63,4.63,4.63,4.63,4.63,4.63,4.63,4.63,4.63,0.0,0.0,0.0,0.0,0.0,4.6297,4.6301,4.6305,4.6307,4.6308,4.6308,4.6308,4.6308,4.6308,0.0,0.0,0.0,0.0,0.0,0.0,0.0,4.0918,4.1059,4.156,4.1604,4.178,4.2246,4.2287,4.2287,4.2287,0.0,0.0,0.0,0.0,0.0,0.0,0.0,0.0,4.292,4.3249,4.359,4.3943,4.4242,4.4584,4.4895,4.4895,4.4895,4.4895,4.4895,4.4919,0.0,0.0,0.0,0.0,0.0,0.0,0.0,0.0,0.0,0.0,0.0,0.0,0.0,0.0,0.0,0.0,0.0,0.0,0.0,0.0,0.0,0.0,0.0,4.63,4.63,4.63,4.63,4.63,4.63,4.63,0.0,4.63,4.63,4.63,4.63,4.63,4.63,4.63,4.63,4.63,4.63,4.63,4.63,4.63,4.63,4.63,4.63,4.63,4.63,4.63,4.63,0.0,4.63,4.63,4.63,4.63,4.63,4.63,4.63,4.63,4.63,4.63,4.63,4.63,4.63,4.63,0.0,0.0,0.0,0.0,0.0,4.6305,4.6307,4.6307,4.6308,4.6308,4.6308,4.6308,4.6308,4.6308,0.0,0.0,0.0,0.0,0.0,0.0,0.0,0.0,0.0,0.0,4.1719,4.1892,4.1977,4.2205,4.2287,0.0,0.0,0.0,0.0,0.0,0.0,0.0,0.0,0.0,4.3284,4.3371,4.3689,4.427,4.4355,4.4584,4.4895,4.4895,4.4895,4.4895,4.4943,4.514,0.0,0.0,0.0,0.0,0.0,0.0,0.0,0.0,0.0,0.0,4.6196,4.6196,0.0,0.0,0.0,0.0,0.0,0.0,0.0,0.0,4.63,4.63,4.63,0.0,4.63,4.63,4.63,4.63,0.0,4.63,4.63,4.63,4.63,4.63,4.63,4.63,4.63,4.63,4.63,4.63,4.63,4.63,4.63,4.63,4.63,4.63,4.63,4.63,4.63,4.63,4.63,4.63,4.63,4.63,4.63,4.63,4.63,4.63,4.63,4.63,4.63,4.63,4.63,4.63,4.63,4.63,0.0,0.0,0.0,0.0,4.6305,4.6307,4.6307,4.6308,4.6308,4.6308,4.6308,4.6308,4.6308,4.6308,0.0,0.0,0.0,0.0,0.0,0.0,0.0,0.0,0.0,0.0,0.0,0.0,0.0,0.0,0.0,0.0,0.0,0.0,0.0,0.0,0.0,0.0,0.0,4.3032,4.3406,4.3557,4.3862,4.4383,4.4538,4.4707,4.4895,4.4895,4.4895,4.4895,4.4919,4.5182,0.0,0.0,0.0,0.0,4.6189,0.0,0.0,0.0,0.0,0.0,4.6196,4.6196,0.0,4.6189,4.6206,4.6215,0.0,0.0,0.0,0.0,4.63,4.63,4.63,4.63,4.63,4.63,4.63,4.63,4.63,4.63,4.63,4.63,4.63,4.63,4.63,4.629,4.6293,4.6303,4.629,4.6293,4.6303,4.63,4.63,4.63,4.63,4.63,0.0,4.63,4.63,4.63,0.0,4.63,4.63,4.63,4.63,4.63,4.63,4.63,4.63,4.63,4.63,4.63,4.63,4.6303,4.6306,4.6306,4.629,0.0,0.0,0.0,4.6307,4.6307,4.6308,4.6308,4.6308,4.6308,4.6308,4.6308,4.6308,4.6308,0.0,0.0,0.0,0.0,0.0,0.0,0.0,0.0,0.0,0.0,0.0,0.0,0.0,0.0,0.0,0.0,0.0,0.0,0.0,0.0,0.0,0.0,4.2938,4.3142,4.3456,4.3818,4.4154,4.4484,4.4777,4.4895,4.4895,4.4895,4.4914,4.4938,4.4938,4.5178,0.0,0.0,0.0,0.0,4.6154,0.0,0.0,0.0,0.0,0.0,0.0,0.0,0.0,4.6181,4.6183,4.6186,4.6173,0.0,0.0,0.0,0.0,0.0,4.6273,4.6273,4.629,4.6303,4.63,4.63,4.63,4.63,4.63,4.63,4.63,4.6303,4.6306,4.6297,4.6301,4.6309,4.63,4.6301,4.6303,4.63,4.63,4.63,4.63,4.63,4.63,4.63,4.63,4.63,0.0,4.63,4.63,4.63,4.63,4.63,4.63,4.63,4.63,4.63,4.63,4.63,4.6303,4.6306,4.6293,4.6295,4.6297,0.0,0.0,0.0,4.6307,4.6308,4.6308,4.6308,4.6308,4.6308,4.6308,4.6308,4.6308,4.6308,0.0,0.0,0.0,0.0,0.0,0.0,0.0,0.0,0.0,0.0,0.0,0.0,0.0,0.0,0.0,0.0,0.0,0.0,0.0,0.0,0.0,4.3266,4.3301,4.3456,4.3818,4.4154,4.4484,4.4827,4.487,4.4895,4.4895,4.4895,4.4919,4.4967,4.4967,4.522,4.5596,4.5613,0.0,0.0,4.6102,0.0,0.0,0.0,0.0,0.0,0.0,0.0,0.0,4.6075,4.606,4.6117,4.6123,0.0,0.0,0.0,0.0,0.0,4.6229,4.6229,4.623,4.6293,4.63,4.63,4.63,4.63,4.63,4.63,4.63,4.6306,4.6303,4.6297,4.6293,4.6303,4.6297,4.6306,4.63,4.63,4.63,4.63,4.63,4.63,4.63,4.63,4.63,4.63,0.0,4.63,4.63,4.63,4.63,4.63,4.63,4.63,4.63,4.63,4.63,4.63,4.6306,4.6293,4.6293,4.6297,4.6303,0.0,0.0,4.6307,4.6308,4.6308,4.6308,4.6308,4.6308,4.6308,4.6308,4.6308,4.6308,4.6308,0.0,0.0,0.0,0.0,0.0,0.0,0.0,0.0,0.0,0.0,0.0,0.0,0.0,0.0,0.0,0.0,0.0,0.0,0.0,0.0,4.3032,4.3371,4.3557,4.3849,4.4154,4.4327,4.4557,4.4895,4.4895,4.4895,4.4895,4.4895,4.4938,4.501,4.4943,4.5175,4.5547,4.5563,4.5733,0.0,0.0,0.0,0.0,0.0,0.0,0.0,0.0,0.0,0.0,0.0,4.6046,4.6052,4.6052,0.0,0.0,0.0,0.0,0.0,4.6182,4.6161,4.6141,4.6171,4.6211,4.6249,4.6249,4.6249,4.6268,4.628,4.63,4.6301,4.6306,4.6268,4.625,4.6243,4.6249,4.6249,4.6249,4.6249,4.6249,4.6249,0.0,4.6249,4.6249,4.6249,4.6249,0.0,0.0,0.0,4.63,4.6309,4.63,4.63,4.63,4.6303,4.6306,4.6306,4.6306,4.6306,4.6293,4.6297,4.6301,4.6305,4.6307,4.6308,0.0,4.6308,4.6308,4.6308,4.6308,4.6308,4.6308,4.6308,4.6308,4.6308,4.6287,4.63,0.0,0.0,0.0,0.0,0.0,0.0,0.0,0.0,0.0,0.0,0.0,0.0,0.0,0.0,0.0,0.0,0.0,0.0,0.0,4.2862,4.3087,4.349,4.3754,4.4065,4.4383,4.4484,4.4636,4.4895,4.4895,4.4895,4.4895,4.4895,4.4919,4.4967,4.4919,4.5109,4.5495,4.5493,4.5642,0.0,0.0,0.0,0.0,0.0,0.0,0.0,0.0,0.0,0.0,0.0,0.0,0.0,0.0,0.0,0.0,4.6053,4.6075,4.6099,4.616,4.6132,4.6075,4.6128,4.6144,4.6175,4.6175,4.6175,4.618,4.6249,4.625,4.625,4.6249,4.6204,4.617,4.6199,4.6195,4.6204,4.6204,4.6204,4.6204,4.6204,4.6204,4.6204,4.6204,4.6204,0.0,0.0,0.0,0.0,4.6289,4.6284,4.6278,4.6243,4.6243,4.6245,4.6248,4.6248,4.6265,4.6295,4.6297,4.6301,4.6307,4.6307,4.6308,4.6308,4.6308,4.6308,4.6308,4.6308,4.6308,4.6308,4.6308,4.6289,4.6287,4.6287,4.6239,4.6303,0.0,0.0,0.0,0.0,0.0,0.0,0.0,0.0,0.0,0.0,0.0,0.0,0.0,0.0,0.0,0.0,0.0,0.0,0.0,4.29,4.3178,4.3849,4.3881,4.4065,4.4383,4.4707,4.487,4.4895,4.4895,4.4895,4.4895,4.4895,4.4895,4.4895,4.4895,4.5087,4.5419,4.5419,4.5594,4.5886,4.5917,0.0,0.0,0.0,0.0,0.0,0.0,0.0,0.0,0.0,0.0,0.0,0.0,0.0,4.5922,4.5988,4.6008,4.6018,4.6083,4.6065,4.6047,4.6169,4.615,4.6114,4.6114,4.6114,4.6104,4.6105,4.6111,4.6101,4.6108,4.6117,4.6133,4.6198,4.6204,4.6204,4.6204,4.6204,4.6204,4.6204,4.6204,4.6204,4.6204,4.6204,0.0,0.0,0.0,0.0,4.6205,4.6205,4.6184,4.6114,4.6111,4.6105,4.6104,4.6104,4.6178,4.6301,4.6305,4.6307,4.6307,4.6308,4.6308,4.6308,4.6308,4.6308,4.6308,4.6308,4.6308,4.6308,4.6308,4.6265,4.6206,4.6206,4.6162,4.6222,0.0,0.0,0.0,0.0,0.0,0.0,0.0,0.0,0.0,0.0,0.0,0.0,0.0,0.0,0.0,0.0,0.0,0.0,0.0,4.3213,4.3523,4.4184,4.4213,4.4374,4.4707,4.4846,4.4895,4.4895,4.4895,4.4895,4.4895,4.4895,4.4895,4.4895,4.4895,4.5087,4.54,4.54,4.558,4.5841,4.5841,0.0,0.0,0.0,0.0,0.0,0.0,0.0,0.0,0.0,4.5835,4.5841,4.5841,4.5841,4.5835,4.5929,4.5941,4.5964,4.6017,4.5986,4.5953,4.5997,4.5958,4.5959,4.6068,4.6103,4.6091,4.604,4.6047,4.604,4.604,4.6105,4.6151,4.6144,4.6162,4.6192,4.6192,4.6192,4.6192,4.6192,4.6192,4.6192,4.6192,0.0,0.0,0.0,0.0,0.0,4.6147,4.6175,4.6175,4.6104,4.6097,4.6093,4.6098,4.6098,4.6133,4.6179,4.6183,4.6179,4.6175,4.6191,4.6186,4.6186,4.6186,4.6186,4.6186,4.6186,4.6186,4.6186,4.6186,4.6158,4.6137,4.6137,4.6403,4.6912,0.0,0.0,0.0,0.0,0.0,0.0,0.0,0.0,0.0,0.0,0.0,0.0,0.0,0.0,0.0,0.0,0.0,0.0,4.3371,4.3406,4.3703,4.4355,4.4383,4.4557,4.4895,4.4895,4.4895,4.4895,4.4895,4.4895,4.4895,4.4895,4.4895,4.4895,4.4967,4.5132,4.54,4.5457,4.5596,4.58,4.58,4.58,0.0,0.0,0.0,0.0,0.0,0.0,0.0,0.0,4.5841,4.58,4.58,4.58,4.5814,4.5848,4.588,4.5873,4.5953,4.5929,4.5893,4.591,4.5873,4.588,4.6007,4.6017,4.5998,4.5969,4.5978,4.5987,4.6013,4.608,4.6138,4.6138,4.6162,4.6196,4.6196,4.6196,4.6196,4.6196,4.6196,4.6196,4.6196,0.0,0.0,0.0,0.0,0.0,0.0,4.6103,4.6103,4.6045,4.6034,4.602,4.6005,4.6005,4.6016,4.6017,4.6016,4.6041,4.6098,4.6098,4.6098,4.6098,4.6098,4.6098,4.6098,4.6098,4.6098,4.6098,4.6098,4.6084,4.606,4.606,4.6542,4.7299,0.0,0.0,0.0,0.0,0.0,0.0,0.0,0.0,0.0,0.0,0.0,0.0,0.0,0.0,0.0,0.0,0.0,0.0,4.3406,4.3406,4.3703,4.4374,4.443,4.4557,4.4895,4.4895,4.4895,4.4895,4.4895,4.4895,4.4895,4.4895,4.4895,4.4895,4.5125,4.5279,4.5419,4.5545,4.5677,4.58,4.58,4.58,4.58,0.0,0.0,0.0,0.0,0.0,0.0,0.0,4.58,4.58,4.58,4.58,4.58,4.58,4.58,4.5808,4.5873,4.5854,4.5822,4.5956,4.5953,4.5905,4.5905,4.5854,4.5827,4.5893,4.5905,4.5953,4.6075,4.6037,4.6037,4.6181,4.6196,4.6196,4.6196,4.6196,4.6196,4.6196,4.6196,4.6196,4.6196,0.0,0.0,0.0,0.0,0.0,0.0,4.5997,4.5975,4.5886,4.5905,4.588,4.58,4.58,4.58,4.58,4.58,4.5902,4.6098,4.6098,4.6098,4.6098,4.6098,4.6098,4.6098,4.6098,4.6098,4.6098,4.6098,4.6063,4.5997,4.6016,4.648,4.7231,0.0,0.0,0.0,0.0,0.0,0.0,0.0,0.0,0.0,0.0,0.0,0.0,0.0,0.0,0.0,0.0,0.0,0.0,4.4146,4.4175,4.4355,4.4732,4.4802,4.4852,4.4895,4.4895,4.4895,4.4895,4.4895,4.4895,4.4895,4.4895,4.4986,4.5125,4.517,4.5341,4.5545,4.558,4.5677,4.58,4.58,4.58,4.58,0.0,0.0,0.0,0.0,0.0,0.0,0.0,0.0,0.0,4.58,4.58,4.58,4.58,4.58,4.5794,4.5808,4.5827,4.5814,4.5854,4.5835,4.5841,4.5841,4.5835,4.5848,4.5841,4.588,4.5905,4.5886,4.5953,4.6007,4.6047,4.6093,4.6146,4.6196,4.6196,4.6196,4.6196,4.6196,4.6189,0.0,0.0,0.0,0.0,0.0,0.0,0.0,4.5975,4.5953,4.5822,4.588,4.588,4.58,4.58,4.58,4.58,4.58,4.5835,4.5891,4.5891,4.5891,4.5891,4.5891,4.5891,4.5891,4.5891,4.5891,4.5891,4.5891,4.5886,4.5925,4.6545,4.7293,4.814,0.0,0.0,0.0,0.0,0.0,0.0,0.0,0.0,0.0,0.0,4.3493,4.3575,0.0,0.0,0.0,0.0,0.0,0.0,0.0,4.4546,4.4669,4.4967,4.4991,4.4967,4.4895,4.4895,4.4895,4.4895,4.4895,4.4895,4.4895,4.4895,4.501,4.5192,4.5277,4.54,4.5613,4.5661,4.5723,4.58,4.58,4.58,4.58,0.0,0.0,0.0,0.0,0.0,0.0,0.0,0.0,0.0,4.58,4.58,4.58,4.58,4.58,4.58,4.58,4.58,4.58,4.58,4.58,4.58,4.58,4.5841,4.5854,4.5814,4.5822,4.5867,4.5835,4.5917,4.5975,4.5997,4.6027,4.6075,4.6111,4.6111,4.6111,4.6111,4.6111,4.6102,0.0,0.0,0.0,0.0,0.0,0.0,0.0,4.5905,4.5873,4.5814,4.5841,4.5854,4.58,4.58,4.58,4.58,4.58,4.58,4.58,4.58,4.58,4.58,4.58,4.58,4.58,4.58,4.58,4.58,4.58,4.58,4.5896,4.6786,4.7657,4.8527,0.0,0.0,0.0,0.0,0.0,0.0,0.0,0.0,0.0,0.0,4.3955,4.4117,0.0,0.0,0.0,0.0,0.0,0.0,0.0,4.465,4.477,4.5103,4.5033,4.4967,4.4895,4.4895,4.4895,4.4895,4.4895,4.4895,4.4895,4.4919,4.5014,4.5235,4.5361,4.5493,4.5629,4.5737,4.58,4.58,4.58,4.58,4.58,4.58,0.0,0.0,0.0,0.0,0.0,0.0,0.0,0.0,4.58,4.58,4.58,4.58,4.58,4.58,4.58,4.58,4.58,4.58,4.58,4.58,4.58,4.58,4.58,4.58,4.58,4.5827,4.5893,4.5886,4.5898,4.5986,4.5997,4.5997,4.5997,4.5997,4.5997,4.5997,4.5997,4.5997,0.0,0.0,0.0,0.0,0.0,0.0,0.0,4.58,4.58,4.58,4.58,4.58,4.58,4.58,4.58,4.58,4.58,4.58,4.58,4.58,4.58,4.58,4.58,4.58,4.58,4.58,4.58,4.58,4.58,4.5838,4.6013,4.6902,4.7773,4.8643,0.0,0.0,0.0,0.0,0.0,0.0,0.0,0.0,0.0,0.0,0.0,0.0,0.0,0.0,0.0,0.0,0.0,0.0,0.0,4.5065,4.5084,4.5103,4.5033,4.4991,4.4967,4.4919,4.4895,4.4895,4.4895,4.4895,4.4895,4.5061,4.5216,4.5361,4.5493,4.5629,4.5771,4.58,4.58,4.58,4.58,4.58,4.58,4.58,4.58,0.0,0.0,0.0,0.0,0.0,0.0,0.0,4.58,4.58,4.58,4.58,4.58,4.58,4.58,4.58,4.58,4.58,4.58,4.58,4.58,4.58,4.58,4.58,4.58,4.5794,4.5827,4.5827,4.5835,4.5898,4.591,4.5953,4.5997,4.5997,4.5997,4.5997,4.5997,0.0,0.0,0.0,0.0,0.0,0.0,0.0,4.58,4.58,4.58,4.58,4.58,4.58,4.58,4.58,4.58,0.0,4.58,4.58,4.58,4.58,4.58,4.58,4.58,4.58,4.58,4.58,4.58,4.58,4.58,4.6206,4.6922,4.7792,4.8662,4.9533,0.0,0.0,0.0,0.0,0.0,0.0,0.0,0.0,0.0,0.0,0.0,0.0,0.0,0.0,0.0,0.0,0.0,0.0,0.0,0.0,4.5213,4.5148,4.5125,4.508,4.4991,4.4986,4.4919,4.4895,4.4895,4.4895,4.4895,4.5103,4.5258,4.5419,4.5545,4.5677,4.58,4.58,4.58,4.58,4.58,4.58,4.58,4.58,4.58,4.58,4.58,0.0,0.0,0.0,0.0,0.0,0.0,0.0,4.58,4.58,4.58,4.58,4.58,4.58,4.58,4.58,4.58,4.58,4.58,4.58,4.58,4.58,4.58,4.58,4.58,4.58,4.5814,4.5854,4.5848,4.5848,4.5905,4.5898,4.5898,4.5898,4.5898,0.0,0.0,0.0,0.0,0.0,0.0,4.58,4.58,4.58,4.58,4.58,4.58,4.58,4.58,4.58,4.58,4.58,4.58,4.58,4.58,4.58,4.58,4.58,4.58,4.58,4.58,4.58,4.58,4.58,4.58,4.6322,4.7212,4.8082,4.8952,4.9823,0.0,0.0,0.0,0.0,0.0,0.0,0.0,0.0,0.0,0.0,0.0,0.0,0.0,0.0,0.0,0.0,0.0,0.0,0.0,0.0,0.0,4.5213,4.5192,4.5125,4.5014,4.4991,4.4962,4.4895,4.4919,4.4943,4.4962,4.5148,4.532,4.5438,4.558,4.5692,4.58,4.58,4.58,4.58,4.58,4.58,4.58,4.58,4.58,4.58,4.58,4.58,4.58,4.58,0.0,0.0,0.0,0.0,4.58,4.58,4.58,4.58,4.58,4.5766,4.5752,4.5737,4.5723,4.5723,4.5723,4.5723,4.5723,4.5723,4.5771,4.58,4.58,4.58,4.58,4.58,4.58,4.58,4.58,4.58,4.58,4.58,4.58,0.0,0.0,0.0,0.0,0.0,0.0,4.58,4.58,4.58,4.58,4.58,4.58,4.58,4.58,4.58,4.58,4.58,4.58,4.58,4.58,4.58,4.58,4.58,4.58,4.58,4.58,4.58,4.58,4.58,4.5974,4.6554,4.7424,4.8295,4.9165,4.9997,0.0,0.0,0.0,0.0,0.0,0.0,0.0,0.0,0.0,0.0,4.5201,4.5263,0.0,0.0,0.0,0.0,0.0,0.0,4.5297,0.0,0.0,4.5297,4.517,4.5084,4.5103,4.4967,4.4895,4.4895,4.5061,4.517,4.517,4.532,4.5438,4.558,4.5708,4.5766,4.58,4.58,4.58,4.58,4.58,4.5805,4.5795,4.5786,4.5805,4.5795,4.58,4.58,4.58,4.58,4.58,0.0,0.0,0.0,4.58,4.58,4.58,4.58,4.58,4.5708,4.5596,4.5475,4.5438,4.5438,4.5438,4.5438,4.5438,4.5438,4.5645,4.58,4.58,4.58,4.58,4.58,4.58,4.58,4.58,4.58,4.58,4.58,4.58,0.0,0.0,0.0,0.0,0.0,4.58,4.58,4.58,4.58,4.58,4.58,4.58,4.58,4.58,4.58,4.58,4.58,4.58,4.58,4.58,4.58,4.58,4.58,4.58,4.58,4.58,4.58,4.58,4.5877,4.6631,4.7463,4.8333,4.9204,5.0035,5.077,0.0,0.0,0.0,0.0,0.0,0.0,0.0,0.0,0.0,0.0,0.0,4.5495,0.0,0.0,0.0,4.54,4.5399,4.5359,4.5297,4.5297,4.5297,4.5297,4.5235,4.517,4.5103,4.5038,4.5014,4.508,4.5148,4.5279,4.5438,4.5475,4.5545,4.5613,4.5737,4.58,4.58,4.58,4.58,4.58,4.5805,4.5795,4.58,4.5761,4.5746,4.5731,4.5727,4.5742,4.5742,4.5791,4.5791,4.5791,4.58,0.0,0.0,0.0,4.58,4.5766,4.5708,4.5596,4.5475,4.54,4.54,4.54,4.54,4.54,4.54,4.54,4.5493,4.558,4.558,4.558,4.558,4.558,4.558,4.558,4.558,4.558,4.5613,4.5677,4.5692,0.0,0.0,0.0,0.0,0.0,4.58,4.58,4.58,4.58,4.58,4.58,4.58,4.58,4.58,4.58,4.58,4.58,4.58,4.58,4.58,4.58,4.58,4.58,4.58,4.58,4.58,4.58,4.58,4.5877,4.6748,4.7637,4.8508,4.9378,5.021,5.0906,0.0,0.0,0.0,0.0,0.0,0.0,0.0,0.0,0.0,0.0,0.0,0.0,0.0,0.0,0.0,0.0,4.54,4.5379,4.5297,4.5297,4.5297,4.5297,4.5297,4.5213,4.5103,4.508,4.5125,4.5192,4.5216,4.5361,4.5596,4.5629,4.5645,4.5661,4.5771,4.58,4.58,4.58,4.58,4.5786,4.5731,4.5684,4.5668,4.5543,4.5509,4.5509,4.558,4.5543,4.5526,4.5715,4.5731,4.568,4.5757,4.5723,0.0,0.0,0.0,4.5539,4.5399,4.5304,4.5222,4.522,4.522,4.522,4.5281,4.5262,4.5262,4.5262,4.5262,4.5262,4.5262,4.5322,4.54,4.54,4.54,4.54,4.54,4.54,4.5438,4.558,4.5596,0.0,0.0,0.0,0.0,0.0,4.58,4.58,4.58,4.58,4.58,4.58,4.58,4.58,4.58,4.58,4.58,4.58,4.58,4.58,4.58,4.5752,4.5737,4.5737,4.5786,4.58,4.58,4.58,4.58,4.5896,4.6999,4.7831,4.8527,4.961,5.0384,5.0906,0.0,0.0,0.0,0.0,0.0,0.0,0.0,0.0,0.0,0.0,0.0,0.0,4.5603,4.5586,4.5531,4.5419,4.54,4.538,4.5317,4.5297,4.5297,4.5297,4.5235,0.0,4.5103,4.5057,4.508,4.5192,4.5341,4.5456,4.5596,4.5723,4.58,4.58,4.58,4.58,4.58,4.58,4.5805,4.5781,4.5507,4.5381,4.5303,4.5039,4.495,4.4966,4.5226,4.5147,4.5023,4.5543,4.5543,4.538,4.5613,4.5543,4.5323,0.0,0.0,0.0,4.4781,4.4726,4.472,4.4745,4.4745,4.477,4.4895,4.4919,4.4919,4.4919,4.4919,4.4919,4.4919,4.5197,4.54,4.54,4.54,4.54,4.54,4.54,4.5438,4.558,4.5596,0.0,0.0,0.0,0.0,0.0,4.58,4.58,4.58,4.58,4.58,4.58,4.58,4.58,4.58,4.58,4.58,4.58,4.58,4.58,4.58,4.5661,4.5613,4.5613,4.5737,4.58,4.58,4.58,4.58,4.5974,4.7676,4.8353,4.8604,5.0229,5.0867,5.0906,0.0,0.0,0.0,0.0,0.0,0.0,0.0,0.0,0.0,0.0,0.0,0.0,0.0,4.5684,4.568,4.5599,4.5591,4.5587,4.5555,4.5473,4.5438,4.5438,4.5279,4.517,4.5103,4.5109,4.5178,4.5341,4.5456,4.5596,4.5723,4.5786,4.58,4.58,4.58,4.58,4.58,4.58,4.5805,4.5765,4.5472,4.5304,4.5263,4.4947,4.4849,4.4849,4.4947,4.5014,4.5142,4.5362,4.5381,4.5323,4.5399,4.5246,4.5044,4.5044,4.4909,4.4757,4.4701,4.4636,4.4587,4.4578,4.4632,4.4712,4.4745,4.4821,4.4895,4.4895,4.4895,4.4895,4.4895,4.5014,4.5087,4.5087,4.5087,4.5087,4.5087,4.5087,4.5154,4.5321,4.5341,0.0,0.0,0.0,0.0,0.0,0.0,4.5545,4.5545,4.5545,4.5545,4.5545,4.5545,4.5545,4.5545,4.5545,4.5545,4.5545,4.5545,4.5545,4.5545,4.5493,4.5475,4.5475,4.5528,4.5545,4.5545,4.5545,4.5853,4.6432,4.7624,4.8432,4.9067,5.0314,5.07,5.0606,0.0,0.0,0.0,0.0,0.0,0.0,0.0,0.0,0.0,4.5815,0.0,0.0,0.0,0.0,4.5815,4.5733,4.5708,4.5703,4.5703,4.5634,4.5571,4.5571,4.5438,4.5341,4.5281,4.5282,4.5362,4.5456,4.5563,4.5661,4.58,4.58,4.58,4.58,4.58,4.58,4.58,4.5786,4.5791,4.5731,4.5323,4.5163,4.5096,4.4676,4.4519,4.4546,4.4624,4.4726,4.4825,4.5052,0.0,4.5011,4.5101,4.4931,4.47,4.46,4.4508,4.4457,4.4457,4.4383,4.4354,4.443,4.4496,4.4578,4.4632,4.4712,4.4789,4.4821,4.4821,4.4846,4.4895,4.4895,4.4895,4.4895,4.4895,4.4895,4.4895,4.4895,4.4967,4.517,4.5192,0.0,0.0,0.0,0.0,0.0,0.0,0.0,4.54,4.54,4.54,4.54,4.54,4.54,4.54,4.54,4.54,4.54,4.54,4.54,4.54,4.5341,4.5321,4.5321,4.526,4.5301,4.54,4.54,4.5879,4.6704,4.7567,4.8429,4.9311,5.0259,5.0527,5.0425,0.0,0.0,0.0,0.0,0.0,0.0,0.0,0.0,4.6084,4.6005,0.0,0.0,0.0,0.0,0.0,4.5832,4.5738,4.5717,4.5717,4.5717,4.5717,4.5703,4.5688,4.5665,4.5596,4.553,4.553,4.5596,4.5613,4.5677,4.58,4.58,4.58,4.58,4.58,4.58,4.58,4.581,4.5765,4.5648,4.512,4.4849,4.4726,4.4192,4.4005,4.4017,4.4289,4.4221,0.0,4.4599,0.0,0.0,4.4701,4.4599,4.4346,4.4079,4.4005,4.4005,0.0,0.0,0.0,4.4237,4.4285,4.4344,4.4458,4.4515,4.4542,4.4659,4.4693,4.4719,4.487,4.487,4.487,4.487,4.4895,4.4895,4.4895,4.4895,4.4967,4.517,4.5192,0.0,0.0,0.0,0.0,0.0,4.54,4.54,4.54,4.54,4.54,4.54,4.54,4.54,4.54,4.54,4.54,4.54,4.54,4.54,4.5381,4.5237,4.5192,4.517,4.4967,4.5087,4.5381,4.5362,4.586,4.6703,4.7546,4.8428,4.9329,5.0095,5.0383,5.0383,0.0,0.0,0.0,0.0,0.0,4.6105,4.6098,4.6111,4.6088,0.0,0.0,0.0,4.591,4.5998,4.6063,4.6091,4.608,4.6065,4.6065,4.5977,4.5891,4.5841,4.5708,4.5599,4.553,4.5565,4.558,4.5596,4.5692,4.5752,4.58,4.58,4.58,4.58,4.58,4.5805,4.5795,4.5795,4.5765,4.5648,4.512,4.4849,4.4726,4.4192,4.4005,4.4005,4.406,4.421,4.4318,0.0,4.4465,4.4374,4.425,4.4181,4.4109,4.4017,4.4005,4.4005,4.4005,0.0,0.0,0.0,0.0,0.0,4.4344,4.443,4.4515,4.457,4.457,4.4551,4.4605,4.4605,4.4605,4.4605,4.477,4.4895,4.4895,4.4895,4.4919,4.4986,4.4967,0.0,0.0,0.0,0.0,0.0,4.5042,4.5042,4.5042,4.5042,4.5042,4.5042,4.5042,4.5042,4.5042,4.5042,4.5042,4.5042,4.5042,4.5042,4.5042,4.4991,4.4967,4.4967,4.4919,4.4895,4.49,4.4995,4.5898,4.7186,4.7438,4.8427,4.974,5.0116,5.0095,4.9914,0.0,0.0,0.0,0.0,0.0,4.6179,4.6175,4.6186,4.6177,0.0,0.0,0.0,4.6064,4.613,4.6196,4.6206,4.6203,4.6203,4.6196,4.613,4.6075,4.6017,4.5873,4.5747,4.5708,4.5692,4.5677,4.5677,4.5752,4.58,4.58,4.58,4.58,4.58,4.58,4.5805,4.58,4.5765,4.5735,4.5651,4.5096,4.4825,4.4726,4.4192,4.4005,4.4005,0.0,0.0,4.4221,4.4221,4.4221,0.0,0.0,4.4005,4.4005,4.4005,4.4005,4.4005,4.4005,4.4005,4.4005,4.4005,0.0,0.0,4.4177,4.4237,4.4325,4.4401,4.443,4.443,4.4487,4.4515,4.4515,4.4515,4.4632,4.4745,4.4815,4.487,4.4895,4.4895,4.4895,0.0,0.0,4.4895,4.4895,4.4895,4.4895,4.4895,4.4895,4.4895,4.4895,4.4895,4.4895,4.4895,4.4895,4.4895,4.4895,4.4895,4.4895,4.487,4.484,4.484,4.4789,4.4719,4.4719,4.4685,4.4632,4.4712,4.57,4.7192,4.7192,4.8211,4.9712,4.9833,4.9722,4.9585,0.0,0.0,4.6267,4.628,4.6284,4.6287,4.6308,4.6308,4.6308,0.0,4.6301,4.6295,4.6303,4.6296,4.6264,4.6211,4.6201,4.6203,4.6203,4.6196,4.6196,4.6189,4.6047,4.5997,4.5986,4.5848,4.58,4.58,4.58,4.58,4.58,4.58,4.58,4.58,4.58,4.5791,4.5765,4.5735,4.5687,4.5605,4.503,4.4776,4.4701,4.421,4.4005,4.4005,4.4005,4.4005,4.4005,4.4005,4.4005,0.0,0.0,0.0,0.0,4.4005,4.4005,4.4005,4.4005,4.4005,4.4005,4.4005,4.4005,0.0,4.4005,4.4005,4.4036,4.4226,4.4255,4.4314,4.4411,4.444,4.444,4.444,4.4458,4.4524,4.4659,4.477,4.4865,4.4865,4.4865,0.0,4.4865,4.4865,4.4865,4.4865,4.487,4.487,4.4895,4.4895,4.4895,4.4895,4.4895,4.4895,4.4895,4.4889,4.487,4.487,4.4846,4.4796,4.4685,4.4685,4.4605,4.4515,4.4515,4.4487,4.4487,4.458,4.5519,4.6918,4.6918,4.795,4.9415,4.9415,4.9384,4.9384,0.0,4.601,4.6047,4.6256,4.6212,4.6173,4.6289,4.6308,4.6307,4.6301,4.6293,4.6303,4.63,4.6256,4.6215,4.6192,4.6195,4.6206,4.6203,4.6196,4.6146,4.6037,4.6007,4.5953,4.5835,4.5794,4.58,4.58,4.58,4.58,4.58,4.58,4.5805,4.5795,4.5795,4.5785,4.5726,4.5709,4.5549,4.5263,4.4919,4.4676,4.4438,4.4121,4.4005,4.4005,4.4005,4.4005,4.4005,4.4005,4.4005,4.4005,0.0,0.0,0.0,4.4005,0.0,4.4005,4.4005,4.4005,4.4005,0.0,0.0,0.0,4.4005,4.4005,4.4005,4.4036,4.4067,4.4067,4.4097,4.4097,4.4097,4.4097,4.4237,4.4401,4.4524,4.4551,4.4578,4.4578,4.4578,0.0,4.4578,4.4578,4.4578,4.4578,4.4685,4.4789,4.4895,4.4895,4.4895,4.4895,4.4895,4.4895,4.4895,4.4796,4.4738,4.4738,4.4632,4.4551,4.4524,4.4524,4.4524,4.4515,4.4515,4.443,4.44,4.5054,4.5975,4.6993,4.6993,4.7988,4.9415,4.9415,4.9321,4.9244,4.594,4.5939,4.5994,4.6137,4.6123,4.6108,4.6199,4.6206,4.6195,4.6204,4.6229,4.625,4.625,4.6229,4.6191,4.6202,4.62,4.6209,4.6201,4.6196,4.6154,4.6047,4.6017,4.5964,4.5848,4.5827,4.58,4.58,4.58,4.58,4.58,4.58,4.5723,4.5613,4.5731,4.5687,4.5513,4.564,4.5419,4.4985,4.4849,4.465,4.4374,4.4091,4.4005,4.4005,4.4005,4.4005,4.4005,4.4005,4.4005,0.0,4.4005,4.4005,4.4005,0.0,4.4005,4.4005,0.0,0.0,0.0,4.4005,0.0,0.0,0.0,4.4005,4.3955,4.3828,4.3795,4.3763,4.3631,4.3597,4.3597,4.3597,4.3795,4.3955,4.4048,4.4306,4.4515,4.4515,4.4515,0.0,4.4515,4.4515,4.4542,4.4578,4.4659,4.4764,4.4895,4.4895,4.487,4.4796,4.4796,4.4789,4.4712,4.4632,4.4605,4.4605,4.4524,4.4458,4.4401,4.4401,4.4344,4.4248,4.4248,4.4188,4.4221,4.5041,4.5942,4.6788,4.7199,4.8095,4.916,4.916,4.9094,4.9046,4.5844,4.5908,4.5949,4.5987,4.6041,4.6076,4.6098,4.6105,4.6099,4.6128,4.616,4.6195,4.6195,4.6192,4.6202,4.6191,4.6187,4.6195,4.6201,4.6196,4.6146,4.6084,4.6027,4.5964,4.5873,4.5841,4.58,4.58,4.58,4.58,4.58,4.58,4.5673,4.5472,4.5629,4.5582,4.5362,4.5531,4.5302,4.48,4.48,4.4599,4.4289,4.4079,4.4005,4.4005,4.4005,4.4005,4.4005,4.4005,4.4005,4.4005,4.4005,4.4005,0.0,0.0,0.0,0.0,0.0,0.0,0.0,0.0,0.0,4.3892,0.0,0.0,0.0,4.3563,4.3529,4.3461,4.3232,4.3214,4.3214,4.3214,0.0,0.0,0.0,4.3955,0.0,4.4383,4.4411,0.0,4.4411,4.4411,4.4468,4.4605,4.4632,4.4667,4.4815,4.4821,4.477,4.4659,4.4659,4.4605,4.4515,4.4487,4.4458,4.4458,4.4411,4.4354,4.4237,4.4237,4.4147,4.4005,4.4005,4.4005,4.4079,4.5101,4.59,4.6587,4.7386,4.8184,4.8909,4.8909,4.8909,4.8909,4.5699,4.5727,4.5786,4.5969,4.5969,4.5969,4.6084,4.6092,4.6117,4.6182,4.6205,4.6191,4.6191,4.6191,4.619,4.6197,4.615,4.615,4.6196,4.6146,4.6084,4.6007,4.6007,4.5953,4.5794,4.5814,4.58,4.58,4.58,4.58,4.58,4.58,4.5757,4.5665,4.5454,4.5437,4.555,4.5342,4.5074,4.48,4.48,4.4511,0.0,4.3986,4.4005,4.4005,4.4005,4.4005,4.4005,0.0,4.4005,4.4005,0.0,4.4005,4.4005,4.4005,0.0,0.0,0.0,0.0,0.0,0.0,4.3664,0.0,0.0,0.0,4.3268,4.3232,0.0,4.3232,4.3214,0.0,0.0,0.0,0.0,0.0,4.3232,4.3304,4.3529,4.4005,4.4067,0.0,0.0,4.4067,4.4147,4.4344,4.4344,4.4383,4.4524,4.4542,4.4542,4.4524,4.4524,4.4515,4.4515,4.4373,4.4314,4.4314,4.4128,4.4036,4.4036,4.4036,4.4036,4.4005,4.4005,4.4005,4.4116,4.5714,4.642,4.6587,4.7386,4.8184,4.8909,4.8909,4.8909,4.8909,4.5684,4.5703,4.5731,4.5861,4.5873,4.5866,4.5966,4.6018,4.6046,4.6083,4.6086,4.6078,4.6078,4.6123,4.6136,4.6133,4.611,4.6139,0.0,4.615,4.6076,4.5987,4.6007,4.5938,4.5814,4.58,4.58,4.58,4.58,4.58,4.58,4.58,4.5673,4.5472,4.5342,4.5245,4.5118,4.503,4.48,4.4572,4.4572,4.4346,0.0,4.4005,4.4005,4.4005,4.4005,4.4005,4.4005,0.0,4.4005,0.0,0.0,0.0,0.0,4.3828,0.0,0.0,0.0,0.0,0.0,0.0,0.0,0.0,4.3196,0.0,4.316,0.0,0.0,0.0,0.0,0.0,0.0,0.0,4.2806,0.0,0.0,0.0,4.3268,0.0,0.0,0.0,0.0,0.0,0.0,0.0,4.4128,4.414,4.4487,4.4515,4.4458,4.4401,4.4373,4.4344,4.4218,4.4128,4.4147,4.4097,4.4036,4.4005,4.4005,4.4005,4.4005,4.4005,4.4005,4.4005,4.4135,4.5807,4.6494,4.6624,4.7906,4.8612,4.8909,4.8909,4.8909,4.8909,4.5706,4.5719,4.5731,4.5781,4.5805,4.5827,4.5887,4.5956,4.6003,4.6003,4.6017,4.6036,4.6035,4.6091,4.6114,4.6106,4.6088,4.6081,0.0,0.0,4.6021,4.5968,4.5968,0.0,4.5814,4.58,4.58,4.58,4.58,4.58,4.58,4.58,4.5658,4.5399,4.5343,4.5144,4.4896,4.4825,4.465,4.4383,4.4383,4.425,4.4005,4.4005,4.4005,4.4005,4.4005,4.4005,4.4005,4.4005,4.4005,0.0,4.3679,0.0,0.0,0.0,0.0,0.0,4.3763,0.0,0.0,0.0,0.0,0.0,0.0,0.0,0.0,0.0,0.0,0.0,0.0,0.0,4.2287,4.2287,0.0,4.2595,0.0,4.2806,0.0,0.0,0.0,0.0,0.0,0.0,0.0,0.0,0.0,4.3936,4.4354,4.4354,4.4325,4.4207,4.4226,4.4147,4.4005,4.4005,4.4005,4.4005,4.4005,4.4005,4.4005,4.4005,4.4005,4.4005,4.4005,4.4005,4.4135,4.5807,4.6494,4.6661,4.8277,4.8909,4.8909,4.8909,4.8909,4.8909,4.5785,4.58,4.58,4.58,4.5805,4.5827,4.5893,4.596,4.6003,4.5997,4.6068,4.6098,4.6104,4.6163,4.6168,4.6103,0.0,4.5994,4.6017,0.0,4.5917,0.0,0.0,4.5861,4.58,4.58,4.58,4.58,4.58,4.58,4.58,4.581,4.5765,4.5684,4.5419,4.5263,4.518,4.4896,4.465,4.4383,4.4383,4.425,4.4005,0.0,4.4005,4.4005,4.4005,0.0,0.0,4.4005,4.4005,0.0,0.0,0.0,0.0,0.0,0.0,0.0,0.0,0.0,0.0,4.2826,0.0,0.0,0.0,0.0,4.2328,0.0,0.0,0.0,0.0,4.2287,4.2287,4.2287,4.2328,0.0,0.0,0.0,0.0,0.0,0.0,0.0,0.0,0.0,0.0,0.0,0.0,0.0,4.4005,4.4005,4.4005,4.4005,4.4005,4.4005,4.4005,4.4005,4.4005,4.4005,4.4005,4.4005,4.4005,4.4005,4.4005,4.4005,4.4005,4.4005,4.4135,4.5807,4.6494,4.6661,4.8277,4.8909,4.8909,4.8909,4.8909,4.8909,4.5323,4.5473,4.5645,4.5791,4.58,4.5808,4.5905,4.5953,4.6017,4.6049,4.6086,0.0,0.0,4.6113,4.6122,0.0,0.0,4.6007,4.5996,4.5969,0.0,0.0,0.0,4.5902,4.5814,4.58,4.58,4.58,4.58,4.58,4.58,4.581,4.5765,4.57,4.5419,4.5161,4.4938,4.465,4.4374,4.4121,0.0,4.4079,4.4005,0.0,0.0,4.4005,4.4005,4.4005,0.0,4.4005,4.3892,4.3697,4.3426,4.3339,4.325,4.2939,4.3032,0.0,0.0,0.0,4.2634,4.2555,0.0,0.0,0.0,0.0,0.0,0.0,0.0,0.0,0.0,4.2287,4.2287,4.2287,4.2287,4.2287,0.0,0.0,0.0,0.0,0.0,0.0,0.0,0.0,0.0,0.0,4.3579,0.0,0.0,4.4005,4.4005,4.4005,4.4005,4.4005,4.4005,4.4005,4.4005,4.4005,4.4005,4.4005,4.4005,4.4005,4.4005,4.4005,4.4005,4.4321,4.4952,4.6048,4.681,4.7404,4.8481,4.8909,4.8909,4.8909,4.8909,4.8909,4.5118,4.5264,4.5454,4.5658,4.5766,4.5854,4.5886,4.5988,4.6052,0.0,4.6089,0.0,4.6129,0.0,4.6085,0.0,4.6005,4.5949,4.592,4.5928,0.0,4.5925,4.5925,4.5835,0.0,4.5752,4.5752,4.5658,4.5752,4.58,4.5805,4.5781,4.5684,4.5545,4.5457,4.5118,4.465,4.4572,4.4318,4.4005,0.0,4.4005,0.0,0.0,4.4005,4.4005,0.0,4.4005,4.4005,4.3974,4.3763,4.3424,4.3124,4.292,4.2711,4.2396,4.2516,4.2673,4.244,4.2297,0.0,4.2151,4.1959,0.0,4.2103,0.0,0.0,0.0,0.0,0.0,0.0,0.0,4.2145,4.2145,4.2246,4.2287,0.0,4.2287,0.0,0.0,0.0,4.2613,0.0,0.0,0.0,4.3545,4.3529,4.3631,0.0,0.0,4.4005,4.4005,4.4005,4.4005,4.4005,4.4005,4.4005,4.4005,4.4005,4.4005,4.4005,4.4005,4.4005,4.4005,4.4005,4.4488,4.5361,4.616,4.6977,4.7776,4.8593,4.8909,4.8909,4.8909,4.8909,4.8909,4.5159,4.518,4.5244,4.5454,4.5718,0.0,0.0,0.0,4.6105,0.0,4.6105,4.613,4.6191,4.6134,4.6064,4.6018,4.5938,4.588,4.5814,4.58,0.0,0.0,4.58,4.5673,4.5399,4.5658,4.5673,4.5399,4.5673,4.5805,4.58,4.5731,4.5565,4.5322,4.5513,4.5161,4.4411,4.4676,4.4484,4.4005,4.4005,4.4005,4.4005,4.4005,4.4005,4.4005,4.4005,4.4005,4.3974,4.3878,4.356,4.3123,4.2752,4.236,4.1906,4.1675,4.1719,4.1849,4.1648,4.1719,4.1849,4.1648,0.0,0.0,0.0,0.0,4.1892,0.0,0.0,0.0,0.0,0.0,0.0,4.1874,4.2103,4.2287,4.2287,4.2287,4.2287,0.0,0.0,4.2432,4.2673,4.2472,4.2691,4.3511,4.3375,4.3426,0.0,0.0,4.3974,4.3974,4.4005,4.4005,4.4005,4.4005,4.4005,4.4005,4.4005,4.4005,4.4005,4.4005,4.4005,4.4005,4.4042,4.4562,4.5417,4.6234,4.7033,4.785,4.8612,4.8909,4.8909,4.8909,4.8909,4.8909,4.4674,4.4789,4.5033,0.0,4.5623,4.5742,0.0,0.0,0.0,0.0,4.6147,4.6189,4.6197,4.6103,4.6017,4.5998,4.5898,0.0,0.0,0.0,0.0,4.58,4.58,4.5673,4.5399,4.5658,4.5673,4.5399,4.568,4.5795,4.58,4.5738,4.5549,4.5322,4.5513,4.5161,4.4411,4.4676,4.4484,4.4005,4.4005,4.4005,0.0,0.0,4.3974,4.3929,4.3974,4.3974,4.3878,4.3508,4.3141,4.2752,4.232,4.1966,4.1719,4.1648,4.1648,4.1631,4.1346,4.1498,4.1631,4.1363,4.1453,4.1604,0.0,0.0,0.0,0.0,0.0,0.0,0.0,0.0,0.0,4.1874,4.2103,4.2287,4.2287,0.0,0.0,4.2287,0.0,0.0,4.2432,4.2747,4.305,4.3304,4.3426,4.3563,0.0,0.0,0.0,4.3697,4.391,4.4005,4.4005,4.4005,4.4005,4.4005,4.4005,4.4005,4.4005,4.4005,4.4005,4.4042,4.4692,4.5435,4.6252,4.7051,4.7868,4.8612,4.8816,4.8909,4.8909,4.8909,4.8909,4.8909,4.4602,4.4819,4.5123,4.5541,0.0,0.0,4.5994,4.6091,0.0,4.6136,4.6172,0.0,4.6201,4.6083,4.5997,4.5997,4.5893,0.0,4.58,0.0,0.0,4.58,4.58,4.5607,4.5207,4.5468,0.0,4.5165,4.5454,4.5632,4.5754,4.5603,4.5381,4.5096,4.5322,4.4966,4.425,4.4374,4.4279,4.4005,4.4005,4.3974,0.0,4.3961,4.3897,4.3851,4.3897,4.3781,4.3493,4.3212,4.2734,4.2198,4.1906,4.1552,4.129,4.129,4.138,4.1363,4.1134,4.1226,4.1363,4.1134,4.118,4.1335,4.1408,4.1408,4.1408,0.0,0.0,0.0,0.0,0.0,0.0,4.2061,4.2205,4.2287,0.0,0.0,0.0,0.0,4.2251,0.0,0.0,4.2862,4.3214,4.3214,4.3339,4.3426,0.0,0.0,0.0,4.3426,4.3563,4.3697,4.3828,4.3828,4.3892,4.4005,4.4005,4.4005,4.4005,4.4005,4.4005,4.4042,4.4915,4.5751,4.655,4.7367,4.8166,4.8909,4.8909,4.8909,4.8909,4.8909,4.8909,4.8909,4.4872,4.5039,4.5304,0.0,0.0,0.0,0.0,4.6105,0.0,4.6198,0.0,4.6206,4.6201,4.608,4.5997,4.5997,0.0,4.58,4.58,4.58,4.58,4.58,4.58,4.5522,4.4912,4.5227,4.5226,0.0,0.0,4.5437,4.5693,4.5419,4.5118,4.48,4.5052,4.4751,4.4048,4.4017,4.4005,4.4005,4.4005,4.3942,4.3897,4.3883,4.3851,4.3753,4.3753,4.3495,4.3051,4.2959,4.2342,4.1648,4.149,4.1163,4.0888,4.0888,4.1041,4.1117,4.0965,4.1041,4.1117,4.0918,4.0888,4.0965,4.1117,4.1163,4.1163,4.1163,4.1163,4.1134,0.0,0.0,0.0,4.2121,0.0,0.0,0.0,0.0,0.0,0.0,0.0,0.0,0.0,0.0,4.305,4.3087,4.3069,0.0,0.0,0.0,0.0,4.3123,4.316,0.0,4.3563,0.0,4.3664,4.391,4.391,4.391,4.391,4.391,4.3966,4.4096,4.4967,4.5801,4.6598,4.7414,4.8155,4.8785,4.8785,4.8785,4.882,4.882,4.8874,4.8874,4.5185,4.5246,4.5379,0.0,0.0,4.5784,4.6053,4.6156,4.6198,4.619,4.6198,4.6197,4.6196,4.6074,4.5997,4.5997,4.5893,0.0,0.0,0.0,0.0,4.58,4.5791,4.5507,4.4912,4.5167,4.5185,0.0,0.0,4.5438,4.5693,4.5362,4.5074,4.48,4.4849,4.4676,4.4318,4.4091,0.0,4.4005,4.3961,4.3897,4.3897,4.3837,4.3753,4.3634,4.3634,4.3373,4.2977,4.2562,4.2038,4.149,4.1134,4.0965,4.0888,4.0888,4.0918,4.0918,4.0935,4.0918,4.0918,4.0935,4.0888,4.0935,4.0918,4.0965,4.0965,4.0965,4.0965,4.0918,4.0935,0.0,0.0,0.0,0.0,0.0,0.0,0.0,0.0,0.0,0.0,4.1899,0.0,0.0,0.0,4.2498,4.2338,0.0,0.0,0.0,0.0,0.0,4.305,0.0,0.0,0.0,4.3304,4.3339,4.3339,4.3339,4.3339,4.3339,4.3669,4.4291,4.5169,4.5974,4.6742,4.7584,4.8023,4.8151,4.8151,4.8288,4.8495,4.8495,4.8642,4.8822,4.5571,4.5665,4.5731,0.0,0.0,0.0,0.0,4.6171,0.0,4.6209,4.6192,4.6201,4.6201,4.6083,4.5997,4.5997,4.5893,4.58,4.58,4.58,4.58,4.58,4.5661,4.538,4.4912,4.4886,4.4858,4.4849,0.0,0.0,4.5438,4.4988,4.4726,4.4599,4.4457,4.4402,4.4374,0.0,0.0,4.3961,4.3883,4.3818,4.3734,4.3701,4.3634,4.3566,4.3566,4.3124,4.2559,4.2342,4.1778,4.1163,4.0965,4.0888,4.0888,4.0888,4.0888,4.0888,4.0888,4.0888,4.0888,4.0888,4.0888,4.0888,4.0888,4.0888,4.0888,4.0888,4.0888,4.0918,4.1041,4.1117,0.0,0.0,0.0,0.0,0.0,0.0,4.1453,0.0,0.0,0.0,0.0,0.0,0.0,0.0,0.0,0.0,0.0,0.0,0.0,0.0,0.0,0.0,0.0,0.0,0.0,4.3214,4.305,4.3069,4.3214,4.3616,4.3943,4.4362,4.564,4.6387,4.6749,4.7488,4.7692,4.7591,4.7591,4.7838,4.8117,4.8117,4.8383,4.8732,4.5914,4.6027,0.0,0.0,4.6124,0.0,4.6191,4.6186,4.6182,4.6195,4.6199,4.6192,4.6187,4.6072,4.5997,4.5986,4.588,4.58,4.58,4.58,4.58,4.58,4.5541,4.5227,4.4909,4.4612,4.4546,0.0,0.0,0.0,0.0,4.4606,4.4374,0.0,0.0,0.0,0.0,0.0,4.3897,4.3883,4.3786,4.3701,4.3582,4.3582,4.3479,4.3375,4.3375,4.2808,4.2032,4.2032,4.1552,4.0888,4.0888,4.0888,4.0888,4.0888,4.0888,4.0888,4.0888,4.0888,4.0888,4.0888,4.0888,4.0888,4.0888,4.0888,4.0888,4.0888,4.0888,4.0965,4.1134,4.1117,0.0,0.0,0.0,0.0,0.0,0.0,0.0,0.0,0.0,0.0,4.1426,0.0,0.0,0.0,0.0,0.0,0.0,0.0,0.0,0.0,0.0,4.2269,4.2458,0.0,4.2476,0.0,4.2714,4.286,4.3303,4.3808,4.4204,4.4584,4.5793,4.6445,4.6644,4.7108,4.7186,4.6972,4.6972,4.7255,4.7638,4.7638,4.7901,4.8289,0.0,0.0,0.0,0.0,0.0,0.0,4.6198,4.6156,4.613,4.6186,4.6195,4.6176,4.6119,4.6037,4.5975,4.591,4.5835,4.58,4.58,4.58,4.5805,4.5795,4.549,4.5185,4.4919,4.4572,4.4411,0.0,0.0,4.4546,0.0,0.0,0.0,0.0,0.0,0.0,0.0,4.3897,4.3851,4.3804,4.3667,4.3615,4.3582,4.3513,4.3268,4.2975,4.2975,4.2378,4.1561,4.1561,4.1283,4.0888,4.0888,4.0888,4.0888,4.0888,4.0888,4.0888,4.0888,4.0888,4.0888,4.0888,4.0888,4.0888,4.0888,4.0888,4.0888,4.0888,4.0888,4.0935,4.0918,4.0918,4.0918,0.0,0.0,0.0,0.0,0.0,4.0918,4.0965,0.0,0.0,0.0,4.0935,0.0,0.0,4.1283,0.0,0.0,0.0,0.0,4.1648,0.0,4.1692,4.1675,4.1675,0.0,4.2002,4.2002,4.2519,4.3477,4.3319,4.3953,4.5283,4.5176,4.554,4.6257,4.6297,4.6315,4.6266,4.6266,4.6489,4.6781,4.6781,4.6945,4.7158,0.0,0.0,0.0,0.0,0.0,0.0,0.0,4.6054,4.6047,4.608,4.6083,4.6075,4.6037,4.5986,4.5941,4.5898,4.5841,4.5771,4.5677,4.5771,4.5692,4.5456,4.5206,4.4931,4.4676,4.4318,4.425,0.0,0.0,0.0,0.0,0.0,0.0,0.0,0.0,4.3929,4.3915,4.3851,4.3786,4.3667,4.36,4.3548,4.3513,4.3232,4.3032,4.2844,4.2577,4.2074,4.1472,4.1472,4.1237,4.0888,4.0888,4.0888,4.0888,4.0888,4.0888,4.0888,4.0888,4.0888,4.0888,4.0888,4.0888,4.0888,4.0888,4.0888,4.0888,4.0888,4.0888,4.0888,4.0888,4.0888,4.0888,0.0,0.0,0.0,0.0,0.0,0.0,4.0888,0.0,4.0888,0.0,0.0,0.0,0.0,0.0,0.0,0.0,0.0,0.0,4.1604,0.0,4.1604,4.1604,4.1453,4.1498,4.1719,4.2061,4.2492,4.305,4.3895,4.4853,4.5857,4.5778,4.5789,4.5938,4.5938,4.5854,4.5701,4.5701,4.5988,4.6411,4.6411,4.6613,4.6963,4.5992,0.0,4.6011,0.0,4.601,4.5998,4.5956,4.5964,4.5975,4.5975,4.5922,4.591,4.5956,4.5941,4.5886,4.5861,4.578,4.5692,4.5613,4.561,4.549,4.5182,4.4928,0.0,4.4465,4.4181,4.4091,4.426,4.4091,0.0,0.0,0.0,0.0,0.0,4.3897,4.3883,4.3851,4.3786,4.3686,4.3548,4.3513,4.341,4.3304,4.2995,4.2711,4.2458,4.2115,4.1692,4.1311,4.1311,4.1117,4.0888,4.0888,4.0888,4.0888,4.0888,4.0888,4.0888,4.0888,4.0888,4.0888,4.0888,4.0888,4.0888,4.0888,4.0888,4.0888,4.0888,4.0888,4.0888,4.0888,4.0888,4.0888,4.0888,0.0,0.0,0.0,0.0,0.0,0.0,4.0888,4.0888,4.0888,4.0888,0.0,0.0,0.0,0.0,0.0,0.0,0.0,0.0,0.0,0.0,0.0,4.1226,4.1348,4.1821,4.2225,4.276,4.3401,4.4668,4.5513,4.5938,4.5938,4.5854,4.5701,4.5701,4.5563,4.5423,4.5423,4.5615,4.5938,4.5938,4.6168,4.6442,4.5763,4.581,4.5804,4.5796,4.5902,4.5956,4.5822,4.5854,4.5886,4.5886,4.5737,4.5692,4.5873,4.5886,4.5861,4.5814,4.5677,4.5596,4.5596,4.5362,4.518,0.0,0.0,4.4465,4.4383,4.4151,4.4005,4.3986,0.0,0.0,4.4005,0.0,4.3897,4.3915,4.3837,4.3804,4.3804,4.3667,4.3548,4.3497,4.3497,4.3268,4.292,4.2882,4.232,4.1534,4.1516,4.1237,4.0935,4.0935,4.0871,4.0888,4.0888,4.0888,4.0888,4.0888,4.0888,4.0888,4.0888,4.0888,4.0888,4.0888,4.0888,4.0888,4.0888,4.0888,4.0888,4.0888,4.0888,4.0888,4.0888,4.0888,4.0888,4.0888,0.0,0.0,0.0,0.0,0.0,4.0888,4.0888,4.0888,4.0888,4.0888,0.0,0.0,0.0,0.0,0.0,0.0,0.0,4.0918,4.0935,0.0,4.0935,4.0935,4.1393,4.2375,4.2392,4.3318,4.4979,4.5571,4.5632,4.5423,4.5423,4.5423,4.5423,4.5423,4.5423,4.5423,4.5423,4.5423,4.5423,4.5423,4.5423,4.5423,4.5653,4.5631,4.5607,4.5587,4.5673,4.5673,4.5543,4.5626,4.5658,4.556,4.551,4.5437,4.5436,4.5594,4.5692,0.0,4.5629,4.5454,0.0,4.5161,4.5026,4.4576,4.4511,4.4383,4.4121,4.4048,4.4005,4.4005,0.0,0.0,0.0,4.3749,4.3734,4.3837,4.3701,4.3667,4.3667,4.3615,4.3548,4.3497,4.3196,4.2995,4.2844,4.2198,4.1778,4.1472,4.1209,4.1012,4.0888,4.0888,4.0888,4.0888,4.0888,4.0888,4.0888,4.0888,4.0888,4.0888,4.0888,4.0888,4.0888,4.0888,4.0888,4.0888,4.0888,4.0888,4.0888,4.0888,4.0888,4.0888,4.0888,4.0888,4.0888,4.0888,4.0888,0.0,0.0,0.0,0.0,0.0,4.0888,4.0888,0.0,4.0888,0.0,0.0,0.0,0.0,0.0,0.0,0.0,0.0,4.0888,0.0,4.0888,4.0888,4.1298,4.2137,4.2691,4.3779,4.5251,4.5459,4.5459,4.5423,4.5423,4.5423,4.5423,4.5423,4.5423,4.5423,4.5423,4.5423,4.5423,4.5423,4.5423,4.5423,4.5436,4.5419,4.54,4.54,4.5475,4.5437,4.5243,4.5342,4.5381,4.5225,4.5161,4.5118,4.5099,4.5185,0.0,4.5323,4.5343,4.5184,4.4849,4.4843,4.4688,4.4314,4.4298,4.4221,4.3986,0.0,0.0,4.4005,4.3974,4.3929,4.3851,4.3701,4.3634,4.3719,4.3444,4.3356,4.3338,4.316,4.3032,4.3014,4.275,4.2537,4.2338,4.1735,4.1401,4.1237,4.1012,4.0888,4.0888,4.0888,4.0888,4.0888,4.0888,4.0888,4.0888,4.0888,4.0888,4.0888,4.0888,4.0888,4.0888,4.0888,4.0888,4.0888,4.0888,4.0888,4.0888,4.0888,4.0888,4.0888,4.0888,4.0888,4.0888,4.0888,4.0888,4.0888,4.0888,0.0,0.0,0.0,0.0,0.0,0.0,4.0888,0.0,0.0,0.0,0.0,0.0,0.0,0.0,4.0888,4.0888,0.0,4.0888,4.1147,4.1681,4.244,4.3509,4.4509,4.5423,4.5423,4.5423,4.5423,4.5423,4.5423,4.5423,4.5423,4.5423,4.5423,4.5423,4.5423,4.5423,4.5423,4.5423,4.5423,4.5084,4.5106,0.0,0.0,4.526,0.0,4.4915,4.503,4.5099,4.4909,4.4757,4.4751,4.4862,4.4757,4.4751,4.482,0.0,0.0,0.0,4.443,4.4285,4.4285,4.4097,4.4005,4.4005,4.4005,4.4005,4.4005,4.3929,4.3851,4.3771,4.3667,4.3582,4.3548,4.3105,4.2902,4.2903,4.24,4.2198,4.2216,4.2157,4.1906,4.149,4.149,4.1255,4.0888,4.0888,4.0888,4.0888,4.0888,4.0888,4.0888,4.0888,4.0888,4.0888,4.0888,4.0888,4.0888,4.0888,4.0888,4.0888,4.0888,4.0888,4.0888,4.0888,4.0888,4.0888,4.0888,4.0888,4.0888,4.0888,4.0888,4.0888,4.0888,4.0888,4.0888,4.0888,0.0,0.0,0.0,0.0,0.0,0.0,4.0888,4.0888,0.0,0.0,0.0,0.0,0.0,4.0888,4.0888,4.0888,4.0888,4.0888,4.1612,4.2406,4.3318,4.4734,4.5423,4.5423,4.5423,4.5423,4.5423,4.5423,4.5423,4.5423,4.5423,4.5423,4.5423,4.5423,4.5423,4.5423,4.5423,4.5423,4.5423,0.0,0.0,4.4448,4.4448,4.465,4.4795,4.4621,4.4714,4.477,4.4602,4.4587,4.4532,4.4458,4.4505,4.4458,4.4231,4.4546,4.4662,4.4421,4.4344,4.4237,4.4067,4.4036,4.4005,4.4005,4.4005,4.3974,4.3929,4.3749,4.3649,4.3634,4.3548,4.3375,4.3069,4.2957,4.2711,4.24,4.2239,4.2198,4.2157,4.1821,4.1604,4.149,4.1163,4.0965,4.0888,4.0888,4.0888,4.0888,4.0888,4.0888,4.0888,4.0888,4.0888,4.0888,4.0888,4.0888,4.0888,4.0888,4.0888,4.0888,4.0888,4.0888,4.0888,4.0888,4.0888,4.0888,4.0888,4.0888,4.0888,4.0888,4.0888,4.0888,4.0888,4.0888,4.0888,4.0888,4.0888,0.0,0.0,4.0888,4.0888,4.0888,4.0888,4.0888,0.0,0.0,0.0,0.0,4.0888,4.0888,4.0888,4.0888,4.0888,4.0888,4.1612,4.2681,4.4078,4.4975,4.5423,4.5423,4.5423,4.5423,4.5423,4.5423,4.5423,4.5423,4.5423,4.5423,4.5423,4.5423,4.5423,4.5423,4.5423,4.5423,4.5423,4.3749,4.3862,4.3943,4.3943,4.4087,4.4146,4.4011,4.4065,4.4046,4.3905,4.4017,4.4048,4.4005,4.4158,4.4188,4.4005,4.4327,4.443,4.4177,4.4177,4.4097,4.4005,4.4005,4.4005,4.4005,4.3974,4.3929,4.3851,4.3701,4.3582,4.3582,4.3339,4.3123,4.2882,4.2458,4.2115,4.1864,4.1666,4.1596,4.1578,4.1328,4.1255,4.1209,4.0965,4.0888,4.0888,4.0888,4.0888,4.0888,4.0888,4.0888,4.0888,4.0888,4.0888,4.0888,4.0888,4.0888,4.0888,4.0888,4.0888,4.0888,4.0888,4.0888,4.0888,4.0888,4.0888,4.0888,4.0888,4.0888,4.0888,4.0888,4.0888,4.0888,4.0888,4.0888,4.0888,4.0888,4.0888,0.0,4.0888,4.0888,4.0888,4.0888,4.0888,4.0888,4.0888,0.0,0.0,4.0888,4.0888,4.0888,4.0888,4.0888,4.1043,4.1388,4.2492,4.363,4.4803,4.5234,4.5423,4.5423,4.5423,4.5423,4.5423,4.5423,4.5423,4.5423,4.5423,4.5423,4.5423,4.5423,4.5423,4.5423,4.5423,4.5423,4.5423,4.3435,4.3468,4.3468,4.3468,4.352,4.3505,4.3371,4.3371,4.332,4.3196,4.3391,4.3529,4.3529,4.373,4.391,4.3942,4.4055,4.4116,4.4005,4.4005,4.4005,4.3974,4.4005,4.4005,4.3974,4.3897,4.38,4.3686,4.3634,4.3513,4.3391,4.3069,4.2844,4.2634,4.1864,4.149,4.1401,4.1041,4.0888,4.0888,4.0888,4.0888,4.0888,4.0888,4.0888,4.0888,4.0888,4.0888,4.0888,4.0888,4.0888,4.0888,4.0888,4.0888,4.0888,4.0888,4.0888,4.0888,4.0888,4.0888,4.0888,4.0888,4.0888,4.0888,4.0888,4.0888,4.0888,4.0888,4.0888,4.0888,4.0888,4.0888,4.0888,4.0888,4.0888,4.0888,4.0888,0.0,4.0888,4.0888,4.0888,4.0888,4.0888,4.0888,4.0888,4.0888,4.0888,4.0888,0.0,4.0888,4.0888,4.0888,4.0888,4.1285,4.2164,4.3578,4.4665,4.5423,4.5423,4.5423,4.5423,4.5423,4.5423,4.5423,4.5423,4.5423,4.5423,4.5423,4.5423,4.5423,4.5423,4.5423,4.5423,4.5423,4.5423,4.5423,4.2673,4.2902,4.3014,4.3014,4.3124,4.325,4.3214,4.3232,4.3232,4.3196,4.3232,4.3268,4.3268,4.3304,4.341,4.3664,4.3495,4.3529,4.3974,4.4005,4.3974,4.3929,4.3974,4.3961,4.3818,4.3701,4.3461,4.3105,4.341,4.3124,4.244,4.275,4.2458,4.1692,4.1561,4.1328,4.1012,4.0918,4.0888,4.0888,4.0888,4.0888,4.0888,4.0888,4.0888,4.0888,4.0888,4.0888,4.0888,4.0888,4.0888,4.0888,4.0888,4.0888,4.0888,4.0888,4.0888,4.0888,4.0888,4.0888,4.0888,4.0888,4.0888,4.0888,4.0888,4.0888,4.0888,4.0888,4.0888,4.0888,4.0888,4.0888,4.0888,4.0888,4.0888,4.0888,4.0888,0.0,4.0888,4.0888,4.0888,4.0888,4.0888,4.0888,4.0888,4.0888,4.0888,4.0888,4.0888,4.0888,4.0888,4.0888,4.0888,4.1561,4.3024,4.3854,4.4665,4.5423,4.5423,4.5423,4.5423,4.5423,4.5423,4.5423,4.5423,4.5423,4.5423,4.5423,4.5423,4.5423,4.5423,4.5423,4.5423,4.5423,4.5423,4.5423,4.1732,4.2032,4.2257,4.2552,4.267,4.2709,4.2709,4.2709,4.2709,4.2709,4.2844,4.2882,4.2788,4.305,4.3142,4.2996,4.2977,4.3051,4.3159,4.3545,4.3664,4.3526,4.3781,4.3832,4.3719,4.3178,4.2903,4.2939,4.2846,4.2598,4.2198,4.2157,4.1906,4.1472,4.1283,4.1088,4.0888,4.0888,4.0888,4.0888,4.0888,4.0888,4.0888,4.0888,4.0888,4.0888,4.0888,4.0888,4.0888,4.0888,4.0888,4.0888,4.0888,4.0888,4.0888,4.0888,4.0888,4.0888,4.0888,4.0888,4.0888,4.0888,4.0888,4.0888,4.0888,4.0888,4.0888,4.0888,4.0888,4.0888,4.0888,4.0888,4.0888,4.0888,4.0888,0.0,0.0,4.0888,4.0888,4.0888,4.0888,4.0888,4.0888,4.0888,4.0888,4.0888,4.0888,4.0888,4.0888,4.0888,4.0888,4.0888,4.1681,4.2647,4.3751,4.4509,4.5079,4.5423,4.5423,4.5423,4.5423,4.5423,4.5423,4.5423,4.5423,4.5423,4.5423,4.5423,4.5423,4.5423,4.5423,4.5423,4.5423,4.5423,4.5423,4.5423,4.081,4.123,4.1534,4.1917,4.2061,4.2121,4.2121,4.2121,4.2121,4.2121,4.2333,4.2396,4.2234,4.2595,4.2711,4.2422,4.2462,4.2501,4.2483,4.2903,4.3105,4.2996,4.3284,4.3391,4.3303,4.2639,4.2382,4.2577,4.2338,4.2092,4.1881,4.1604,4.1445,4.1373,4.1041,4.0888,4.0888,4.0888,4.0888,4.0888,4.0888,4.0888,4.0888,4.0888,4.0888,4.0888,4.0888,4.0888,4.0888,4.0888,4.0888,4.0888,4.0888,4.0888,4.0888,4.0888,4.0888,4.0888,4.0888,4.0888,4.0888,4.0888,4.0888,4.0888,4.0888,4.0888,4.0888,4.0888,4.0888,4.0888,4.0888,4.0888,4.0888,4.0888,0.0,0.0,0.0,4.0888,4.0888,4.0888,4.0888,4.0888,4.0888,4.0888,4.0888,4.0888,4.0888,4.0888,4.0888,4.0888,4.1043,4.1405,4.261,4.3577,4.4268,4.5044,4.5423,4.5423,4.5423,4.5423,4.5423,4.5423,4.5423,4.5423,4.5423,4.5423,4.5423,4.5423,4.5423,4.5423,4.5423,4.5423,4.5423,4.5423,4.5423,4.5423,4.0146,4.075,4.1019,4.1082,4.1391,4.1648,4.1648,4.1648,4.1648,4.1648,4.1692,4.1692,4.1648,4.1675,4.1788,4.2032,4.1813,4.1941,4.2444,4.2198,4.2098,4.2346,4.2342,4.2342,4.2386,4.2262,4.2032,4.1604,4.199,4.1796,4.1012,4.1311,4.1328,4.0918,4.0918,4.0888,4.0888,4.0888,4.0888,4.0888,4.0888,4.0888,4.0888,4.0888,4.0888,4.0888,4.0888,4.0888,4.0888,4.0888,4.0888,4.0888,4.0888,4.0888,4.0888,4.0888,4.0888,4.0888,4.0888,4.0888,4.0888,4.0888,4.0888,4.0888,4.0888,4.0888,4.0888,4.0888,4.0888,4.0888,4.0888,4.0888,4.0888,4.0888,0.0,0.0,4.0888,4.0888,4.0888,4.0888,4.0888,4.0888,4.0888,4.0888,4.0888,4.0888,4.0888,4.0888,4.0888,4.0888,4.1526,4.3007,4.3162,4.3577,4.4268,4.5044,4.5423,4.5423,4.5423,4.5423,4.5423,4.5423,4.5423,4.5423,4.5423,4.5423,4.5423,4.5423,4.5423,4.5423,4.5423,4.5423,4.5423,4.5423,4.5423,4.5423,3.9529,3.9935,4.0235,4.0511,4.0926,4.1128,4.0861,4.1237,4.1498,4.1237,4.1453,4.156,4.1363,4.1498,4.1498,4.1328,4.1346,4.1391,4.149,4.1373,4.1578,4.2221,4.1709,4.1666,4.2221,4.1692,4.1418,4.1472,4.1418,4.1209,4.0871,4.1041,4.1041,4.0888,4.0888,4.0888,4.0888,4.0888,4.0888,4.0888,4.0888,4.0888,4.0888,4.0888,4.0888,4.0888,4.0888,4.0888,4.0888,4.0888,4.0888,4.0888,4.0888,4.0888,4.0888,4.0888,4.0888,4.0888,4.0888,4.0888,4.0888,4.0888,4.0888,4.0888,4.0888,4.0888,4.0888,4.0888,4.0888,4.0888,4.0888,4.0888,4.0888,4.0888,0.0,4.0888,4.0888,4.0888,4.0888,4.0888,4.0888,4.0888,4.0888,4.0888,4.0888,4.0888,4.0888,4.0888,4.0888,4.1319,4.2061,4.3197,4.3663,4.4234,4.4975,4.5285,4.5423,4.5423,4.5423,4.5423,4.5423,4.5423,4.5423,4.5423,4.5423,4.5423,4.5423,4.5423,4.5423,4.5423,4.5423,4.5423,4.5423,4.5423,4.5423,4.5423,3.8896,3.9242,3.9489,3.9817,4.0268,4.048,4.0334,4.0689,4.0913,4.0819,4.1024,4.1134,4.0931,4.118,4.1244,4.0918,4.1059,4.1041,4.0935,4.0888,4.118,4.1753,4.1209,4.118,4.1796,4.1226,4.1041,4.1328,4.1041,4.0888,4.0888,4.0888,4.0888,4.0888,4.0888,4.0888,4.0888,4.084,4.0888,4.0888,4.0823,4.0888,4.0888,4.0888,4.0871,4.084,4.0871,4.0871,4.084,4.0888,4.0888,4.0888,4.0888,4.0888,4.0888,4.0888,4.0888,4.0888,4.0888,4.0888,4.0888,4.0888,4.0888,4.0888,4.0888,4.0888,4.0888,4.0888,4.0888,4.0888,4.0888,4.0888,4.0888,4.0888,4.0888,4.0888,4.0888,4.0888,4.0888,4.0888,4.0888,4.0888,4.0888,4.0888,4.0888,4.0888,4.0888,4.0991,4.1216,4.194,4.2716,4.3492,4.4251,4.4889,4.5423,4.5423,4.5423,4.5423,4.5423,4.5423,4.5423,4.5423,4.5423,4.5423,4.5423,4.5423,4.5423,4.5423,4.5423,4.5423,4.5423,4.5423,4.5423,4.5423,4.5423,4.5423,3.8262,3.8711,3.8969,3.8969,3.9312,3.9782,4.0188,3.9901,3.9782,4.0238,4.0288,4.0288,4.0288,4.0631,4.0888,4.0888,4.0888,4.0888,4.0888,4.0888,4.0888,4.0888,4.0888,4.0888,4.0888,4.0888,4.0888,4.0888,4.0888,4.0888,4.0888,4.0888,4.0888,4.0888,4.0888,4.0888,4.0888,4.0745,4.0793,4.0888,4.0745,4.0793,4.0888,4.0888,4.084,4.0697,4.084,4.084,4.0697,4.0823,4.0888,4.0888,4.0888,4.0888,4.0888,4.0888,4.0888,4.0888,4.0888,4.0888,4.0888,4.0888,4.0888,4.0888,4.0888,4.0888,4.0888,4.0888,4.0888,4.0888,4.0888,4.0888,4.0888,4.0888,4.0888,4.0888,4.0888,4.0888,4.0888,4.0888,4.0888,4.0888,4.0888,4.0888,4.0888,4.0888,4.0888,4.1198,4.1957,4.2733,4.3509,4.4251,4.501,4.5371,4.5371,4.5371,4.5423,4.5423,4.5423,4.5423,4.5423,4.5423,4.5423,4.5423,4.5423,4.5423,4.5423,4.5423,4.5423,4.5423,4.5423,4.5423,4.5423,4.5423,4.5423,4.5423,3.7679,3.8001,3.823,3.823,3.859,3.8865,3.8969,3.9312,3.9558,3.9398,3.9627,3.9833,3.9833,4.0221,4.0485,4.0485,4.0745,4.0888,4.0888,4.0888,4.0888,4.0888,4.0888,4.0888,4.0888,4.0888,4.0888,4.0888,4.0888,4.0888,4.0888,4.0888,4.0888,4.0888,4.0793,4.0745,4.0745,4.0648,4.0631,4.0745,4.0631,4.0631,4.0745,4.0631,4.0583,4.0583,4.0697,4.0745,4.0697,4.0823,4.084,4.0745,4.0745,4.084,4.0888,4.0888,4.0888,4.0888,4.0888,4.0888,4.0888,4.0888,4.0888,4.0888,4.0888,4.0888,4.0888,4.0888,4.0888,4.0888,4.0888,4.0888,4.0888,4.0888,4.0888,4.0888,4.0888,4.0888,4.0888,4.0888,4.0888,4.0888,4.0888,4.0888,4.0888,4.0888,4.0888,4.1102,4.1477,4.2262,4.2925,4.3314,4.4041,4.4429,4.4429,4.5069,4.5423,4.5423,4.5423,4.5423,4.5423,4.5423,4.5423,4.5423,4.5423,4.5423,4.5423,4.5423,4.5423,4.5423,4.5423,4.5423,4.5423,4.5423,4.5423,4.5423,3.7401,3.7578,3.7711,3.7711,3.7911,3.8084,3.8246,3.8662,3.892,3.8827,3.9011,3.9279,3.9558,3.9731,4.007,4.0485,4.0631,4.0728,4.0888,4.0566,4.0517,4.0793,4.0745,4.0745,4.0888,4.0888,4.0871,4.084,4.0871,4.0871,4.084,4.0888,4.0888,4.084,4.0745,4.0648,4.0583,4.0485,4.0485,4.06,4.0485,4.0485,4.0583,4.0534,4.0485,4.0436,4.0583,4.06,4.0551,4.068,4.068,4.0648,4.0648,4.0697,4.0728,4.0728,4.0728,4.0728,4.0793,4.084,4.084,4.0888,4.0888,4.0888,4.0888,4.0888,4.0888,4.0888,4.0888,4.0888,4.0888,4.0888,4.0888,4.0888,4.0888,4.0888,4.0888,4.0888,4.0888,4.0888,4.0888,4.0888,4.0888,4.0888,4.0888,4.0888,4.1147,4.1435,4.1784,4.2479,4.3064,4.3304,4.3738,4.403,4.403,4.4558,4.4961,4.5123,4.5123,4.5247,4.5423,4.5423,4.5423,4.5423,4.5423,4.5423,4.5423,4.5423,4.5423,4.5423,4.5423,4.5423,4.5423,4.5423,4.5423,4.5423,3.7163,3.7298,3.7298,3.7358,3.7358,3.7535,3.7985,3.7927,3.7985,3.8351,3.839,3.8668,3.9332,3.9242,3.9506,4.0566,4.0387,4.032,4.0662,3.9969,3.9868,4.0583,4.0337,4.037,4.0776,4.0823,4.0776,4.0648,4.0776,4.084,4.0697,4.084,4.0793,4.0648,4.0583,4.0534,4.037,4.0238,4.0288,4.037,4.0288,4.0337,4.0419,4.0436,4.0387,4.0288,4.037,4.0387,4.0305,4.0436,4.0485,4.0485,4.0485,4.0485,4.0485,4.0419,4.0419,4.0419,4.0485,4.0534,4.0583,4.0662,4.0776,4.0823,4.0888,4.0888,4.0888,4.0888,4.0888,4.0888,4.0888,4.0888,4.0888,4.0888,4.0888,4.0888,4.0871,4.0888,4.084,4.084,4.0888,4.0888,4.0823,4.0823,4.081,4.0879,4.1498,4.2038,4.246,4.3085,4.3613,4.3898,4.3856,4.3856,4.3856,4.3856,4.4128,4.4652,4.4708,4.4944,4.5318,4.5371,4.5423,4.5423,4.5423,4.5423,4.5423,4.5423,4.5423,4.5423,4.5423,4.5423,4.5423,4.5423,4.5423,4.5423,3.5991,3.6258,3.6569,3.6984,3.7121,3.7225,3.7476,3.7535,3.7535,3.7637,3.7637,3.7679,3.7854,3.8141,3.8439,3.8701,3.9135,3.9348,3.9176,3.9226,3.9454,3.9817,3.9315,3.9315,3.9868,4.0468,4.0583,4.0238,4.0583,4.0745,4.0697,4.0745,4.0468,4.0003,3.9765,3.9662,3.9662,3.9523,3.9523,3.9662,4.002,3.9952,3.9662,4.0054,4.0171,4.007,3.9765,3.9935,4.0288,4.0337,4.0436,4.0485,4.0387,4.0436,4.0419,3.9935,3.9817,3.9714,3.9246,3.9332,3.9454,3.9246,3.9749,4.037,4.0776,4.0888,4.0888,4.0888,4.0888,4.0888,4.0888,4.0888,4.0888,4.0888,4.0631,4.0534,4.0888,4.0648,4.0436,4.0436,4.06,4.0648,4.0271,4.0054,4.012,4.071,4.0651,4.1105,4.2244,4.2402,4.264,4.2896,4.2912,4.2912,4.2912,4.2912,4.3323,4.4145,4.4524,4.4763,4.4872,4.5247,4.5423,4.5423,4.5423,4.5423,4.5423,4.5423,4.5423,4.5423,4.5423,4.5423,4.5423,4.5423,4.5423,4.5371,3.5544,3.5816,3.6148,3.6677,3.6754,3.68,3.6952,3.7089,3.721,3.721,3.721,3.7314,3.7711,3.7669,3.7727,3.8059,3.8439,3.8684,3.869,3.8446,3.8574,3.9049,3.8668,3.8518,3.8794,3.9332,3.9558,3.9348,3.9594,3.9697,3.9662,3.9697,3.9525,3.9193,3.9049,3.8941,3.8887,3.8794,3.8794,3.8887,3.9119,3.9119,3.8887,3.9172,3.9242,3.9226,3.8941,3.9279,3.9747,3.9747,3.9799,3.9833,3.9454,3.9385,3.9385,3.9049,3.8995,3.8941,3.8652,3.8723,3.8849,3.8745,3.9086,3.9594,4.022,4.0614,4.0793,4.0793,4.068,4.0583,4.0534,4.0402,4.0286,4.0286,4.0003,3.985,4.0037,3.9765,3.9558,3.9558,3.9645,3.9645,3.9437,3.9578,3.9818,4.0199,4.0839,4.1469,4.1966,4.2446,4.2626,4.2349,4.2365,4.2302,4.2109,4.2109,4.2349,4.2863,4.3512,4.4054,4.4597,4.4763,4.4998,4.53,4.5371,4.5423,4.5423,4.5423,4.5423,4.5423,4.5423,4.5371,4.53,4.53,4.5247,4.5211,3.5219,3.5479,3.5688,3.6148,3.6367,3.6492,3.6367,3.6677,3.6938,3.6938,3.6938,3.7165,3.777,3.727,3.7165,3.777,3.7886,3.8026,3.8318,3.7679,3.7637,3.8294,3.7969,3.7812,3.7828,3.801,3.8238,3.8407,3.8596,3.8596,3.8502,3.8596,3.8541,3.8334,3.8334,3.8238,3.8124,3.8124,3.8124,3.8181,3.8278,3.8238,3.8181,3.8278,3.8278,3.8294,3.8165,3.8463,3.892,3.9028,3.9028,3.8974,3.8463,3.8278,3.8278,3.8181,3.8124,3.8124,3.8181,3.8181,3.8238,3.8318,3.8414,3.869,3.9282,3.9902,4.037,4.037,4.0154,4.0003,3.9901,3.961,3.9437,3.9437,3.9172,3.9044,3.9082,3.8832,3.8596,3.8596,3.8694,3.8721,3.8721,3.93,3.9715,3.9845,4.1161,4.1912,4.1678,4.2554,4.2694,4.2045,4.2045,4.1851,4.1588,4.1588,4.1588,4.1588,4.2253,4.3092,4.4128,4.4152,4.449,4.5052,4.5247,4.5371,4.5371,4.5371,4.5371,4.5318,4.5371,4.53,4.5194,4.5194,4.5086,4.4995,3.4221,3.4677,3.5008,3.5073,3.5879,3.6352,3.5894,3.6226,3.6554,3.6554,3.6554,3.6616,3.6723,3.6616,3.6616,3.6723,3.6984,3.7044,3.6831,3.6984,3.721,3.7519,3.6997,3.6952,3.7476,3.6997,3.7178,3.7985,3.8351,3.8502,3.8502,3.8502,3.8222,3.7706,3.7621,3.7519,3.7519,3.7519,3.7519,3.7578,3.8067,3.801,3.7578,3.8124,3.8278,3.8238,3.7679,3.7578,3.7738,3.8238,3.839,3.839,3.8351,3.8278,3.8181,3.7679,3.7519,3.7401,3.6892,3.6968,3.7165,3.6892,3.7401,3.7969,3.7937,3.8469,3.8962,3.8962,3.8962,3.8908,3.8908,3.8854,3.8799,3.8799,3.8518,3.8367,3.8707,3.8446,3.8197,3.8197,3.8573,3.8884,3.8884,3.9192,3.9737,4.0309,4.0387,4.0765,4.1546,4.1722,4.1769,4.1654,4.1654,4.1654,4.1588,4.1588,4.1588,4.1588,4.139,4.1754,4.2615,4.3571,4.4152,4.4378,4.4998,4.5247,4.5247,4.5371,4.5264,4.5086,4.5194,4.514,4.5032,4.5032,4.4923,4.4831,3.4016,3.4274,3.4543,3.4876,3.5544,3.5958,3.5752,3.6163,3.6492,3.6492,3.6492,3.6492,3.6492,3.6492,3.6492,3.6492,3.6631,3.6693,3.6492,3.6616,3.68,3.6892,3.6662,3.66,3.6892,3.6662,3.6723,3.7134,3.7282,3.7385,3.7385,3.7385,3.7222,3.6982,3.6937,3.6892,3.6892,3.6892,3.6892,3.6892,3.7163,3.7118,3.6952,3.7163,3.7282,3.7282,3.7342,3.7417,3.7417,3.7679,3.7796,3.7738,3.7385,3.7282,3.7222,3.7013,3.6892,3.6831,3.6554,3.6616,3.6693,3.6554,3.6785,3.7058,3.6997,3.7266,3.7706,3.843,3.8446,3.8351,3.8294,3.8124,3.7994,3.7994,3.7695,3.7551,3.7754,3.7417,3.7335,3.7712,3.7965,3.8247,3.8623,3.9152,3.9617,3.9944,4.04,4.0825,4.1307,4.1522,4.1522,4.1323,4.1323,4.1189,4.0987,4.1003,4.1003,4.0987,4.0867,4.1241,4.2206,4.2599,4.3196,4.398,4.4339,4.4763,4.5086,4.514,4.5086,4.4978,4.5086,4.4978,4.4886,4.4776,4.4737,4.4682]}]]